GFSGL_sfc_rhum_000.txt.gz
RH
54 59 60 57 58 64 63 74 69 68 64 61 61 55 54 55 56 61 60 51 52 55 52 55 60 61 44 36 35 37 39 41 46 40 37 41 52 55 51 51 48 49 43
51 60 58 57 58 61 70 73 75 74 66 70 61 65 59 53 55 59 57 47 50 52 52 57 56 44 56 58 44 57 48 51 51 67 55 46 54 51 53 59 50 39 41
46 49 54 56 59 64 83 86 77 68 78 74 74 76 74 67 57 58 59 56 52 51 52 55 54 54 59 49 53 46 41 43 48 46 53 42 42 41 49 64 55 51 40
36 45 54 57 60 68 76 87 74 69 72 85 81 80 68 61 58 57 55 56 53 50 54 56 58 57 60 58 54 61 57 53 54 47 51 42 48 55 52 54 48 34 35
42 43 52 60 70 75 76 75 74 74 77 74 71 67 66 64 57 62 56 53 56 57 56 55 56 61 69 68 48 56 62 53 51 47 48 41 50 54 58 41 42 40 53
49 50 54 75 76 85 80 76 75 75 68 68 66 68 66 58 65 75 64 53 56 60 60 62 67 75 77 88 88 87 79 70 67 50 49 50 68 73 53 46 49 51 53
58 57 63 79 80 85 78 75 73 70 73 63 62 65 67 66 80 81 83 53 54 65 68 73 72 69 82 63 80 88 87 88 87 74 75 70 81 66 66 83 69 62 56
64 64 70 82 80 84 81 77 74 63 67 65 68 68 65 58 85 92 89 64 71 66 67 69 82 86 85 70 64 60 58 60 62 63 67 63 63 64 69 67 70 72 69
65 68 76 78 80 81 80 80 71 67 65 64 66 68 69 66 94 91 91 56 62 69 85 78 87 91 90 82 66 65 64 60 68 81 84 84 85 88 82 61 56 63 65
64 67 76 76 79 81 78 79 78 73 69 61 66 67 68 72 93 92 86 47 70 80 93 92 92 88 88 89 69 65 65 59 56 57 55 62 74 60 86 71 66 75 61
60 69 76 76 78 82 82 81 75 74 78 72 70 71 78 82 70 98 98 70 60 73 81 86 65 85 88 92 92 63 68 71 61 56 45 37 37 41 37 43 51 46 43
66 79 84 80 75 69 86 86 86 84 80 76 88 82 70 64 95 98 100 95 84 61 76 54 72 86 84 91 83 87 87 80 46 43 41 35 37 37 35 37 52 52 42
84 89 87 85 80 78 86 86 79 76 64 84 83 67 53 56 72 99 100 100 98 68 47 80 83 86 88 85 88 79 82 49 46 44 38 37 38 36 46 47 44 55 58
86 89 91 87 85 82 79 76 76 75 69 84 70 70 56 72 56 63 76 74 86 66 79 55 69 81 93 81 68 66 50 47 46 44 42 40 37 35 33 28 26 29 43
87 86 83 81 82 80 81 79 63 78 72 49 49 56 82 71 49 67 63 47 46 64 64 49 48 47 46 49 49 49 47 44 43 40 40 39 35 31 28 26 26 38 52
80 71 69 68 67 71 70 73 97 90 100 100 100 84 65 86 92 89 90 95 88 87 53 43 42 44 44 43 44 42 40 45 40 40 38 35 33 31 29 28 28 42 58
64 66 56 57 47 50 53 52 52 73 94 95 93 92 89 90 88 88 90 95 100 88 42 40 42 42 41 40 38 36 36 35 49 38 36 34 31 30 31 29 31 39 49
61 80 49 47 45 45 48 50 46 48 48 54 85 72 92 92 92 93 91 88 52 57 38 39 40 40 40 39 38 36 35 34 31 31 31 29 29 29 29 30 31 40 46
50 46 44 41 41 47 46 45 43 44 44 48 56 67 81 90 90 89 86 46 40 37 35 35 36 34 36 39 40 40 40 31 29 32 30 28 27 27 29 29 29 51 56
48 80 59 41 50 49 50 47 46 44 43 48 46 43 49 60 51 50 49 46 40 35 35 36 37 38 41 43 39 35 30 27 30 28 28 28 27 27 26 26 26 28 40
41 51 64 46 45 43 41 39 37 38 40 38 38 45 67 47 42 46 44 45 41 37 41 40 40 40 41 39 34 28 23 25 27 28 27 26 28 26 26 25 22 23 26
41 41 39 44 47 45 44 42 42 41 38 38 40 61 88 52 46 48 45 42 40 42 37 42 36 31 26 26 26 23 23 25 27 27 28 26 25 24 24 23 21 22 23
42 45 50 41 40 63 49 43 43 40 39 46 47 50 54 50 45 48 47 42 40 40 39 37 34 28 24 21 19 22 21 24 26 28 30 28 25 24 25 24 21 22 22
38 37 37 37 40 37 35 38 39 59 47 52 54 54 50 45 45 50 50 43 41 40 39 36 32 27 26 19 18 19 21 24 28 27 34 29 26 30 26 24 21 23 22
34 35 37 38 38 37 37 36 36 38 41 37 36 41 42 46 49 52 50 40 40 41 40 35 31 30 27 24 16 18 57 63 45 72 32 31 30 35 26 22 24 20 24
29 32 32 33 34 34 34 34 33 32 32 31 32 33 34 36 40 50 47 39 38 38 38 34 32 31 27 23 25 53 69 68 49 89 42 29 26 25 24 24 25 20 22

GFSGL_sfc_rhum_006.txt.gz
RH
70 71 72 72 73 74 73 74 72 72 72 75 74 75 77 74 76 81 79 75 78 80 77 78 75 76 75 73 74 71 69 72 78 74 71 70 75 75 70 72 72 75 71
66 70 71 73 74 73 74 73 73 77 74 74 75 77 76 71 76 78 75 65 76 77 77 79 76 61 84 82 81 80 78 77 80 84 81 78 78 79 80 80 68 49 64
61 62 66 69 72 74 76 72 75 75 76 74 75 79 76 71 76 75 75 74 73 72 73 77 76 78 82 85 86 87 86 83 88 89 83 76 76 73 75 77 76 75 67
52 56 64 66 68 68 73 76 72 75 77 78 77 77 74 70 72 71 73 74 74 70 73 74 74 76 79 83 81 87 89 92 94 98 96 91 78 74 78 78 77 78 80
52 55 62 67 68 71 73 76 75 77 79 80 79 78 75 66 59 72 72 73 76 74 74 73 72 73 80 88 93 92 90 93 94 89 91 83 68 77 84 78 80 75 72
50 53 60 67 72 73 75 78 80 82 84 83 78 77 79 58 67 75 74 70 76 77 81 77 78 83 83 93 93 90 89 92 93 96 95 91 80 88 89 89 84 78 76
54 55 60 68 74 75 75 78 83 85 85 84 79 77 76 72 80 80 80 69 74 78 82 83 74 65 82 76 86 91 93 92 85 83 86 88 90 91 90 88 88 88 81
62 59 62 69 75 76 78 81 86 86 86 83 82 79 73 72 83 86 82 78 79 78 80 83 85 82 82 80 84 88 88 85 94 95 95 84 89 90 86 84 86 86 78
56 64 64 71 77 80 83 88 86 88 86 85 82 77 78 76 86 92 89 83 80 81 79 78 82 84 84 97 86 86 86 86 74 86 89 89 79 77 80 83 77 76 70
58 63 70 78 83 88 87 89 87 84 84 77 76 80 84 80 91 91 87 68 76 80 88 84 94 84 91 94 89 86 90 88 85 79 80 82 85 80 82 82 73 77 73
61 65 74 83 87 88 89 86 85 85 86 85 83 81 81 82 92 92 91 76 72 76 74 86 78 97 95 93 92 88 89 86 79 79 74 66 65 66 65 70 83 83 72
71 73 82 87 79 81 88 90 89 88 88 88 85 84 91 88 97 94 94 91 83 77 84 87 96 96 95 92 92 85 85 84 73 70 67 64 67 64 65 70 74 76 72
75 81 84 86 82 85 89 90 86 87 77 79 78 93 93 89 94 92 97 99 100 89 85 92 98 95 90 90 88 82 83 75 72 69 68 70 66 66 72 70 71 71 70
84 86 86 85 87 87 87 82 75 76 75 77 88 95 92 95 83 93 87 97 98 91 88 85 79 76 80 84 80 80 75 74 73 76 73 70 70 66 64 66 64 61 53
85 85 88 88 87 90 84 85 75 89 91 82 92 92 75 85 79 82 81 74 74 78 79 74 73 73 71 73 72 72 74 75 74 72 72 70 66 64 65 64 63 53 55
83 83 86 92 90 85 77 76 98 97 96 95 94 83 94 97 98 94 90 88 86 83 74 79 80 66 68 72 76 75 76 76 72 69 69 67 64 65 63 61 60 63 60
84 93 87 92 87 78 74 72 74 83 92 94 96 94 84 89 91 90 90 89 85 76 73 70 61 63 65 65 63 61 60 65 72 65 65 65 62 61 59 60 59 61 60
78 90 71 72 68 73 76 67 65 69 67 69 92 83 93 91 90 90 87 77 64 69 64 58 58 61 63 62 61 60 61 64 61 62 58 54 55 59 57 57 56 58 54
71 67 64 60 76 76 72 66 54 62 62 66 70 77 86 92 92 89 92 66 57 52 55 60 55 55 58 60 63 65 64 61 59 58 56 54 56 50 54 50 49 56 55
63 70 65 54 51 51 50 45 43 59 72 63 60 60 61 66 63 65 66 66 59 50 54 56 55 60 64 65 67 68 61 57 54 56 56 55 55 52 43 43 42 42 47
44 49 65 56 47 45 42 41 38 38 44 52 53 57 70 59 56 58 56 62 56 54 61 58 62 62 63 65 64 57 50 43 45 48 46 50 54 46 51 47 37 35 35
46 45 46 47 51 52 43 41 38 35 41 49 58 61 78 52 47 57 65 65 57 64 60 65 56 55 52 52 55 47 43 38 42 44 47 44 46 43 45 39 38 36 35
58 36 50 57 57 54 41 39 37 36 40 44 49 52 53 51 58 67 65 60 63 64 62 57 53 49 47 47 41 39 33 35 43 44 46 48 42 42 44 43 38 37 34
62 55 60 54 67 50 56 53 40 46 39 39 47 51 62 61 53 68 64 67 62 66 60 59 54 43 48 42 40 32 36 42 40 40 49 45 41 44 44 43 36 37 34
86 74 64 59 57 70 45 38 43 36 48 39 39 43 46 49 50 53 56 64 62 58 56 53 56 46 44 43 37 35 58 61 50 58 39 46 45 51 45 36 38 34 36
67 70 76 56 57 58 55 48 43 49 47 45 39 41 44 50 47 51 52 50 51 51 52 51 53 45 41 38 37 52 70 64 55 67 48 42 40 43 43 41 38 33 36

GFSGL_sfc_rhum_009.txt.gz
RH
76 77 78 80 77 72 86 80 79 78 82 78 77 88 82 81 83 89 85 82 90 82 83 82 87 86 82 72 84 79 71 76 81 79 74 73 69 65 68 72 72 73 74
73 75 78 79 79 78 72 80 83 74 76 76 80 76 83 79 83 85 82 77 84 90 83 84 81 69 85 85 81 83 87 90 93 85 86 81 78 73 76 82 75 63 68
72 74 77 76 80 80 75 81 84 70 80 78 73 79 81 81 81 83 77 83 88 85 87 85 83 81 88 92 89 88 88 89 92 93 92 91 83 80 70 76 81 77 70
71 73 74 74 75 76 76 74 85 81 84 77 76 78 82 79 77 81 83 88 90 86 83 77 76 83 85 90 83 88 92 92 96 96 96 97 96 75 77 86 83 83 79
66 70 71 71 72 75 77 80 75 87 87 83 88 88 87 78 72 85 81 91 90 86 81 77 77 80 83 87 94 92 90 93 95 98 97 96 86 81 83 86 91 87 85
63 66 66 70 72 76 79 82 86 80 91 92 89 87 93 72 80 84 82 83 89 90 82 82 70 81 84 88 91 87 89 94 96 98 97 97 95 89 95 95 96 96 94
56 64 65 66 74 75 79 82 90 85 94 96 91 86 93 89 83 84 84 81 83 83 82 89 80 81 90 86 90 91 91 91 86 88 88 93 94 94 93 93 94 96 97
55 63 63 69 70 77 79 83 88 88 94 94 87 90 92 91 86 86 82 84 86 80 87 89 90 79 86 90 92 94 93 94 95 95 96 85 95 94 95 92 93 93 95
53 57 62 66 72 77 79 85 93 94 93 88 93 93 93 92 92 90 90 90 88 86 87 90 88 85 90 98 93 91 91 93 85 94 95 95 94 93 93 94 91 96 95
46 54 60 62 70 83 83 95 97 97 97 96 95 94 90 87 91 90 88 81 81 88 92 82 88 89 97 100 95 95 96 96 92 90 91 90 86 81 83 87 72 82 96
45 71 77 80 85 94 97 98 97 96 96 96 94 88 83 80 91 89 89 76 75 88 96 96 93 93 99 99 96 96 95 90 86 88 87 86 81 82 86 85 87 90 97
71 90 94 96 95 96 96 94 94 95 95 93 92 82 91 94 96 93 91 88 89 93 95 96 99 99 100 98 97 89 85 83 92 93 93 88 87 75 70 68 74 85 87
94 96 96 96 95 97 97 98 97 96 92 87 84 97 98 98 98 97 93 94 100 96 97 99 100 100 97 94 90 87 82 90 93 93 94 93 73 62 69 66 62 59 59
97 96 91 93 94 95 96 91 92 98 96 98 98 99 99 98 99 99 100 99 98 99 96 99 97 95 91 88 91 92 92 91 93 94 92 85 84 66 66 72 67 63 62
97 96 95 94 95 99 98 100 97 99 98 97 98 98 97 99 98 98 99 99 99 99 97 97 97 96 97 96 96 95 90 86 96 94 92 79 67 68 71 66 65 60 65
97 98 98 95 93 92 90 90 93 96 94 94 98 97 97 98 100 100 100 100 100 97 96 97 97 96 96 96 96 90 87 84 86 76 73 72 70 74 66 67 66 70 75
93 97 92 92 86 90 87 86 90 90 96 98 95 91 89 96 100 95 92 91 90 86 94 94 89 88 86 88 95 94 86 88 78 77 76 73 65 62 66 66 62 67 65
94 97 90 88 84 79 88 86 82 84 84 89 94 93 94 93 92 89 88 82 79 78 86 83 81 83 77 72 71 70 76 71 68 60 55 55 56 67 63 61 61 67 63
90 91 92 91 93 96 93 81 80 81 84 90 93 92 93 92 90 88 88 87 84 83 79 77 68 64 74 78 79 80 73 67 56 54 52 65 69 64 59 58 63 68 68
90 92 92 98 98 97 98 94 96 87 88 89 93 90 89 87 85 84 83 85 83 81 82 79 66 68 77 78 78 74 68 66 64 69 67 68 61 62 54 58 62 60 58
96 93 92 95 97 92 94 83 77 81 75 79 73 77 80 80 86 88 86 88 84 82 75 76 78 78 78 77 77 70 59 57 55 60 58 57 57 58 60 63 54 54 59
90 90 88 86 90 84 76 78 65 72 73 67 75 78 84 86 82 82 86 87 84 77 67 74 72 71 71 76 77 63 54 46 51 61 60 56 57 57 62 54 56 61 56
88 85 88 89 85 82 67 59 60 73 68 70 84 76 76 81 85 85 82 78 72 66 67 69 68 59 62 61 54 45 39 46 62 62 63 63 58 59 63 62 60 62 51
87 89 88 80 81 77 74 71 69 74 68 64 68 67 70 82 82 81 86 84 76 75 72 72 61 58 46 47 51 53 60 58 60 53 51 48 52 61 65 65 64 53 50
90 90 93 90 82 85 83 69 69 64 60 70 66 68 78 79 82 83 86 86 84 81 77 73 68 54 51 41 35 33 58 60 40 52 55 56 55 54 58 64 50 51 51
89 86 90 87 86 73 72 69 60 62 60 58 60 64 66 76 77 78 82 83 83 80 79 78 68 58 57 47 38 49 70 72 55 62 51 53 56 60 66 57 48 55 53

GFSGL_sfc_rhum_012.txt.gz
RH
76 74 76 77 74 78 85 84 85 77 76 80 83 84 80 82 83 86 92 91 89 92 92 89 88 88 86 87 88 87 86 83 76 77 83 76 80 73 70 75 75 75 79
74 76 76 79 79 76 77 78 85 80 76 77 80 84 84 80 78 85 86 79 92 90 87 89 85 77 88 89 82 92 89 92 94 84 88 89 81 78 80 84 74 69 78
71 75 80 80 83 81 74 74 84 80 80 78 79 84 85 84 80 81 83 85 83 90 87 87 85 79 80 90 93 94 95 92 94 95 91 93 91 90 83 82 79 81 73
71 75 79 81 82 82 77 76 75 82 85 81 80 79 84 83 85 83 86 82 85 86 89 86 86 84 84 86 92 92 94 95 95 96 96 97 97 92 91 91 91 88 84
71 75 77 78 79 82 82 80 77 86 81 83 80 82 81 86 83 86 84 87 82 92 93 89 88 84 83 82 95 94 93 94 96 96 95 96 96 95 93 90 96 95 95
72 74 74 79 81 83 85 86 82 90 94 88 84 83 93 88 84 89 87 91 88 83 88 93 87 85 84 86 89 89 87 92 92 98 96 96 94 96 96 96 97 97 97
71 74 76 78 82 84 84 87 91 85 97 96 92 93 94 91 92 93 93 84 94 86 90 93 87 82 91 88 92 98 95 93 88 96 94 96 94 94 94 94 96 97 98
69 73 76 79 81 82 86 87 93 89 96 96 96 92 95 96 97 94 93 93 91 90 91 93 92 93 94 95 95 94 95 95 96 98 95 88 95 94 96 94 95 95 96
64 70 73 76 78 84 86 87 90 93 94 97 97 96 97 98 95 95 96 93 88 93 94 94 94 94 95 97 93 94 94 95 93 94 95 98 99 98 97 99 98 97 97
56 61 68 72 75 81 83 85 93 95 97 98 98 96 94 96 94 91 92 83 89 93 93 89 95 93 95 98 94 92 92 94 94 90 89 88 91 92 89 97 95 96 97
51 54 63 69 73 82 92 94 97 98 98 98 98 98 94 92 95 92 92 77 80 86 85 95 87 93 98 100 99 98 98 97 89 88 91 93 91 87 86 93 96 97 98
51 56 66 72 79 93 95 98 98 98 99 99 99 96 96 96 95 93 92 85 90 79 89 96 95 100 100 100 100 99 94 85 91 94 94 94 93 83 71 75 74 84 95
56 66 74 82 93 95 98 99 99 99 99 99 98 99 99 99 98 93 92 95 95 91 96 99 98 100 100 100 96 90 90 93 94 94 94 94 90 80 71 68 67 63 61
81 92 94 95 97 96 99 97 98 99 98 95 97 98 98 99 99 99 99 99 100 98 98 100 98 97 96 94 94 96 97 96 95 95 95 95 92 71 69 74 66 64 64
96 98 98 99 98 100 100 99 99 98 95 93 98 97 98 99 99 99 99 98 98 100 99 98 98 97 97 96 96 96 97 97 97 96 96 93 71 71 72 70 73 68 68
98 99 99 99 99 99 99 100 97 98 100 100 100 96 100 99 100 100 100 100 100 99 98 98 98 98 97 97 97 97 97 93 97 96 88 78 71 75 69 70 73 73 73
97 98 98 99 99 99 99 99 95 97 96 99 100 98 97 100 100 100 100 100 100 99 98 98 97 98 97 97 98 98 96 96 90 80 77 73 67 63 68 70 67 69 64
98 100 97 98 95 89 86 88 84 83 92 97 95 94 98 100 100 99 95 92 99 95 96 97 97 93 95 87 90 84 86 75 66 59 57 57 59 64 69 62 64 67 70
98 98 95 91 95 97 96 92 92 91 83 89 94 89 92 94 94 92 92 88 92 93 92 91 88 86 86 81 81 82 77 72 65 60 56 58 69 75 64 62 64 72 74
99 99 96 98 98 97 97 97 96 94 88 92 93 88 90 87 89 89 91 94 91 88 86 88 86 83 84 83 81 76 72 65 65 66 66 68 70 70 60 62 66 68 63
98 98 100 99 98 97 98 96 97 97 96 95 94 87 89 82 89 90 90 90 87 85 87 84 81 77 81 81 79 77 67 63 60 59 68 68 64 58 64 68 62 62 68
97 96 96 97 98 98 98 98 97 95 94 94 96 89 92 94 88 86 87 88 87 87 86 83 84 77 83 82 83 74 67 60 55 63 67 62 61 63 66 67 67 67 67
97 96 96 98 98 98 96 95 94 90 87 91 92 82 80 88 85 86 87 88 92 90 86 81 71 65 69 74 66 58 49 49 64 67 65 64 58 58 65 70 70 70 61
95 91 89 93 94 94 91 89 89 84 74 76 72 76 73 75 91 91 92 92 86 81 81 79 75 66 63 51 51 47 53 65 68 64 60 54 45 56 64 64 66 64 58
95 95 92 93 91 92 92 87 85 83 77 78 74 73 75 80 88 90 90 87 85 86 85 81 70 55 48 40 40 51 67 70 49 53 47 49 52 57 58 65 70 59 58
94 93 95 94 93 85 79 78 65 71 70 72 68 72 74 79 83 87 89 90 91 88 80 80 75 61 44 42 40 55 70 66 55 67 53 52 51 55 64 70 71 60 55

GFSGL_sfc_rhum_015.txt.gz
RH
64 68 70 76 78 79 82 85 85 86 85 85 87 89 89 86 87 88 91 92 93 95 94 92 89 91 90 91 91 94 91 83 79 68 86 79 79 79 71 74 75 79 83
64 68 70 72 76 82 80 82 84 85 86 85 86 88 89 85 84 86 88 84 88 92 95 94 92 84 92 93 90 92 91 94 94 87 83 84 83 75 83 85 77 72 81
65 69 72 75 78 80 80 78 87 82 85 82 85 89 90 88 83 82 82 83 85 84 88 93 92 90 91 95 95 95 96 95 96 94 84 95 91 91 80 88 86 85 77
65 70 74 76 80 77 74 77 78 85 86 82 84 84 89 89 88 88 90 90 82 88 90 83 89 88 90 89 91 94 96 97 97 97 97 96 95 87 93 94 90 93 88
66 71 74 74 77 81 80 78 78 85 84 82 84 84 87 88 90 92 91 92 91 91 91 92 91 85 85 83 94 95 96 97 98 98 98 95 90 91 93 94 95 96 96
67 70 71 76 80 84 84 84 83 86 87 88 86 85 91 88 89 91 90 95 94 94 95 97 92 89 90 87 88 90 89 95 96 99 98 94 94 95 96 96 97 97 98
69 71 73 76 83 86 86 87 88 88 92 94 88 91 94 91 91 92 94 97 96 95 90 95 91 87 92 91 93 95 95 96 94 95 96 93 92 93 94 94 97 98 98
71 72 75 79 81 85 88 89 90 88 95 96 91 90 93 94 96 95 96 96 96 94 92 92 94 93 94 92 93 93 94 94 95 99 96 85 92 94 96 95 96 97 97
72 73 75 78 81 85 89 90 88 89 95 97 96 95 94 95 99 97 96 95 97 96 94 96 94 94 95 98 94 94 93 93 96 97 97 97 98 99 98 98 98 100 99
70 70 72 76 79 84 86 87 90 91 95 97 97 95 95 96 100 100 99 96 98 98 97 97 95 93 98 100 95 95 94 92 94 91 87 85 88 89 91 97 98 99 98
62 65 69 74 78 80 89 92 94 95 95 96 97 97 96 97 99 99 98 97 94 98 98 98 95 98 98 99 98 96 94 97 93 91 90 92 90 89 90 92 97 98 98
56 61 71 72 78 84 93 95 96 95 91 96 98 99 99 98 98 97 99 92 90 91 95 98 96 98 100 100 100 100 100 93 94 93 93 92 93 86 74 80 76 88 97
55 59 64 73 82 86 96 95 92 93 95 97 99 99 99 99 99 99 94 94 89 84 93 96 100 100 100 100 100 99 94 96 95 93 93 94 95 87 81 68 68 66 63
56 59 64 74 81 86 95 89 95 99 99 99 99 99 99 100 99 99 99 99 97 96 99 100 99 100 99 98 98 96 98 97 94 95 95 95 95 82 71 76 69 69 67
74 84 90 90 94 98 100 99 98 98 99 99 99 99 99 99 95 96 98 98 99 99 99 99 99 99 98 98 97 97 98 97 97 97 97 96 92 75 73 76 75 75 70
93 97 97 98 99 99 99 99 100 100 100 100 100 100 100 100 100 100 100 100 100 100 99 99 99 98 98 98 97 98 98 94 98 97 97 95 79 74 76 70 78 76 72
97 98 99 99 98 99 99 98 100 100 100 100 100 100 100 100 100 100 100 100 100 97 98 99 98 98 98 98 97 98 97 98 96 98 87 80 79 73 69 72 70 70 64
91 100 99 99 98 98 98 97 96 97 98 100 98 99 100 100 100 100 100 100 98 98 98 98 98 98 98 98 98 98 97 96 91 81 68 63 63 61 72 65 67 68 70
97 94 99 99 98 98 99 99 98 96 97 98 94 98 98 100 100 100 100 95 98 99 98 98 97 98 97 96 96 92 84 73 66 63 63 60 71 79 68 67 66 74 77
97 100 98 99 98 98 97 97 97 97 95 93 90 94 95 94 98 98 96 97 98 98 98 97 94 93 93 88 87 83 78 75 68 65 64 65 70 73 66 62 69 69 67
99 99 99 97 97 97 96 94 94 94 94 93 93 94 94 88 91 89 88 93 94 94 92 91 92 90 89 87 84 81 65 72 71 67 65 71 75 66 67 71 68 69 73
98 99 99 99 99 98 98 97 96 95 94 93 97 90 96 89 89 90 91 91 90 88 88 88 90 80 76 75 79 78 76 71 68 62 68 71 67 66 69 69 70 70 72
98 97 98 98 99 100 99 99 98 98 96 96 95 90 88 93 90 90 88 90 91 91 94 86 86 78 74 74 71 65 67 65 62 63 69 69 68 66 67 68 68 69 67
96 97 98 98 98 97 96 98 99 100 97 95 85 84 82 88 87 88 91 92 93 93 92 89 74 67 77 85 76 62 56 56 64 67 65 66 63 61 64 67 65 69 62
96 94 95 96 95 94 94 93 94 91 94 93 86 87 80 81 86 93 94 95 92 87 88 88 82 72 65 62 54 42 54 78 67 72 63 52 45 50 58 64 73 69 62
97 95 96 95 94 90 83 84 83 86 90 89 90 88 85 83 89 94 96 93 88 88 88 87 76 67 58 51 46 57 81 78 62 65 51 54 53 55 62 68 71 71 63

GFSGL_sfc_rhum_018.txt.gz
RH
77 80 78 79 80 80 81 84 85 86 89 90 91 92 92 91 89 88 88 87 88 90 90 89 90 89 81 80 80 79 79 72 70 69 69 73 73 73 69 69 66 70 66
70 79 79 79 81 81 84 83 86 87 88 87 90 92 91 89 89 88 87 82 85 88 88 91 86 78 89 87 81 88 82 89 89 83 78 75 79 76 75 77 68 60 66
64 71 76 77 80 83 83 81 87 88 89 86 88 90 91 90 89 87 86 84 84 84 86 88 87 87 88 85 93 90 87 86 91 89 74 85 78 82 75 77 79 76 65
59 65 74 75 77 79 82 82 86 87 90 88 88 89 90 89 88 88 88 88 86 87 88 86 88 87 87 89 87 93 93 96 95 94 92 92 92 83 79 76 73 73 69
65 66 71 74 76 79 84 84 85 87 87 86 88 88 89 87 85 90 90 89 89 88 90 88 89 84 86 86 86 93 94 94 92 96 95 86 79 79 80 74 75 74 77
68 69 72 76 80 82 84 85 87 90 88 89 87 86 90 83 88 92 88 92 90 90 92 93 91 93 91 88 87 88 90 93 95 97 95 89 91 89 82 85 86 91 78
70 72 76 79 83 85 85 86 88 88 90 92 88 88 91 90 94 94 92 92 93 93 93 94 93 90 92 88 92 91 91 90 91 92 92 87 92 93 92 91 94 88 84
74 75 78 81 83 84 88 88 88 86 90 93 89 90 91 92 95 95 93 91 96 94 92 91 93 92 92 91 91 91 91 93 94 93 90 81 84 86 88 85 90 92 89
75 77 78 80 83 85 89 89 87 87 90 92 93 93 93 93 97 97 96 95 96 96 94 92 92 93 94 94 92 92 90 91 96 96 96 96 98 98 95 94 92 94 86
75 75 77 80 82 84 87 88 87 88 92 90 95 93 92 92 100 98 96 92 98 96 97 95 96 92 97 96 91 91 92 93 90 90 85 80 81 81 96 88 78 76 81
70 74 78 80 83 82 86 87 91 92 91 93 95 94 93 93 98 99 98 95 92 98 96 99 91 97 99 99 98 96 93 93 91 82 74 69 69 70 68 78 85 72 77
78 79 81 82 78 78 89 92 93 92 90 96 95 96 98 97 100 100 100 98 98 93 94 97 97 100 100 100 100 100 99 91 79 75 68 65 67 62 62 64 71 76 77
79 84 83 83 81 85 92 94 91 89 90 97 98 98 98 99 99 100 100 100 99 97 92 95 100 100 100 100 100 100 97 80 76 71 67 67 70 67 72 66 67 68 66
80 84 85 85 85 86 87 86 86 94 95 94 98 99 99 99 99 99 99 100 95 96 100 99 99 100 100 98 96 95 85 78 73 69 69 70 75 71 63 59 56 54 51
92 88 89 83 89 92 94 95 92 92 93 96 98 98 99 99 99 100 100 98 93 95 98 96 97 94 92 92 90 88 85 81 79 81 76 74 73 68 61 60 58 56 52
92 96 92 90 94 96 99 100 100 100 100 100 100 100 100 100 100 100 100 100 100 100 94 94 95 92 90 90 88 88 86 83 81 78 76 75 74 69 60 57 57 55 52
96 97 92 95 99 99 99 99 99 100 100 100 100 100 100 100 100 100 100 100 100 97 94 94 92 92 90 88 86 84 81 82 84 77 75 76 69 61 60 53 54 52 49
95 100 100 99 99 99 99 99 98 98 99 100 100 100 100 100 100 100 100 100 97 96 91 93 93 90 86 82 81 79 79 81 80 79 76 68 59 52 50 54 52 51 50
96 99 99 99 98 99 98 98 96 95 96 99 100 100 99 100 100 100 100 95 96 94 91 90 85 83 80 79 80 82 81 76 72 70 61 52 50 50 55 50 48 64 62
97 99 100 99 98 98 98 98 99 99 99 99 99 99 99 98 97 97 97 97 92 87 86 83 82 80 81 82 81 78 73 64 60 54 53 52 52 53 47 46 44 46 48
97 99 99 99 99 99 100 99 98 98 98 98 99 98 100 92 97 98 96 91 86 82 82 80 82 81 81 78 73 69 60 54 56 54 52 51 52 49 53 46 44 44 46
99 99 98 98 98 98 99 97 98 98 97 98 99 99 100 94 97 95 91 82 78 79 77 82 76 71 66 67 69 62 56 55 57 55 53 48 51 51 47 45 45 45 44
96 97 99 99 98 99 97 97 97 97 96 96 95 95 96 97 95 87 92 88 78 75 75 72 70 68 65 66 61 57 55 58 56 53 50 49 49 47 46 44 43 44 43
95 94 95 98 98 98 97 97 98 99 96 95 93 92 93 89 85 89 84 78 75 72 73 70 66 61 66 62 60 56 52 53 52 49 48 47 47 53 45 42 40 44 44
95 93 93 96 97 98 97 96 98 96 98 97 96 95 95 94 85 80 74 73 72 72 71 70 66 63 63 65 62 58 64 71 55 60 50 50 49 52 38 35 37 44 46
90 94 96 95 94 89 82 86 94 98 98 97 96 97 97 93 82 78 78 80 70 69 70 70 67 63 62 61 61 68 77 80 63 74 48 44 40 37 37 38 46 47 46

GFSGL_sfc_rhum_021.txt.gz
RH
69 71 72 71 72 74 72 74 75 72 73 72 74 73 73 75 78 80 76 72 75 73 70 72 74 73 54 53 55 54 54 52 50 46 46 52 64 60 51 54 51 53 46
66 72 72 72 72 71 73 73 75 77 74 76 74 74 74 74 77 79 76 70 75 74 72 72 71 62 74 70 57 68 59 62 51 70 55 52 66 63 61 65 53 40 46
61 64 68 70 72 74 75 72 75 77 77 70 74 77 74 74 77 78 76 75 74 72 70 72 74 75 76 59 63 60 56 63 64 56 52 53 53 54 59 65 65 59 50
52 59 69 71 70 70 74 75 74 77 78 77 77 75 73 72 74 73 75 76 74 72 72 69 69 71 73 76 70 74 68 65 68 63 53 53 56 58 59 55 52 51 50
58 59 66 71 71 73 76 77 76 77 76 76 77 76 74 69 63 74 74 75 77 74 74 72 70 72 81 76 63 74 74 69 60 58 56 55 53 55 60 48 53 49 53
62 62 66 72 76 77 78 80 80 79 79 79 77 77 77 64 77 88 78 74 77 78 77 77 73 85 84 89 86 84 75 76 75 58 56 59 73 67 56 55 54 54 52
66 65 67 73 77 79 78 80 81 81 79 81 78 77 78 77 88 91 91 69 74 76 77 78 74 65 81 73 88 87 87 86 78 74 73 67 67 70 70 78 71 65 58
67 68 69 73 76 78 79 81 82 78 81 80 80 80 79 75 91 93 92 77 76 76 76 76 78 76 78 76 74 74 73 73 76 61 69 69 67 69 80 70 80 76 68
66 70 70 72 75 76 80 81 78 78 79 79 77 81 83 79 94 94 93 76 75 81 78 76 77 78 88 93 86 76 75 74 86 93 93 94 95 92 81 66 66 68 55
64 66 68 72 74 76 78 81 79 78 76 69 76 78 83 79 97 97 91 65 77 80 85 82 94 88 98 96 85 76 76 72 71 78 78 89 87 83 97 76 52 51 44
57 62 70 73 77 77 81 80 80 80 78 80 79 80 81 82 80 99 99 74 68 84 80 87 90 100 99 98 92 74 71 71 85 73 73 69 61 58 50 60 62 48 44
64 67 74 77 69 67 82 82 82 83 86 86 85 82 77 78 96 98 99 90 88 76 83 90 87 100 100 98 92 92 97 83 61 60 58 55 49 46 47 51 61 55 48
69 74 75 76 76 76 81 82 79 84 81 85 87 87 93 94 93 100 99 98 96 94 97 99 100 100 100 96 100 98 95 61 60 60 58 52 46 43 58 61 58 62 63
70 74 74 76 79 77 68 68 72 74 83 75 87 92 95 98 100 99 98 98 100 100 100 100 100 100 92 82 93 90 64 62 61 58 55 49 50 52 49 46 45 43 40
70 72 71 65 74 73 73 66 69 71 69 71 73 86 96 100 99 100 99 99 99 100 99 99 100 96 83 75 76 72 72 68 64 58 53 52 50 51 50 48 46 44 40
69 58 54 54 55 61 64 90 100 96 100 100 99 98 99 99 100 100 100 100 100 100 99 99 99 98 83 75 74 71 68 71 61 58 52 51 51 52 51 50 44 41 40
77 78 67 80 62 60 74 92 97 100 100 100 100 100 100 100 100 100 100 100 100 100 98 98 85 80 75 71 65 69 64 61 68 56 54 55 53 54 56 45 42 40 36
78 99 84 94 96 98 98 98 97 99 99 99 100 100 100 100 100 100 100 100 99 100 97 93 76 77 76 71 65 62 59 61 60 57 58 55 54 51 46 41 38 36 35
69 74 78 82 90 89 91 92 93 96 98 98 99 99 99 100 100 100 100 96 98 97 89 81 70 79 77 66 64 62 59 56 57 60 56 51 48 42 41 36 32 53 48
77 97 88 74 75 77 80 80 95 97 98 99 98 99 99 98 98 98 97 97 97 95 92 77 75 77 69 65 64 60 61 63 63 56 47 44 41 38 34 32 30 30 33
85 83 94 80 86 82 83 87 94 98 98 99 99 99 100 96 97 96 97 97 96 91 84 77 73 66 66 65 63 62 56 52 49 43 41 42 41 36 35 31 28 27 27
92 92 89 89 91 91 85 89 95 98 99 99 99 99 100 95 95 96 96 92 88 83 76 65 61 56 54 56 62 55 48 45 43 41 42 38 37 35 31 30 28 27 27
67 84 93 96 94 95 92 96 97 96 96 97 97 98 96 98 98 97 94 92 85 71 57 56 54 51 52 57 53 47 41 40 40 40 41 39 35 33 32 30 28 28 26
70 68 71 78 83 84 86 88 92 96 92 94 93 92 94 90 94 95 92 81 65 56 57 57 54 50 54 48 46 41 37 36 37 39 39 36 35 40 32 30 27 27 23
75 88 76 71 75 88 81 81 86 86 90 86 84 86 89 86 76 79 72 69 60 60 59 52 47 48 50 50 44 41 63 75 50 50 39 38 37 40 31 28 27 22 23
72 82 89 91 93 90 87 91 96 97 98 98 92 88 78 78 80 73 75 67 60 50 49 46 46 47 49 48 46 66 84 81 56 65 36 34 34 32 28 29 27 22 25

GFSGL_sfc_rhum_024.txt.gz
RH
57 61 63 60 61 66 64 66 68 62 63 64 63 62 60 62 65 71 69 60 71 70 61 59 65 57 37 36 38 36 36 36 39 32 33 41 54 54 43 44 43 44 41
52 63 63 63 63 60 67 66 68 69 65 66 64 65 62 60 64 69 70 58 66 69 66 66 63 50 64 58 41 56 48 48 40 58 45 39 58 53 56 57 46 33 36
49 51 56 58 61 63 67 66 68 70 70 59 64 69 66 62 64 66 68 66 63 66 64 65 64 61 66 48 53 45 44 47 50 42 43 41 40 42 53 59 57 54 42
36 44 55 60 61 60 66 70 67 70 71 69 67 68 65 62 61 61 65 66 64 62 64 62 62 63 65 66 57 61 53 48 53 46 41 38 42 47 46 42 46 46 44
42 42 52 61 63 64 68 70 69 70 70 70 69 67 66 57 49 64 64 64 67 66 65 64 63 66 72 68 50 64 68 58 40 44 42 39 40 41 50 40 40 39 45
46 47 53 63 68 69 71 73 74 72 72 72 70 69 68 51 63 76 69 63 67 70 69 67 65 79 78 83 79 78 69 68 67 42 40 46 58 52 47 44 42 43 44
52 54 58 65 70 72 70 74 76 76 73 76 73 70 72 68 75 80 83 58 64 67 71 68 63 54 76 67 85 85 84 84 80 66 67 58 59 61 66 72 64 57 52
58 58 62 68 69 70 73 75 77 73 74 74 74 74 73 68 83 84 83 69 65 65 66 67 69 68 68 71 71 70 69 65 69 52 60 60 69 60 69 70 71 67 58
56 61 62 63 66 69 74 76 74 73 73 72 72 76 77 73 89 88 87 66 64 69 65 66 68 71 80 88 72 75 75 78 80 83 91 90 87 86 79 51 55 52 49
53 56 60 64 67 69 72 77 74 73 71 61 67 70 77 74 90 93 86 54 62 55 69 74 88 74 91 93 77 73 78 74 72 66 72 83 88 80 95 71 49 50 44
47 48 57 63 69 70 74 74 74 73 67 73 70 70 73 75 74 96 95 66 47 52 46 55 63 92 100 97 94 82 82 69 76 60 62 60 61 59 53 60 57 44 38
50 52 60 66 58 54 76 75 75 74 78 76 77 69 60 71 88 98 97 87 73 49 52 47 68 99 100 100 99 95 98 90 55 56 57 56 54 50 45 47 56 50 41
56 60 60 63 63 65 73 76 67 76 63 67 59 61 55 52 63 93 99 96 91 66 44 62 93 100 100 99 100 100 99 77 61 65 64 61 49 42 50 56 59 63 60
64 66 64 65 68 65 55 56 57 54 61 57 54 56 54 55 54 61 80 83 92 94 100 99 99 99 100 98 99 99 91 75 83 75 62 53 45 46 46 41 41 42 39
62 60 62 56 64 61 64 51 51 56 51 53 54 50 59 57 71 93 98 98 97 99 99 99 99 98 98 97 98 98 98 96 87 79 58 49 48 48 42 40 39 38 40
54 43 39 37 38 45 48 54 97 95 100 100 99 76 51 80 99 100 100 100 100 100 100 99 99 98 97 96 97 98 95 84 66 69 57 50 48 45 42 42 41 40 38
62 64 47 59 44 44 45 45 47 70 100 100 100 100 100 99 100 100 100 100 100 100 97 99 98 98 97 98 97 87 75 63 68 52 50 48 43 43 46 42 42 40 37
70 98 58 53 53 57 63 65 65 75 70 67 89 100 100 100 100 100 100 100 99 99 96 97 96 94 85 81 70 62 57 54 52 50 48 44 42 43 45 43 38 39 36
54 53 51 49 50 55 52 52 49 52 62 71 98 100 100 100 100 100 100 97 97 94 94 94 91 83 70 67 63 60 57 51 50 50 44 42 42 41 42 38 35 49 44
67 95 78 52 53 54 53 52 50 53 65 88 97 97 95 96 98 97 98 97 95 94 94 89 74 65 60 73 71 64 60 55 53 46 42 42 42 38 36 35 31 29 31
63 71 91 74 68 68 58 54 53 54 54 63 77 97 100 98 99 99 99 100 98 96 88 70 67 67 79 79 66 58 52 46 46 43 40 41 40 36 35 31 28 26 23
67 74 79 81 69 75 78 76 69 66 69 63 58 90 100 97 98 99 99 99 96 91 80 86 81 68 71 63 61 51 44 42 44 41 39 36 36 36 32 31 28 25 22
43 51 68 76 70 84 82 86 90 92 92 96 90 98 98 96 97 97 97 92 91 86 81 80 80 68 59 52 48 41 36 37 38 37 37 36 35 34 32 30 27 25 22
48 50 55 59 63 59 60 70 74 84 89 94 96 98 98 98 98 98 97 95 93 86 82 81 58 47 48 42 40 35 32 33 33 34 36 36 34 38 31 30 27 26 22
54 57 60 63 68 74 73 76 76 74 75 86 91 94 94 94 94 96 95 93 85 76 68 64 59 48 47 46 42 38 52 67 42 45 36 36 35 37 32 28 28 25 25
41 46 58 59 66 72 79 87 92 91 91 95 94 92 81 89 90 81 82 82 84 76 68 51 45 44 46 41 39 66 83 80 50 62 35 33 34 34 32 32 30 24 22

GFSGL_sfc_rhum_027.txt.gz
RH
60 63 64 64 64 68 64 64 66 62 62 63 64 63 64 65 67 72 70 62 70 71 66 64 69 68 36 33 35 34 35 35 37 33 32 47 58 52 47 45 43 49 45
55 62 63 62 63 63 68 64 66 68 64 65 65 67 66 64 66 70 70 57 64 69 68 68 63 52 70 64 38 62 47 49 39 65 52 44 60 64 62 63 48 34 40
48 50 57 60 60 62 66 66 67 69 68 60 66 69 69 65 66 68 70 69 63 64 66 69 66 66 71 50 55 46 43 47 49 47 43 40 41 48 64 63 64 62 45
35 41 52 58 59 58 62 68 66 69 70 69 66 68 68 66 64 64 67 70 68 63 66 66 67 67 71 72 62 68 59 49 54 46 43 39 39 50 47 50 69 57 58
38 39 48 57 60 62 66 66 68 68 69 69 70 67 68 63 53 66 64 67 71 69 66 66 66 67 74 72 56 66 68 57 40 43 45 41 38 53 61 54 63 68 83
41 42 48 57 64 67 69 71 72 71 71 72 70 69 69 55 64 74 68 64 69 72 71 69 66 78 78 80 78 79 67 71 69 41 39 47 68 52 45 44 49 56 77
44 47 50 58 64 69 69 71 74 75 72 75 72 70 72 69 75 76 79 59 64 68 72 70 64 50 75 67 83 79 84 80 75 72 71 62 64 66 65 66 76 65 58
49 50 53 57 62 68 72 74 75 72 75 74 73 74 73 68 81 81 79 64 65 66 68 70 71 66 72 72 70 70 68 65 72 58 69 66 66 64 69 72 79 76 65
50 54 54 56 62 67 73 75 72 73 74 72 71 75 77 74 88 88 84 62 63 68 66 67 68 70 78 85 74 76 75 71 78 86 85 82 83 80 69 70 59 62 57
48 51 57 59 64 67 71 76 73 72 72 62 68 71 77 75 90 92 84 54 62 58 68 71 82 70 89 87 77 77 81 78 72 74 80 83 86 82 89 74 54 60 66
40 46 58 61 67 69 73 73 75 74 69 74 71 70 73 75 75 96 93 67 52 54 54 57 56 87 94 91 85 77 80 77 81 73 76 86 72 64 61 65 67 62 50
46 51 60 65 57 54 75 75 75 76 79 77 77 70 59 70 90 95 96 88 74 56 54 48 54 91 97 94 90 87 95 88 66 71 81 74 74 60 58 62 72 65 53
55 61 61 64 64 65 71 76 66 74 63 64 59 59 58 52 61 95 98 94 88 70 51 55 63 94 97 96 92 96 99 73 68 78 73 66 62 62 69 71 70 69 64
58 62 61 62 66 65 53 54 56 52 54 57 52 53 49 49 49 50 70 80 93 84 74 63 80 83 88 81 97 99 85 87 73 74 68 71 83 87 70 58 56 55 49
60 59 61 54 63 62 63 48 48 55 50 46 48 46 45 46 44 59 59 58 68 78 90 95 97 99 99 99 99 98 97 91 87 74 84 86 91 70 59 52 48 44 45
59 52 46 41 45 51 48 56 80 89 99 100 100 85 58 83 97 98 100 100 100 100 98 99 99 99 98 98 99 98 98 96 94 95 96 94 86 61 53 49 47 45 45
58 58 40 49 33 35 37 39 40 68 100 100 100 100 100 99 100 100 100 100 100 100 92 98 98 98 98 98 98 97 98 98 96 97 87 80 69 53 53 49 48 48 45
61 88 44 42 42 46 49 49 45 46 47 47 82 93 98 100 100 100 100 100 100 99 92 98 98 98 97 98 97 97 97 98 97 84 71 58 55 51 50 48 46 49 44
54 49 46 44 45 52 46 45 42 44 51 57 56 71 78 100 100 100 100 98 98 98 98 98 97 98 97 97 96 96 96 88 85 75 63 53 48 47 49 45 43 54 49
61 84 70 50 50 49 46 45 43 45 46 54 58 60 67 68 68 69 88 98 98 98 97 98 98 97 96 96 96 96 88 75 74 68 56 49 49 45 41 43 39 36 38
56 61 83 51 53 57 58 58 59 55 51 52 51 67 100 66 86 81 90 92 94 99 99 99 99 99 100 98 95 85 71 64 64 58 52 51 50 45 43 40 35 31 28
54 60 64 68 65 65 67 66 65 66 64 68 68 63 100 62 66 72 70 73 77 84 95 99 98 99 98 97 92 80 69 60 59 57 53 47 44 41 40 33 30 28 26
45 56 62 68 64 71 62 64 70 81 86 90 85 80 81 72 76 73 73 75 84 88 90 96 95 95 93 92 83 71 59 55 53 49 46 43 40 41 35 33 31 28 26
51 59 62 66 67 60 62 62 62 72 75 88 92 96 96 98 98 96 90 87 84 85 92 98 97 96 94 93 90 65 49 48 46 44 43 39 37 44 34 34 30 29 26
43 45 49 53 56 60 61 64 68 68 68 77 88 92 95 93 92 95 96 97 93 89 89 90 84 82 81 64 58 48 53 72 47 50 38 37 36 43 34 31 30 28 27
35 37 39 41 44 48 52 62 73 71 70 77 81 88 88 93 93 93 88 84 78 73 78 74 69 64 62 58 55 76 84 78 58 63 37 36 37 35 33 33 30 27 27

GFSGL_sfc_rhum_030.txt.gz
RH
71 73 73 73 73 72 70 71 73 69 75 69 76 75 76 75 77 81 80 76 80 82 79 82 83 80 72 70 67 69 71 71 71 70 71 74 72 71 67 65 75 77 75
68 73 73 73 74 73 72 69 72 75 70 74 73 74 75 74 76 79 79 70 77 80 80 80 80 68 84 83 77 75 72 72 72 78 74 79 78 76 80 80 65 45 63
62 65 68 70 72 73 75 70 71 73 75 67 72 75 75 74 76 77 78 78 73 77 78 80 78 79 83 73 78 77 73 74 79 75 78 79 79 77 81 80 82 79 63
50 58 67 69 69 69 72 75 71 73 74 73 72 75 74 73 74 73 76 78 78 73 76 78 78 76 80 83 76 79 78 73 78 80 77 75 79 79 77 76 86 83 78
46 54 61 67 68 70 72 73 74 73 72 74 74 72 73 70 64 74 74 76 79 78 74 75 76 76 78 79 70 80 77 83 76 69 76 77 75 78 74 76 81 82 87
49 49 57 65 69 72 73 75 76 76 76 75 76 75 74 64 73 80 75 72 77 80 80 76 75 82 82 82 83 78 78 78 78 67 65 67 77 74 81 77 80 86 85
51 53 56 64 68 72 72 75 76 78 77 79 77 76 77 74 81 83 82 68 73 76 79 78 73 62 81 77 84 80 83 80 73 72 72 74 81 79 77 85 82 83 83
59 58 61 64 68 71 74 76 77 76 78 78 78 79 78 74 84 86 83 71 72 74 75 77 78 75 77 78 78 77 74 77 80 66 71 73 81 80 83 85 86 85 84
54 59 60 64 66 70 74 77 76 76 78 77 77 80 81 79 90 90 87 71 69 74 73 74 76 78 80 88 79 81 79 76 77 82 80 82 87 88 83 81 85 84 83
52 55 60 61 67 68 72 77 77 77 77 72 76 77 81 80 92 94 89 68 70 66 72 76 85 76 87 92 80 81 85 80 76 74 79 88 91 87 88 81 77 78 80
50 52 62 66 67 70 75 77 78 79 77 80 78 77 78 79 80 98 96 77 69 67 64 65 66 90 92 95 86 78 80 78 82 75 78 81 82 86 94 91 82 82 80
59 59 67 70 61 59 77 80 80 81 84 84 84 80 72 77 95 97 98 96 82 74 70 60 64 87 94 96 92 82 94 90 78 79 85 84 87 90 84 89 84 82 80
64 71 70 73 71 72 78 81 77 82 79 80 77 76 76 71 70 98 100 97 95 87 70 73 92 91 94 96 94 90 98 89 91 86 82 88 86 86 86 86 79 85 82
69 74 74 76 77 74 67 69 71 72 74 76 72 72 69 67 66 66 77 89 96 91 86 79 81 80 88 86 89 94 90 92 92 97 92 91 90 89 88 79 76 78 87
67 70 73 67 76 74 73 64 69 69 66 63 67 66 66 66 83 98 96 86 80 86 84 80 82 87 84 94 89 90 93 94 97 94 94 92 92 95 94 83 69 73 73
72 64 60 58 61 64 67 70 86 94 100 100 100 97 82 94 100 100 100 100 100 100 89 84 92 93 94 90 94 96 95 95 94 96 96 95 96 96 96 95 87 67 72
71 71 55 62 56 66 65 68 71 92 100 99 100 100 100 99 100 100 100 100 100 100 82 89 91 93 95 94 94 95 97 97 95 97 97 97 96 96 97 92 70 64 64
72 82 54 53 53 57 57 58 52 59 64 66 84 92 93 100 100 100 100 100 97 100 87 92 95 96 96 97 97 96 96 98 99 98 98 98 98 98 94 75 64 63 66
62 57 53 54 59 63 58 57 51 56 63 67 68 74 79 87 100 100 100 96 98 98 98 99 97 96 96 98 97 97 96 97 98 98 97 97 97 95 92 79 62 67 66
67 80 69 58 56 58 54 53 54 59 60 67 63 67 67 74 74 77 80 90 97 99 97 97 97 97 97 95 95 98 98 97 97 97 98 98 96 88 66 60 56 60 60
59 64 72 59 62 64 64 64 65 65 65 70 67 76 100 80 72 72 73 74 78 89 95 97 99 99 98 98 98 99 99 99 99 100 99 98 89 67 56 58 53 52 51
60 63 64 66 67 71 71 72 78 80 81 82 80 86 100 84 83 80 77 75 72 75 81 94 98 98 96 97 98 98 98 99 99 99 98 92 79 66 60 54 51 49 48
58 62 63 66 67 76 70 65 73 82 88 92 92 93 94 93 93 92 89 84 79 78 86 90 93 93 93 93 93 96 96 97 97 94 90 83 71 64 58 56 50 48 46
60 60 61 63 65 60 63 65 66 75 71 81 89 94 95 96 97 97 94 92 91 88 91 92 95 91 88 94 93 92 93 93 93 90 82 72 67 64 58 56 51 49 47
43 49 50 50 53 58 58 58 62 65 65 70 75 80 89 91 93 95 96 95 92 87 83 87 91 90 95 92 94 92 97 93 72 77 63 60 59 62 56 51 52 48 47
43 43 44 46 49 49 51 55 59 65 67 70 74 79 85 88 90 91 91 91 90 89 86 79 74 68 80 78 81 84 90 88 70 76 62 60 60 54 52 53 50 48 46

GFSGL_sfc_rhum_033.txt.gz
RH
76 73 75 75 70 78 76 70 79 80 78 83 80 76 79 79 88 86 89 92 95 94 91 92 92 91 81 78 76 75 68 71 67 67 73 69 74 77 74 78 76 80 78
73 74 75 76 77 71 77 81 62 86 76 87 84 81 82 79 80 88 88 79 87 94 94 92 90 80 87 88 88 72 70 76 66 65 86 83 74 73 68 72 70 60 72
72 75 75 75 77 78 72 70 89 66 81 69 89 82 81 80 83 80 84 85 85 89 88 89 87 86 83 74 90 86 80 72 81 75 84 86 81 85 87 83 80 77 67
66 72 76 76 75 75 75 73 68 78 71 82 71 81 80 78 77 79 80 82 83 79 91 84 82 86 78 75 74 79 86 82 86 81 81 81 86 87 76 76 94 94 81
63 68 72 72 72 73 75 77 77 68 72 72 79 73 79 75 73 78 77 80 82 83 79 87 84 79 82 76 72 71 73 87 74 76 89 84 81 95 82 87 72 76 88
53 63 65 71 72 74 75 76 78 80 71 75 77 71 76 73 80 86 78 77 79 81 85 80 79 88 85 87 85 77 70 58 78 60 62 68 63 76 84 72 69 95 95
48 55 62 67 73 74 74 76 76 77 77 75 72 79 73 74 86 88 88 72 75 78 79 80 78 71 87 80 89 86 82 80 63 65 63 59 59 60 66 79 72 76 89
49 54 56 67 72 73 74 75 74 73 75 77 78 74 78 74 89 90 89 74 73 74 76 77 78 77 74 83 82 83 79 75 75 61 59 60 62 68 65 71 81 82 92
51 56 58 66 68 71 74 74 72 72 73 74 76 78 79 77 94 93 91 78 73 73 73 75 77 77 82 92 83 85 82 77 78 83 74 74 82 88 88 84 90 94 97
56 66 69 61 66 69 70 70 70 71 72 74 74 76 82 78 94 96 94 76 76 74 71 70 87 80 90 93 83 82 86 81 76 73 81 89 87 82 90 68 87 91 96
63 71 77 74 72 72 71 69 72 73 74 77 79 76 78 81 82 100 97 84 79 76 73 70 67 90 96 98 95 76 80 75 78 75 72 69 74 83 89 90 90 87 95
67 73 80 83 70 80 87 81 78 80 82 84 85 84 81 83 98 100 100 98 90 82 77 70 68 86 95 97 99 91 91 93 75 79 77 76 72 81 77 93 92 89 73
78 82 85 86 88 83 87 96 87 86 84 92 93 95 96 92 90 100 100 99 98 92 78 79 88 94 94 96 96 95 98 91 85 82 82 76 74 69 75 93 93 94 92
76 90 91 94 95 91 96 88 89 96 96 96 98 98 97 95 93 97 97 99 100 99 96 91 93 95 92 84 90 96 88 81 84 86 80 74 79 95 96 94 96 97 96
84 91 93 94 94 95 91 96 92 92 93 92 93 92 94 98 89 98 97 95 98 99 98 92 93 93 93 88 92 89 96 90 89 87 94 96 96 96 97 97 97 97 97
94 88 90 89 96 92 90 96 100 98 89 90 99 91 81 91 100 100 100 100 100 100 99 99 97 91 92 92 93 94 94 96 94 96 97 98 99 98 98 98 97 98 98
89 88 87 82 87 92 94 91 88 97 99 94 94 95 95 100 100 100 100 100 100 100 99 98 99 98 96 96 98 98 97 97 95 97 96 97 98 97 98 99 98 98 99
85 80 83 82 73 78 86 90 79 77 77 85 98 90 99 100 100 100 100 100 99 99 99 99 99 98 97 96 95 94 93 95 98 98 96 95 97 98 99 98 97 96 95
85 84 79 86 88 88 90 78 86 89 86 91 94 90 92 100 100 100 100 99 100 99 99 100 99 99 99 99 99 98 98 98 96 95 93 96 96 98 97 94 95 98 92
86 84 85 83 82 83 81 89 85 88 95 90 90 97 97 96 95 95 95 96 97 97 99 99 99 99 98 98 99 99 96 95 96 98 98 97 98 99 99 99 98 98 97
86 79 85 82 84 85 88 89 91 92 93 93 99 100 100 98 96 95 93 96 96 96 97 97 98 99 99 99 98 99 99 98 98 96 96 97 98 99 99 99 98 97 94
77 83 81 81 82 84 88 90 92 92 92 94 92 92 100 92 95 96 95 95 95 95 98 98 99 99 99 99 98 98 98 98 98 98 98 98 98 99 99 98 97 94 85
68 69 71 73 72 77 75 77 82 87 90 93 94 94 94 94 95 96 96 95 92 90 95 95 98 99 98 98 98 98 98 99 98 98 98 98 97 96 95 96 87 62 56
65 65 68 71 70 68 73 75 77 86 81 83 90 94 96 96 97 97 96 94 92 90 91 94 92 94 93 98 98 96 96 95 93 92 89 89 94 96 87 71 56 54 52
56 58 62 64 64 67 71 75 77 80 84 80 84 84 90 90 93 94 94 94 92 91 88 89 87 83 93 87 90 89 100 100 90 94 77 76 74 68 64 60 58 56 55
55 61 68 65 65 69 74 82 87 88 88 85 86 86 87 85 87 89 90 91 90 90 90 90 88 83 85 85 84 90 98 100 90 92 72 68 64 62 60 57 53 52 50

GFSGL_sfc_rhum_036.txt.gz
RH
73 73 71 70 70 87 77 72 72 85 79 77 80 82 85 86 84 89 93 96 93 93 95 95 94 93 92 85 84 84 78 76 67 63 82 74 84 82 73 77 68 69 71
73 75 76 75 73 74 87 78 73 75 86 77 88 82 83 84 84 85 89 85 96 96 95 95 89 85 95 92 84 83 81 78 69 66 71 89 77 82 75 81 67 59 70
71 73 76 78 80 76 75 81 79 74 78 90 89 86 84 82 84 86 84 85 92 92 92 92 89 92 90 90 93 82 87 77 81 70 66 91 84 89 84 82 83 75 73
72 75 76 79 80 78 75 72 80 84 74 82 90 89 86 84 80 80 83 87 86 88 90 89 87 88 85 85 87 88 88 90 90 88 83 91 92 90 85 69 80 94 73
74 76 78 76 77 80 83 77 75 76 86 72 75 84 87 83 79 82 80 82 88 88 88 91 87 84 84 80 77 78 85 84 93 85 90 90 93 96 79 79 72 64 79
72 75 74 79 79 80 82 85 80 79 75 81 81 82 84 79 84 88 81 80 81 84 87 86 84 90 90 90 87 80 74 73 75 70 66 73 57 78 91 62 71 94 81
69 70 74 76 82 82 80 83 85 86 82 76 74 80 78 78 89 90 90 76 79 81 82 82 83 77 91 87 92 88 84 82 69 62 62 59 58 56 58 85 73 73 64
59 69 71 77 79 80 82 81 82 80 86 86 79 75 81 76 90 92 91 80 77 78 80 80 80 81 80 89 88 93 86 77 75 64 54 54 53 52 58 57 60 67 83
54 56 67 71 77 79 81 82 78 80 79 80 81 82 78 77 94 94 94 85 82 80 78 79 80 81 85 93 89 91 91 87 81 83 77 69 72 74 66 64 73 84 91
50 54 57 67 71 76 77 77 77 75 77 76 76 78 85 82 94 96 95 79 82 80 77 76 89 83 93 95 88 85 90 87 84 80 80 81 82 73 83 57 54 70 68
51 51 60 59 67 68 71 73 73 77 75 77 79 77 80 86 85 99 98 87 83 82 80 77 73 93 97 99 97 82 80 73 82 86 79 78 79 74 68 74 60 58 68
75 80 75 68 62 65 71 73 74 74 80 81 82 85 82 84 99 100 100 99 92 90 84 76 74 91 96 97 98 96 97 97 87 92 93 88 90 95 91 80 86 88 66
82 82 80 83 84 87 85 83 81 81 79 84 88 94 96 98 96 100 100 100 100 98 91 91 96 99 98 96 96 94 99 96 97 97 96 86 83 92 93 85 91 92 90
92 88 92 95 96 94 86 88 84 91 93 95 98 98 98 98 98 100 100 99 100 100 100 99 100 100 100 99 98 97 92 94 96 96 97 93 93 94 97 92 96 97 98
93 95 95 97 96 98 99 99 97 95 93 95 97 97 98 99 94 98 98 94 98 100 100 99 100 99 99 98 97 97 97 98 99 98 98 97 97 98 99 97 97 97 99
95 97 97 98 98 98 99 94 92 95 100 100 98 87 86 97 99 100 100 100 100 100 100 99 99 99 99 99 99 98 98 98 99 99 98 98 97 97 97 98 98 98 98
95 84 96 98 98 99 95 84 78 86 96 98 98 96 94 99 100 100 100 100 100 100 98 98 98 99 98 98 98 98 98 98 96 97 96 95 94 95 96 94 98 98 98
86 89 86 82 96 99 93 79 77 81 86 83 96 98 99 100 100 100 100 100 98 99 99 99 99 99 99 99 99 99 99 99 98 98 98 96 96 97 96 95 93 97 98
79 77 80 92 87 95 94 84 87 85 86 93 96 99 100 100 100 100 100 97 96 97 98 99 99 98 98 98 98 99 99 99 99 98 98 99 98 98 98 97 95 98 97
88 91 87 84 87 88 92 96 94 94 98 99 99 99 99 98 99 99 99 98 98 98 98 98 98 98 99 99 99 99 99 99 99 99 99 98 98 99 98 96 96 97 98
88 88 90 90 90 95 95 95 94 95 98 97 97 97 100 94 95 97 96 96 98 98 99 99 100 99 99 99 100 100 99 98 98 98 98 99 99 99 99 98 98 98 98
88 86 88 91 91 93 94 89 89 91 92 93 93 94 99 94 96 97 97 96 95 93 94 98 97 96 97 99 99 99 99 98 97 98 98 98 98 99 98 98 98 97 97
78 78 77 81 83 84 84 87 89 91 92 93 93 94 94 94 95 96 95 94 91 89 91 94 95 95 97 96 98 99 99 98 98 99 99 99 99 98 98 98 98 98 95
73 75 77 80 80 82 86 87 86 89 85 86 90 94 95 96 96 96 94 92 91 90 92 94 94 91 91 91 93 95 94 96 97 98 95 96 97 98 94 96 89 82 77
64 66 69 73 78 82 84 84 86 87 86 83 84 82 82 84 90 93 94 92 90 89 89 91 90 89 93 89 86 82 85 94 93 99 93 92 93 93 93 88 72 66 64
65 64 68 69 74 79 84 87 89 86 85 87 92 94 94 94 82 77 84 87 89 88 89 89 89 90 92 93 91 96 97 94 85 96 83 86 86 84 78 72 66 58 57

GFSGL_sfc_rhum_039.txt.gz
RH
70 69 71 75 77 73 79 83 84 87 89 90 89 86 87 90 94 96 95 95 96 96 96 97 95 94 97 94 91 92 85 79 74 68 81 82 84 83 79 78 76 73 68
68 68 71 74 80 80 79 79 79 90 88 83 89 88 86 88 91 93 94 90 95 95 94 96 96 91 96 96 94 89 89 87 77 74 71 82 82 88 81 84 78 62 64
65 69 70 71 75 80 86 82 82 82 86 87 84 87 89 89 91 90 88 89 94 91 91 95 90 97 96 97 97 95 92 84 87 79 71 81 90 92 90 90 89 78 70
64 70 75 76 78 75 74 81 86 84 80 85 83 83 86 86 87 88 88 88 89 90 92 92 92 93 92 93 93 94 92 91 92 92 87 72 84 88 92 86 88 94 71
68 74 77 80 78 80 78 79 82 90 81 77 80 84 88 85 81 86 87 89 88 89 92 91 89 87 89 87 84 87 95 88 88 76 76 95 94 95 93 85 68 58 73
72 74 75 78 81 84 83 84 82 83 89 85 78 80 87 82 87 90 84 84 87 89 90 92 89 91 91 92 92 86 80 82 83 81 72 68 66 73 60 62 74 93 74
74 74 76 79 82 84 85 88 88 84 80 87 88 79 79 78 88 92 92 79 83 84 84 83 86 83 92 90 95 92 92 88 79 72 79 71 66 61 61 71 66 63 60
75 77 78 81 84 83 85 89 91 88 86 84 83 83 84 80 92 93 93 86 81 81 81 80 80 79 83 89 91 93 95 87 85 80 72 68 67 61 58 57 60 59 58
72 75 77 78 83 85 88 86 86 87 90 88 84 83 81 80 94 94 95 87 86 84 81 81 82 82 87 94 88 90 91 92 91 91 87 83 82 80 68 59 63 77 65
65 70 73 77 79 82 84 86 82 83 84 83 86 87 88 80 93 96 96 82 87 86 83 81 93 87 95 96 89 89 92 86 84 85 92 90 90 79 85 62 71 81 72
55 59 68 73 75 76 80 80 83 84 83 86 86 83 85 90 84 97 98 83 81 83 84 83 80 95 99 99 99 84 86 81 87 91 85 83 92 93 88 82 88 93 94
65 63 66 68 72 72 76 80 82 84 88 86 87 87 84 85 99 100 98 98 89 87 85 79 79 95 99 99 99 98 99 99 93 97 98 94 90 92 90 83 85 89 90
83 77 74 76 69 67 77 79 83 82 82 89 89 90 94 98 96 100 100 99 99 98 95 95 100 100 100 100 99 97 100 99 99 99 98 97 91 87 90 88 89 88 88
94 91 92 95 96 82 75 74 78 82 84 88 97 98 98 99 98 98 99 99 100 100 100 100 100 100 100 100 100 100 96 98 98 98 98 96 96 98 98 97 99 98 99
94 96 96 97 98 99 98 99 94 93 90 93 96 97 99 98 98 100 100 100 99 100 100 100 100 100 99 99 99 99 100 100 100 99 99 99 97 97 97 96 96 96 99
94 94 96 98 99 98 96 96 97 98 100 100 100 100 91 100 100 100 100 100 100 100 99 98 98 98 99 99 99 97 96 95 97 98 99 98 98 97 96 96 96 97 97
91 91 90 100 100 99 93 90 90 96 98 100 100 100 98 99 100 100 100 100 100 100 96 97 98 98 98 99 98 98 98 98 97 99 99 98 98 98 98 96 96 96 96
91 100 97 98 100 99 92 90 86 86 89 93 100 99 100 100 100 100 100 100 97 98 99 99 99 98 97 98 98 98 99 99 99 99 98 99 96 98 97 96 94 97 97
96 97 98 99 99 95 89 85 81 87 90 96 97 98 100 100 100 100 100 98 98 98 99 98 99 99 98 98 99 99 99 99 99 99 98 98 98 99 98 98 98 100 98
96 95 95 96 96 92 91 96 98 98 98 99 99 100 99 98 98 98 98 98 98 98 99 98 99 99 99 99 99 100 100 100 99 99 98 98 99 99 98 98 96 99 97
98 98 95 97 95 93 92 94 96 97 98 98 98 99 100 97 98 98 96 96 96 97 98 98 98 98 98 98 98 97 98 98 99 99 99 98 99 98 97 97 94 99 98
98 98 97 95 90 90 91 90 91 93 94 96 95 96 98 93 95 96 95 94 92 92 95 98 98 97 98 98 98 97 98 99 99 99 99 99 98 98 98 99 98 98 98
88 88 90 90 88 91 89 89 90 92 93 94 93 94 93 94 94 95 93 91 89 89 92 95 96 95 95 94 94 94 96 97 97 97 99 99 99 99 99 99 99 98 98
78 80 82 88 90 88 90 91 90 91 86 87 88 92 95 96 96 96 93 90 88 88 90 92 93 93 94 94 94 94 93 94 95 96 98 99 99 100 98 98 98 97 97
74 78 82 85 89 87 90 89 87 82 80 79 78 76 73 75 83 90 90 89 87 87 87 87 87 87 93 93 92 90 94 98 96 94 93 96 96 95 95 96 95 92 83
82 76 77 77 81 80 80 83 84 84 83 82 83 89 91 90 88 86 88 88 86 84 85 84 84 85 89 90 90 94 98 98 97 99 90 81 91 95 93 93 88 76 71

GFSGL_sfc_rhum_042.txt.gz
RH
71 74 74 75 77 78 81 84 85 86 86 87 88 88 89 91 92 93 93 91 91 91 91 92 92 91 84 83 80 79 78 74 72 69 68 72 76 77 72 75 71 73 68
71 74 74 77 78 78 82 85 86 86 85 86 88 88 89 89 90 92 90 86 90 90 88 92 90 84 92 91 85 89 83 83 75 82 76 69 80 79 79 81 73 61 66
70 70 73 75 79 81 81 85 87 87 86 83 85 88 89 89 91 91 89 89 89 88 86 89 87 92 92 89 89 86 83 80 80 77 72 72 72 73 79 83 81 80 69
66 70 74 75 78 80 82 85 86 86 87 86 85 86 87 87 89 89 89 89 89 87 87 87 86 88 89 90 90 91 88 86 85 80 75 73 72 75 76 72 72 76 70
67 71 73 76 79 82 85 88 89 85 82 84 85 84 85 82 78 89 89 89 90 89 88 87 86 86 90 88 82 88 92 88 84 84 82 79 75 75 74 64 74 65 72
69 72 75 79 82 84 85 86 90 91 87 86 85 85 86 75 82 89 86 86 88 89 89 89 88 91 91 94 94 89 84 90 90 82 78 79 83 78 72 70 70 69 66
72 74 78 83 86 86 86 87 88 88 90 90 87 85 87 86 90 91 92 79 85 87 88 87 85 79 91 86 94 96 95 93 88 83 87 84 84 81 80 83 80 72 69
78 79 81 85 87 88 90 90 90 87 88 91 90 89 86 83 91 93 93 86 83 84 85 85 86 84 87 89 88 88 88 88 90 82 85 82 81 80 82 79 80 80 73
80 82 82 83 86 88 91 91 90 90 89 87 86 90 91 88 94 93 94 86 86 86 82 84 84 85 91 95 89 90 88 86 91 95 92 90 91 91 86 80 82 79 76
78 79 81 83 85 87 87 89 88 88 89 85 86 86 88 87 96 96 95 81 85 83 86 87 94 89 96 97 89 87 90 86 86 89 93 98 97 90 94 91 93 99 94
73 78 82 83 85 86 88 87 87 88 88 90 90 88 89 90 87 96 98 86 82 82 83 82 80 98 100 100 99 87 89 91 92 94 91 88 92 93 94 96 96 98 99
76 79 83 84 79 79 89 89 89 90 92 92 93 90 87 89 99 99 98 98 90 83 83 80 83 99 100 100 99 99 100 100 96 98 99 96 92 87 86 88 88 92 90
78 80 82 85 84 83 88 90 88 91 89 90 89 89 90 91 90 100 100 99 99 95 84 89 100 100 100 100 100 99 100 99 99 99 99 98 92 88 94 96 95 94 96
89 88 86 82 85 83 81 80 83 86 88 87 95 97 96 98 97 94 98 98 100 100 98 99 100 100 100 100 100 100 98 99 98 98 99 97 98 97 97 91 94 90 93
94 95 94 93 93 96 96 96 90 91 88 86 90 92 97 97 92 98 99 99 99 100 100 99 100 100 100 99 98 99 99 99 99 98 98 95 91 91 90 86 89 91 95
90 89 97 97 98 96 93 94 99 99 100 100 100 98 92 100 100 100 100 100 100 100 99 98 98 98 98 99 96 92 92 92 92 93 93 93 92 92 95 94 92 92 92
92 89 88 98 97 97 95 92 94 98 99 99 99 98 98 100 100 100 100 100 100 100 95 97 98 96 94 95 94 93 92 93 94 94 93 91 90 88 94 92 87 89 89
91 100 91 96 96 96 91 86 83 84 84 88 99 98 100 100 100 100 100 99 96 98 96 98 97 93 92 94 94 94 94 95 95 94 93 90 88 92 88 86 86 93 95
91 92 94 97 94 93 87 83 81 82 84 93 95 99 99 100 100 100 100 97 98 99 98 98 97 97 98 97 97 97 98 98 98 98 94 93 91 91 93 92 93 97 98
91 98 97 88 87 86 86 93 95 95 96 98 98 99 97 96 96 97 97 98 98 98 99 99 98 98 98 99 99 99 99 99 99 97 96 96 96 95 94 94 95 92 96
91 93 96 90 90 87 88 91 91 95 97 98 98 99 100 96 97 96 93 92 90 96 97 97 98 98 98 98 98 98 98 98 98 99 98 98 98 97 90 90 90 92 95
92 92 88 89 90 91 90 89 90 92 93 94 93 95 97 90 92 91 91 90 88 90 92 96 96 96 96 96 96 96 95 95 95 96 97 98 99 98 97 94 90 94 90
87 88 87 87 88 92 88 87 88 88 89 90 89 88 89 90 91 91 90 88 88 88 89 92 93 94 93 93 93 95 96 95 94 94 97 97 97 97 98 97 90 92 88
82 83 84 84 86 87 89 91 91 94 90 92 92 94 95 95 94 93 88 85 84 83 82 85 85 88 87 87 88 88 88 92 96 96 93 93 95 94 94 96 87 88 81
78 82 86 88 91 91 91 91 93 90 86 81 77 81 77 77 80 81 79 74 72 72 72 71 71 71 77 78 78 76 89 96 90 96 83 81 84 85 84 95 95 92 80
80 80 82 85 86 84 85 88 87 82 78 74 74 71 66 64 64 64 64 63 61 62 63 62 64 66 69 68 76 90 94 94 88 99 90 76 77 73 72 78 84 85 83

GFSGL_sfc_rhum_045.txt.gz
RH
65 67 67 66 67 69 68 69 71 67 70 69 71 70 70 70 72 77 76 70 76 76 74 74 76 76 61 57 58 57 56 55 53 43 46 48 64 63 54 56 56 56 48
62 68 67 68 68 66 70 68 71 73 68 70 69 71 70 69 70 75 72 65 73 73 72 76 74 63 79 75 63 74 65 64 59 73 58 49 62 60 63 66 55 41 46
58 59 63 64 66 69 71 69 72 73 71 64 68 71 71 69 71 73 73 71 70 70 69 72 72 72 77 64 70 64 60 66 65 64 60 50 52 49 56 63 64 61 50
50 54 64 66 66 65 71 73 71 74 73 71 71 69 67 67 67 68 70 72 72 69 70 69 70 71 75 75 71 75 71 68 67 67 61 55 54 59 57 56 52 45 46
59 57 63 68 68 70 74 75 73 73 72 72 72 70 68 63 55 68 69 71 73 72 71 71 70 73 82 80 64 73 76 72 64 60 59 56 54 53 59 50 52 50 55
65 63 66 72 74 75 77 78 78 76 75 74 72 71 70 57 70 83 75 66 72 75 74 72 72 82 85 93 93 90 80 78 80 66 59 62 76 68 59 59 59 61 61
68 67 70 74 77 78 76 79 81 80 76 78 74 72 74 72 84 87 90 62 64 68 73 72 67 55 79 71 87 95 96 94 91 80 82 77 79 74 76 80 78 72 69
70 71 72 76 76 78 79 80 82 77 79 79 76 77 76 72 90 91 91 73 71 71 70 70 73 72 68 70 69 68 68 69 78 74 78 78 76 75 80 83 88 88 82
69 71 73 74 76 77 80 81 78 76 77 76 74 78 80 78 94 94 92 72 70 76 71 71 71 73 82 95 77 75 74 71 73 93 92 92 95 95 92 83 93 92 89
66 68 72 74 77 78 80 82 80 77 75 66 71 74 80 78 95 95 92 63 69 64 73 77 90 80 92 97 82 76 79 74 70 70 70 85 93 90 97 91 97 99 99
61 64 73 75 78 79 82 80 79 78 75 79 75 74 76 78 79 100 98 73 62 61 61 60 60 94 99 100 99 78 80 77 79 84 85 88 90 92 85 81 90 98 98
70 71 77 78 68 67 83 81 80 81 83 82 82 76 68 75 97 97 99 96 85 69 68 60 66 96 100 100 97 94 99 98 92 98 98 96 97 96 89 92 94 98 98
76 78 78 77 75 75 81 82 74 80 70 74 68 68 64 64 70 100 100 98 98 79 66 74 94 100 100 96 100 100 100 100 99 99 99 98 92 86 93 89 76 71 70
78 79 78 78 78 74 69 67 66 66 68 65 65 66 63 64 68 66 80 88 98 91 87 76 91 98 100 100 100 100 100 100 99 99 99 94 88 70 62 55 56 57 61
70 71 73 68 76 74 70 68 64 70 66 63 62 63 65 68 66 83 81 78 87 92 95 90 96 98 99 99 99 99 99 99 99 91 74 65 61 58 56 56 59 59 59
74 66 59 56 64 64 75 81 98 96 100 100 100 82 78 91 100 100 100 100 100 100 98 98 99 99 98 96 92 88 82 77 66 64 63 61 60 60 61 57 59 60 65
79 88 96 92 79 71 69 69 80 96 100 100 100 100 100 99 100 100 100 100 100 100 87 92 95 92 88 89 78 66 60 62 75 64 64 64 61 60 64 61 60 59 61
76 99 96 93 90 80 77 72 69 80 84 86 98 98 100 100 100 100 100 94 78 80 69 82 87 82 80 66 64 63 64 70 76 77 72 65 63 62 62 62 63 81 83
70 68 73 95 90 85 69 68 66 74 78 91 91 98 95 100 100 100 100 68 77 86 90 95 92 85 88 90 93 92 92 92 90 91 82 73 67 66 68 78 77 94 89
72 98 90 85 82 77 70 68 66 70 78 80 85 94 83 74 74 83 86 91 92 96 97 91 88 86 94 96 97 97 97 96 96 96 90 85 85 86 81 79 78 81 83
65 81 93 79 81 86 84 84 86 91 95 96 96 96 100 85 86 85 76 75 79 81 89 90 87 89 90 92 92 93 90 90 92 94 95 94 95 94 90 87 86 77 77
68 72 78 78 80 82 83 86 91 94 95 94 91 90 95 78 78 78 82 82 81 78 78 86 88 87 89 86 86 81 83 85 84 83 82 88 92 95 94 95 92 92 81
65 68 78 77 77 86 78 78 84 86 89 87 85 82 79 79 78 83 83 82 81 81 81 80 81 78 79 78 79 79 78 79 82 79 79 82 89 91 94 93 92 94 86
73 70 78 80 81 79 80 81 86 92 89 93 93 94 94 92 91 88 83 80 78 74 69 65 66 66 63 59 55 52 57 66 82 82 79 69 72 88 90 91 88 91 84
76 77 77 81 82 84 85 83 86 82 82 80 82 82 82 83 79 72 66 60 55 52 50 45 41 45 46 47 47 47 78 92 77 91 62 69 72 74 74 84 90 95 96
72 87 81 79 81 81 82 85 86 84 83 76 71 67 65 61 56 50 49 42 39 39 40 38 40 43 40 37 47 78 92 93 75 95 64 59 70 75 77 80 75 78 84

GFSGL_sfc_rhum_048.txt.gz
RH
53 56 56 54 54 59 56 58 60 57 56 60 57 55 56 58 60 66 64 56 64 65 61 60 65 65 47 40 40 41 41 40 42 33 29 33 53 57 49 45 45 46 39
52 59 57 56 56 52 60 57 60 63 59 60 59 59 56 54 58 64 63 53 61 62 62 64 62 51 67 65 47 60 50 51 44 66 52 40 52 53 54 60 48 34 33
47 48 50 52 53 55 59 58 60 63 63 55 57 61 59 55 58 60 62 60 58 58 59 61 61 63 68 55 56 50 45 51 54 53 52 41 39 40 49 57 58 56 42
39 42 52 53 53 52 59 63 58 64 64 62 59 59 59 55 53 55 58 60 58 56 58 58 59 61 66 68 64 67 63 60 56 50 45 40 36 43 41 44 45 39 38
43 42 49 57 57 58 62 64 62 64 63 62 61 59 58 52 42 55 54 55 60 59 57 58 58 62 75 74 55 65 69 60 48 44 42 40 39 39 47 41 45 42 46
49 47 52 63 65 65 67 69 69 67 66 65 61 60 60 46 60 74 62 51 56 60 61 60 60 74 77 88 90 90 84 73 75 57 49 50 68 59 46 46 45 48 52
54 56 58 66 69 70 68 72 72 72 67 69 64 61 65 63 75 80 81 50 50 56 61 59 52 39 67 56 85 92 93 92 93 78 78 72 73 68 70 74 70 67 70
59 62 62 67 69 71 72 73 75 69 70 69 67 68 68 62 82 85 86 61 59 59 58 58 62 61 57 56 55 56 57 59 71 69 72 70 69 68 76 78 83 81 72
60 64 64 65 68 69 72 74 70 68 68 67 65 70 72 70 88 90 88 61 59 66 60 60 61 63 73 87 64 66 65 60 56 80 83 84 89 93 88 70 82 82 85
58 61 64 66 69 70 72 75 72 68 65 55 60 64 71 68 90 94 88 54 56 50 63 69 81 73 83 93 72 67 70 63 58 60 67 88 93 80 97 86 78 98 98
52 54 62 66 71 70 75 73 73 70 64 70 64 64 67 69 70 96 99 66 48 45 44 41 42 85 92 94 99 70 72 72 73 71 74 63 61 68 75 85 91 97 97
57 58 66 69 57 56 76 74 73 72 76 74 73 64 54 63 90 96 98 94 76 53 49 38 50 90 96 98 91 90 96 93 67 67 85 91 91 90 87 90 93 92 88
61 66 67 67 65 64 73 75 65 72 59 63 57 55 49 47 56 95 100 98 98 74 53 62 97 100 100 92 100 100 99 80 96 100 99 99 97 98 90 75 75 78 68
66 68 66 67 68 62 58 58 56 54 56 49 50 49 45 45 46 48 66 75 94 83 82 66 72 91 99 94 86 92 93 99 99 99 99 99 95 74 64 53 45 44 45
65 63 64 59 66 63 59 60 51 53 53 47 44 44 45 46 46 62 64 55 58 71 71 65 67 70 78 84 90 95 99 99 98 100 99 82 59 53 47 43 45 46 47
64 57 50 48 54 56 64 62 98 96 99 100 100 74 57 87 100 100 100 100 100 100 86 87 91 95 96 96 95 93 86 85 77 73 59 53 50 47 47 47 47 50 51
91 71 49 51 56 70 90 87 77 81 100 100 100 100 100 99 100 100 100 100 100 100 89 93 94 92 88 85 81 76 72 66 68 53 51 50 50 49 53 48 49 49 51
71 99 80 53 63 68 94 98 96 94 86 70 94 95 99 100 100 100 100 98 87 85 76 81 83 79 78 73 68 62 57 59 64 66 63 53 50 51 51 53 57 63 59
66 55 50 61 64 79 91 87 89 83 87 92 87 96 97 100 100 100 100 69 60 58 59 63 62 65 69 78 76 77 77 74 69 71 69 62 66 67 63 66 68 91 81
72 97 93 88 93 82 74 74 75 75 78 83 82 81 82 84 77 71 66 69 72 73 67 66 65 72 78 73 71 71 70 75 79 84 84 78 73 70 73 72 71 78 82
57 69 92 90 94 92 82 78 84 79 79 87 87 81 94 67 64 61 60 63 63 67 70 64 66 65 64 66 66 66 67 64 65 65 62 62 64 68 70 75 76 76 78
66 63 72 78 86 97 97 93 85 82 87 82 82 76 92 58 60 62 68 64 64 66 68 67 61 58 58 60 61 57 56 57 57 57 56 57 60 65 73 82 82 82 78
67 62 62 59 69 88 86 89 94 87 84 80 70 69 58 60 69 66 76 72 70 66 69 67 66 58 54 53 50 48 47 49 54 60 61 58 55 57 67 79 88 83 82
62 68 62 62 64 65 68 76 83 90 83 78 77 71 66 64 67 72 73 73 69 65 63 62 56 50 48 42 40 38 44 54 56 51 60 55 54 60 63 70 69 79 83
69 68 71 76 68 67 72 76 78 80 80 79 78 76 74 71 72 70 68 66 59 55 45 38 36 38 38 37 35 34 72 90 72 86 51 54 57 64 61 66 66 68 67
57 66 64 75 84 74 75 80 83 81 77 71 68 66 63 58 56 53 48 41 37 37 35 35 33 34 30 29 39 73 87 88 63 89 50 42 45 46 50 56 62 59 63

GFSGL_sfc_rhum_051.txt.gz
RH
56 59 58 56 57 62 58 59 61 57 57 59 56 56 56 56 60 68 67 56 62 65 61 57 64 68 46 36 36 37 38 38 41 35 30 37 52 58 52 51 47 49 42
52 59 58 57 56 55 60 59 62 65 60 59 62 61 59 56 61 65 63 52 57 60 60 64 58 49 71 70 50 64 50 53 44 69 54 45 58 57 58 64 48 39 43
49 49 53 53 55 54 60 59 62 65 66 55 61 65 62 58 61 62 64 62 57 58 58 62 61 63 70 57 60 51 43 50 54 53 53 43 42 40 48 58 61 59 44
38 41 52 54 54 52 56 63 60 65 67 66 64 64 62 59 57 56 59 62 61 56 58 58 59 62 68 71 65 72 65 61 57 50 47 44 40 46 40 42 43 39 40
40 39 48 56 56 57 59 62 63 64 66 67 66 63 62 54 44 57 58 60 64 61 58 57 58 61 72 73 55 67 71 61 50 46 43 40 38 38 51 43 46 44 48
44 43 48 58 61 61 63 65 68 67 68 69 66 65 63 46 60 70 62 55 60 64 65 63 61 73 72 82 86 86 85 79 80 59 50 51 69 59 47 47 50 52 58
47 49 52 60 64 65 64 68 70 72 69 72 69 66 67 64 73 75 75 48 54 60 64 64 56 39 69 58 86 86 87 90 92 81 82 77 76 74 75 79 73 69 72
50 53 54 60 65 66 68 69 73 69 71 71 71 70 68 63 78 82 80 60 57 59 59 61 66 63 60 59 57 58 64 68 77 70 76 76 76 75 78 75 83 85 78
52 55 56 57 64 67 70 72 70 69 70 69 68 72 73 70 84 85 83 59 57 65 61 61 61 63 74 83 65 67 68 65 56 74 78 80 84 87 85 64 71 74 79
51 54 58 59 64 69 71 74 72 70 68 56 63 67 74 71 92 89 84 51 57 52 64 70 80 70 82 90 73 70 74 70 62 60 59 75 90 79 90 84 80 97 98
48 51 60 62 67 70 73 72 72 71 63 71 65 65 68 70 72 92 95 64 49 45 43 39 40 80 85 86 91 71 74 73 70 70 73 70 63 69 83 89 94 97 95
55 56 63 67 57 56 74 74 74 74 76 75 75 65 54 66 86 95 95 91 75 54 47 30 38 72 87 90 88 84 93 92 65 66 65 61 66 70 82 82 85 90 92
60 65 65 67 66 64 73 76 68 73 59 62 57 54 47 43 54 92 96 96 94 73 49 59 96 95 95 92 97 92 97 70 71 81 84 92 87 85 83 88 82 84 80
68 69 66 68 69 64 58 59 55 53 56 48 48 46 41 37 35 41 63 76 94 84 82 64 66 90 98 87 84 89 71 69 73 94 99 96 89 86 84 68 70 50 44
66 63 66 58 65 65 59 54 50 73 61 45 37 35 33 35 33 46 48 57 60 70 71 63 58 59 61 66 73 79 89 94 97 98 98 96 96 87 85 64 46 45 48
64 62 55 48 58 60 64 66 99 95 100 100 99 87 59 89 98 100 100 100 96 96 69 59 62 70 76 76 86 92 89 96 92 87 81 78 69 58 50 46 46 48 52
71 59 47 50 61 60 62 59 64 84 100 100 100 100 100 99 100 100 100 100 100 94 61 63 73 84 91 90 88 88 86 85 80 70 70 54 51 49 52 49 48 49 50
70 88 46 61 62 67 71 66 57 59 60 65 96 92 99 100 100 100 100 99 93 91 84 86 86 82 82 84 84 79 73 63 65 70 60 55 50 49 49 50 52 56 57
86 58 48 61 56 57 68 68 60 71 85 97 98 100 99 100 100 100 100 80 77 82 77 88 89 72 73 79 80 70 69 70 66 63 62 58 60 60 61 61 62 88 81
90 95 84 63 61 60 66 76 91 68 69 76 83 85 96 95 95 95 91 94 89 79 81 63 64 66 69 68 66 65 64 70 70 67 67 66 68 70 68 70 74 72 74
94 73 89 67 63 56 42 49 89 63 77 80 81 88 98 92 94 93 89 92 76 65 64 64 64 65 65 64 63 62 61 59 62 63 63 65 69 69 74 70 67 70 61
74 84 82 81 88 92 94 91 84 77 84 88 90 93 100 92 83 85 78 71 65 64 57 60 54 51 52 55 56 51 50 51 52 53 53 52 52 51 51 66 71 65 65
68 66 67 79 92 98 92 90 92 88 88 92 91 95 90 79 79 71 62 59 60 61 61 60 58 63 68 58 45 42 44 47 49 51 53 53 49 47 50 56 66 71 82
66 56 61 60 66 77 93 96 95 96 90 88 90 89 88 77 70 72 67 64 62 58 64 56 51 48 45 37 34 32 37 46 52 46 55 50 44 48 49 53 55 66 65
56 55 58 57 58 61 69 84 87 90 95 94 89 83 88 84 81 74 68 61 62 54 48 42 39 37 36 35 34 34 74 88 61 77 42 49 42 46 39 41 45 50 54
56 67 63 67 72 68 66 69 82 88 83 80 78 78 69 67 64 61 58 52 46 42 36 33 32 31 30 30 41 76 85 84 61 84 47 28 32 33 37 40 41 40 39

GFSGL_sfc_rhum_054.txt.gz
RH
68 68 68 68 65 66 67 64 72 68 73 71 71 72 73 73 75 80 80 76 79 81 79 78 82 78 78 75 72 70 71 74 77 72 70 67 74 71 65 69 69 71 69
66 69 68 68 67 64 64 68 68 74 69 76 74 75 73 72 75 77 77 66 75 77 77 78 76 65 83 84 80 83 80 78 81 84 80 76 73 73 78 82 69 49 61
62 61 64 64 66 67 67 64 69 70 74 65 74 76 75 72 74 75 77 75 74 75 75 78 78 79 84 80 82 78 74 74 80 82 79 78 77 73 73 79 82 74 59
52 56 64 64 63 61 67 68 68 72 73 72 72 74 73 72 70 70 73 75 74 71 74 73 75 78 82 84 80 85 80 83 81 82 77 72 72 73 78 77 77 76 72
50 54 60 65 64 66 67 70 67 69 71 73 74 73 73 68 58 70 71 73 76 75 73 73 72 74 79 82 73 84 85 83 78 76 75 78 77 80 80 76 79 78 70
51 53 59 66 69 69 69 71 73 71 73 74 75 74 74 59 68 75 72 67 74 76 76 75 75 80 77 80 84 85 86 87 88 87 83 82 86 82 82 75 76 78 82
54 55 60 67 70 71 70 71 74 75 73 77 76 75 76 73 74 76 78 62 68 73 78 76 70 52 76 72 84 83 85 86 88 83 86 85 85 83 86 88 88 87 87
56 59 60 65 68 71 72 73 73 72 75 76 77 78 77 73 81 81 78 68 69 72 72 73 76 75 74 76 74 77 81 79 83 78 84 82 83 84 86 84 90 90 88
56 58 60 60 67 70 73 73 71 72 75 74 74 78 80 78 87 83 84 71 66 72 69 71 75 77 80 80 75 77 78 78 73 93 91 91 92 90 90 87 77 79 90
52 56 60 60 66 70 72 74 72 73 72 67 70 74 79 78 91 88 84 63 69 66 74 76 83 73 82 89 84 81 82 78 76 75 75 81 93 87 90 88 84 96 97
49 51 59 63 65 70 75 74 74 74 72 76 73 72 75 78 78 92 90 71 63 64 63 63 64 86 88 89 92 76 78 78 81 82 77 76 85 83 91 94 95 98 96
58 58 65 66 57 59 76 77 76 77 80 79 80 74 68 74 90 97 93 88 79 66 64 58 61 79 87 87 87 85 92 96 79 78 78 78 78 89 87 88 93 93 92
65 66 66 68 67 67 75 79 76 80 76 76 71 72 66 64 70 94 96 93 88 79 66 76 94 92 87 95 93 89 97 85 82 83 82 82 88 90 89 90 88 93 95
68 71 68 71 72 69 66 69 73 73 74 70 69 67 66 62 60 65 82 86 94 88 85 79 82 90 99 96 87 90 84 82 83 85 91 93 93 91 91 95 93 89 82
69 67 68 64 73 73 67 70 70 68 68 68 62 60 62 62 56 61 74 74 75 83 82 78 77 75 75 76 80 84 89 88 92 95 98 98 95 93 94 90 88 82 78
66 64 61 60 65 70 69 77 99 96 100 99 98 74 80 95 98 95 80 92 93 99 82 79 79 76 73 72 77 96 98 100 99 98 95 93 93 90 86 82 79 77 79
71 67 59 64 61 70 70 75 83 97 100 100 100 100 100 99 100 100 100 99 98 100 83 80 76 76 83 92 92 95 94 91 94 95 92 88 86 79 77 77 78 79 78
88 85 62 59 61 65 69 69 71 78 80 84 98 99 100 100 100 100 100 100 98 99 94 92 91 91 87 90 90 88 89 88 92 87 83 79 75 77 77 78 77 81 82
96 97 86 73 78 66 66 66 69 70 88 98 98 100 100 100 100 100 100 92 90 97 98 98 97 95 97 94 94 90 86 84 86 84 81 78 80 77 81 77 80 90 91
98 99 99 97 95 87 78 86 87 90 78 79 91 96 99 99 99 98 98 97 98 99 99 97 98 97 97 95 93 94 86 84 82 79 82 82 83 82 82 82 83 86 87
98 98 100 96 93 92 92 93 93 84 88 90 91 88 100 88 96 96 98 93 94 98 99 98 97 94 90 86 89 82 76 74 76 76 77 79 79 78 82 80 80 80 82
97 97 96 97 95 96 93 82 78 77 87 89 93 96 100 91 91 86 84 91 93 95 96 94 82 71 75 75 71 66 68 68 68 68 69 68 70 69 68 76 78 80 80
93 93 95 96 97 98 93 90 91 88 86 84 85 80 75 77 82 87 87 91 90 90 89 77 74 66 65 56 52 52 56 62 62 62 63 64 63 63 63 66 67 69 74
74 80 89 95 97 97 97 97 97 99 96 96 92 92 90 86 91 88 83 80 76 72 66 63 52 46 46 39 37 34 44 56 63 54 59 58 57 60 58 59 58 60 66
75 68 79 84 91 97 97 97 98 96 96 96 96 94 90 88 91 89 80 73 74 59 51 46 43 42 41 40 41 45 81 86 62 81 46 51 54 57 51 49 52 50 54
78 87 88 89 88 73 82 89 90 92 93 94 93 88 86 89 84 80 78 74 64 67 50 44 40 39 36 40 51 78 86 84 67 86 60 45 40 38 35 37 38 45 44

GFSGL_sfc_rhum_057.txt.gz
RH
67 71 66 64 76 84 74 70 80 71 86 80 75 85 86 86 88 89 86 89 89 90 86 87 86 84 86 87 91 89 80 82 79 75 80 76 76 74 72 73 71 70 80
69 66 71 67 68 70 82 75 66 80 80 86 78 77 81 84 86 87 88 78 84 90 87 87 83 78 86 86 94 87 90 89 87 84 87 77 76 73 73 74 66 61 82
67 68 69 70 67 68 62 83 71 78 72 80 80 78 79 79 84 88 87 87 85 86 84 88 86 84 92 94 90 92 90 84 93 94 92 89 87 85 82 80 84 85 74
66 70 70 68 69 62 62 60 86 65 90 84 88 79 84 78 83 83 86 88 89 86 87 85 86 88 87 90 92 92 91 92 94 96 96 94 88 78 88 87 86 87 85
63 68 70 67 64 67 63 66 56 78 63 76 85 91 81 81 72 84 86 82 84 89 86 83 85 84 87 88 87 94 94 96 97 97 97 96 94 93 92 92 95 90 87
59 65 66 67 67 67 69 73 68 63 77 69 71 79 89 70 79 83 79 87 84 83 84 88 86 85 84 87 90 90 89 96 96 98 97 98 95 95 95 96 96 98 98
49 62 64 66 70 69 69 69 77 67 64 82 78 78 79 79 84 83 83 67 74 86 80 81 82 65 84 83 87 86 85 88 86 78 90 86 87 91 91 95 96 97 96
52 57 62 67 70 72 70 70 70 72 68 67 75 79 79 76 88 85 83 70 70 71 84 83 79 76 83 83 85 83 86 77 80 80 85 77 83 83 90 82 91 96 93
55 56 62 64 68 72 71 72 67 71 73 70 72 78 81 78 92 89 83 76 69 73 76 77 78 80 87 89 88 92 93 95 88 91 92 89 90 91 90 98 98 89 92
70 57 59 61 67 69 71 67 70 65 66 72 70 73 82 78 92 92 87 68 73 70 74 85 90 87 95 91 78 72 82 78 91 87 91 95 97 93 94 93 83 98 99
54 52 63 59 63 66 68 67 66 69 67 69 73 70 76 82 78 96 93 70 66 71 67 68 72 90 90 89 91 72 81 75 94 95 96 94 90 95 97 97 95 98 99
71 67 60 62 58 65 69 70 69 69 72 72 75 76 72 74 92 97 96 92 77 67 66 65 65 86 91 90 90 88 88 97 97 97 97 96 96 97 96 95 96 98 98
78 73 74 68 60 62 70 71 72 71 72 76 76 77 74 70 73 96 98 95 91 78 64 70 92 88 88 90 92 91 95 92 89 96 97 98 95 96 96 97 96 96 97
83 83 66 72 69 57 70 68 71 73 76 73 77 76 75 71 71 73 91 96 96 91 85 92 94 96 100 98 95 97 92 89 86 86 97 98 98 98 98 99 99 98 98
91 83 69 62 73 66 66 73 71 68 72 73 72 72 72 76 70 76 83 86 86 90 89 79 93 96 96 97 98 97 98 98 98 99 99 99 99 99 99 99 99 99 96
99 80 71 60 75 70 71 99 100 97 100 99 92 75 69 90 90 92 100 100 100 99 94 90 90 88 90 89 97 98 98 99 97 99 99 99 99 99 99 97 93 82 83
98 85 69 68 67 74 75 80 96 100 100 100 100 100 98 100 100 100 99 100 100 100 93 85 91 93 91 92 85 94 99 99 98 99 99 99 99 97 94 83 76 89 96
98 100 88 71 69 76 78 81 85 99 99 100 100 100 100 100 100 100 100 100 100 99 97 98 97 99 98 99 99 99 99 99 99 98 97 94 90 84 89 86 93 95 94
98 99 98 95 92 85 82 86 90 95 95 98 100 100 100 100 100 100 100 97 97 99 100 99 99 99 99 99 99 99 98 98 96 93 92 94 90 94 95 96 95 96 95
98 100 100 97 96 97 94 92 93 94 97 99 99 99 100 100 100 100 99 99 99 99 98 98 98 98 98 99 99 99 98 97 96 95 94 91 93 93 90 90 94 94 95
99 99 100 99 99 98 99 99 98 96 98 99 100 100 100 99 99 99 99 98 99 98 97 97 98 97 97 95 97 98 93 93 92 90 92 91 93 91 91 92 87 87 88
99 99 99 99 99 99 99 98 98 98 98 99 99 100 100 99 96 96 98 99 99 99 99 99 99 99 98 98 97 98 97 93 91 86 84 83 83 83 88 94 91 91 93
96 97 98 98 98 99 99 99 99 98 98 99 97 95 90 90 91 95 95 96 95 95 95 90 83 81 86 88 88 88 87 87 84 74 75 75 73 77 77 87 87 88 91
93 94 97 98 98 98 98 98 99 100 97 98 97 96 92 90 92 91 84 79 76 66 64 70 72 71 80 71 63 60 76 75 59 54 59 67 75 77 75 76 79 82 90
84 87 87 96 97 98 98 98 98 98 98 98 98 97 94 91 94 92 86 77 75 77 68 60 58 65 64 54 55 61 82 87 64 78 60 59 60 45 45 46 48 58 64
79 86 88 87 84 90 97 98 99 98 98 98 96 94 93 91 90 89 75 68 67 69 57 57 52 60 64 72 64 83 85 84 76 87 66 59 53 49 47 46 43 48 50

GFSGL_sfc_rhum_060.txt.gz
RH
72 67 64 64 76 92 78 76 79 79 79 80 82 80 83 90 90 96 93 89 93 91 90 90 91 90 91 93 94 95 93 87 84 78 85 83 80 76 75 77 77 72 79
70 70 69 65 68 79 87 71 74 81 89 88 86 80 80 85 88 92 94 86 94 92 90 93 91 84 92 93 94 91 92 93 92 91 89 84 80 79 82 83 74 69 83
64 68 71 67 66 66 71 91 76 70 85 93 87 84 82 83 88 91 89 91 91 89 89 92 90 89 93 94 94 94 94 90 95 96 97 96 95 89 85 85 82 84 80
61 67 70 72 66 62 63 69 93 74 66 86 89 83 80 80 81 84 89 93 92 90 89 91 90 92 91 91 93 95 95 96 96 97 97 97 97 92 94 95 93 94 90
65 67 67 69 71 67 61 65 70 87 70 72 82 85 81 78 73 78 82 89 94 94 92 90 91 89 90 89 87 94 95 96 97 98 98 98 98 97 96 96 97 94 94
67 68 69 68 72 74 71 64 69 66 79 76 91 82 83 74 79 88 83 84 91 93 91 94 91 89 91 91 92 91 87 95 96 98 98 98 96 97 97 96 97 98 98
67 68 70 74 74 74 74 72 68 67 59 74 71 88 87 80 86 88 88 77 88 90 88 84 89 74 90 89 92 92 93 95 90 92 95 95 94 91 93 95 96 98 97
90 70 70 74 76 75 73 75 72 71 65 59 74 70 76 82 90 90 88 77 78 82 86 87 87 83 89 87 90 93 92 88 87 85 87 75 78 83 94 83 94 97 96
88 88 74 71 76 76 76 74 73 75 75 64 67 82 78 74 92 92 92 82 77 77 78 80 82 83 89 92 87 94 94 94 91 92 89 90 90 92 93 98 97 99 98
87 78 79 72 70 73 74 72 71 68 71 72 67 65 80 80 92 95 94 77 81 78 75 78 92 83 96 97 90 88 92 84 88 89 93 96 98 96 98 97 94 99 99
88 84 83 70 65 68 70 71 70 71 68 73 74 70 72 79 76 96 97 81 75 76 74 72 75 96 96 97 96 84 82 76 93 96 97 98 98 97 98 99 98 98 99
76 83 77 68 65 61 67 71 70 71 73 71 76 78 72 73 93 96 98 97 83 74 73 70 66 88 95 97 96 93 91 93 96 94 98 98 98 98 94 97 98 98 98
96 90 82 81 63 59 65 69 72 70 74 76 72 74 77 73 74 97 99 98 96 83 70 73 84 90 93 95 92 91 95 97 90 97 90 90 96 90 94 97 96 97 98
97 96 95 91 86 86 60 90 69 70 72 72 75 75 74 75 76 74 93 98 98 97 87 82 83 89 91 84 91 94 93 95 91 88 88 91 98 99 99 99 99 99 99
91 96 97 96 94 92 83 83 74 79 74 68 68 70 74 77 74 82 86 89 91 94 98 96 98 98 97 98 99 98 98 99 98 98 98 98 99 99 99 99 100 99 99
96 94 95 92 90 85 89 97 100 96 98 95 96 76 69 84 94 100 100 100 100 100 100 96 93 95 93 89 97 98 99 99 98 98 99 99 99 99 99 99 99 97 89
97 95 94 98 76 75 74 81 92 100 100 100 100 100 99 93 100 100 100 100 100 100 93 95 95 94 92 97 98 95 96 98 96 98 98 99 99 99 100 99 94 93 96
97 99 96 94 89 72 74 75 83 90 96 99 100 100 100 100 100 100 100 100 100 100 98 98 98 98 99 99 99 99 100 100 100 100 99 99 98 93 94 96 96 96 96
98 98 98 99 98 85 84 84 85 96 95 97 100 100 100 100 100 100 100 92 96 98 98 98 98 99 99 99 99 99 99 99 99 99 99 99 98 97 97 95 93 96 96
97 97 99 99 98 98 99 98 99 98 98 99 99 99 100 100 100 99 99 98 96 96 98 99 99 99 99 99 99 98 98 98 95 95 98 99 99 98 94 91 92 93 96
98 98 98 99 99 99 98 96 98 98 99 99 100 100 100 99 100 100 100 100 100 99 99 99 99 99 99 99 99 99 98 99 98 97 98 98 97 97 97 96 96 96 95
98 98 99 100 100 100 100 99 99 99 99 99 99 100 100 99 99 99 99 99 99 99 99 99 99 99 100 100 99 99 98 98 97 96 94 92 94 93 93 96 91 92 94
98 98 99 99 99 100 99 99 99 98 99 99 99 99 99 99 99 99 99 98 97 97 96 95 93 88 89 91 93 94 91 90 85 88 88 84 84 85 85 91 87 88 91
96 96 96 98 99 98 99 99 99 100 99 99 99 99 99 98 98 95 91 84 79 78 79 80 74 74 82 83 84 85 76 72 73 63 74 67 64 71 74 73 71 84 92
94 96 96 98 98 98 98 98 98 98 99 98 99 98 98 97 95 89 79 74 72 70 64 56 56 63 61 57 56 60 84 87 79 81 62 55 43 43 46 47 46 50 60
95 95 97 97 98 98 99 98 98 98 98 98 99 98 97 98 95 92 91 86 72 64 64 63 67 72 70 73 72 82 84 83 76 80 54 52 51 53 52 49 49 52 48

GFSGL_sfc_rhum_063.txt.gz
RH
68 67 66 74 92 92 85 81 85 90 86 86 92 91 92 92 94 96 95 92 95 94 92 94 93 92 95 95 96 96 95 88 87 84 87 88 83 79 80 84 83 82 82
66 66 66 66 74 89 90 84 81 81 84 92 87 92 89 90 94 95 95 90 93 94 93 93 93 86 93 95 96 92 94 95 94 93 93 93 88 88 89 87 81 74 87
66 67 66 65 67 69 80 93 84 82 82 90 93 95 91 86 93 92 93 95 94 93 92 93 91 93 95 95 95 96 96 94 96 97 97 97 96 94 92 91 89 88 79
66 70 70 69 65 64 64 78 90 80 80 84 96 94 92 87 85 88 91 95 95 93 92 92 91 94 93 91 93 95 96 96 96 98 98 98 98 95 96 97 93 94 87
63 68 71 70 67 64 64 66 81 90 76 77 81 95 91 88 83 91 92 94 95 95 95 93 92 91 92 92 89 94 95 97 98 98 98 98 98 97 96 97 98 96 96
68 67 77 70 73 71 69 67 67 79 84 85 80 76 92 80 84 88 84 86 92 92 92 95 94 91 93 94 94 93 90 95 96 98 98 97 96 97 97 97 97 98 98
68 76 77 79 75 78 74 71 68 68 69 76 80 79 78 84 88 88 88 73 81 89 90 89 92 80 93 91 94 95 96 96 94 92 96 96 96 95 94 95 96 98 98
86 72 70 73 77 79 80 78 71 67 69 68 68 75 83 78 89 90 89 81 77 82 88 91 91 88 95 94 95 95 95 94 94 92 96 87 90 85 94 91 94 97 98
89 90 73 73 78 77 81 80 77 71 71 70 64 65 72 75 95 93 92 82 80 81 83 89 91 92 95 96 92 95 94 92 92 95 92 92 92 92 95 98 99 100 98
88 82 83 83 76 81 77 77 74 76 73 73 71 64 70 69 86 97 96 80 84 82 80 87 93 86 95 98 95 92 95 88 94 94 95 98 99 97 98 97 97 99 99
91 90 89 80 89 83 90 92 84 80 83 79 80 73 68 77 76 94 97 81 74 74 80 76 78 95 98 99 100 85 88 78 87 96 97 98 98 97 98 99 96 98 99
93 91 88 86 89 90 89 81 90 92 90 79 79 80 76 70 88 96 97 96 83 75 74 74 74 91 97 98 99 99 96 97 98 98 99 98 98 98 95 98 96 98 97
98 97 94 92 79 90 89 76 77 77 77 79 77 78 78 75 74 97 97 98 97 86 74 77 90 93 94 96 97 98 99 99 95 98 88 87 87 88 95 96 97 98 98
96 96 96 95 95 96 90 89 70 74 77 76 77 77 74 76 78 76 96 98 99 98 90 86 87 91 91 85 92 96 93 94 91 89 89 88 97 99 99 98 99 99 99
96 92 95 96 97 98 96 92 80 66 74 72 71 76 89 75 76 83 83 90 92 95 98 98 95 99 94 95 96 94 98 98 98 98 98 98 98 99 99 99 99 99 100
97 89 88 95 97 96 98 97 100 96 99 98 96 84 76 90 94 100 100 100 100 100 100 95 94 89 93 92 93 95 97 97 96 98 98 98 98 99 99 100 99 100 100
99 96 89 91 90 97 97 96 92 99 100 100 100 100 100 99 100 100 100 100 100 100 97 92 91 90 93 97 93 93 96 97 95 97 98 99 100 100 100 100 99 96 96
98 98 95 91 89 95 97 97 89 87 87 92 100 100 100 100 100 100 100 100 100 100 98 96 98 98 98 98 98 98 98 98 99 98 98 99 99 99 99 99 99 97 96
98 98 98 98 98 98 97 96 87 93 88 93 100 100 100 100 100 100 100 96 97 98 99 99 98 98 98 98 98 98 98 98 99 99 99 99 99 98 97 96 97 99 94
98 95 97 98 98 98 96 97 97 96 96 97 99 98 100 99 99 99 100 99 98 98 98 98 98 98 98 98 99 99 99 100 99 100 99 99 98 98 98 96 94 95 96
97 97 95 98 98 97 95 96 97 98 98 98 99 100 100 99 98 97 99 99 98 98 98 98 100 100 100 99 99 99 99 99 99 99 98 99 99 99 98 98 98 97 98
98 96 98 98 98 98 98 98 98 98 98 99 100 100 100 99 99 99 99 100 99 100 100 99 100 99 100 100 99 99 99 99 99 99 99 98 98 97 98 98 98 97 97
97 97 98 98 99 100 99 98 99 99 99 99 99 99 99 99 99 99 99 99 99 99 99 99 99 99 98 98 98 98 98 97 96 94 92 93 96 97 98 98 95 93 92
96 97 98 99 99 99 99 99 99 100 99 99 99 99 99 99 98 98 98 97 95 93 94 93 93 93 93 92 90 88 84 81 80 77 83 85 90 92 96 93 90 88 91
96 96 97 98 98 98 98 98 98 98 99 99 99 98 97 95 94 93 91 88 78 88 78 74 71 73 70 66 63 62 82 85 68 78 69 62 58 53 53 49 55 62 62
94 94 96 97 98 98 98 98 98 98 98 98 99 98 96 95 94 93 92 90 87 86 86 85 80 82 78 78 81 88 89 87 76 76 50 52 59 61 55 56 52 52 52

GFSGL_sfc_rhum_066.txt.gz
RH
74 76 78 82 83 84 80 84 87 90 89 88 91 91 91 92 91 92 91 89 90 90 88 89 89 88 84 83 85 86 83 77 78 76 75 76 79 80 77 76 74 73 70
72 76 76 80 84 83 82 83 85 86 89 91 90 91 90 90 92 90 90 86 88 88 88 89 87 79 88 90 85 89 86 86 81 88 84 80 82 80 82 84 74 65 72
71 67 74 77 82 85 86 85 84 83 85 84 88 90 90 88 90 89 89 88 88 87 86 87 86 86 89 87 88 86 85 84 88 89 88 87 83 79 81 82 82 81 68
69 70 73 75 75 74 81 89 84 84 83 83 85 86 88 89 88 87 87 88 88 86 87 87 86 86 88 87 85 89 86 89 90 91 90 88 87 83 85 86 79 77 75
71 72 72 73 74 76 78 83 86 85 80 80 82 85 88 86 80 88 88 87 88 87 87 86 86 86 92 90 82 88 91 90 90 91 92 90 89 88 87 85 87 78 79
74 70 76 77 79 79 80 80 85 87 85 85 82 80 84 76 89 92 89 86 88 89 89 89 87 91 91 94 95 94 90 92 94 92 91 92 92 91 88 85 86 88 89
77 77 81 81 82 82 80 81 82 84 86 88 83 82 83 82 89 92 92 82 86 87 88 87 84 73 91 84 93 96 96 96 96 88 91 89 91 86 87 90 91 90 87
90 80 81 88 84 83 84 84 82 77 80 84 84 84 82 79 88 91 91 85 84 85 85 85 85 84 86 85 84 85 85 85 87 81 88 85 86 85 88 83 88 92 91
90 90 83 80 84 87 86 86 82 79 79 78 78 84 85 81 90 91 92 82 82 84 84 85 85 85 92 97 86 88 88 86 88 97 94 94 94 95 91 87 87 95 90
92 89 88 88 83 84 88 88 90 84 78 73 75 78 80 80 90 93 92 73 78 77 83 88 96 86 97 100 91 88 90 84 81 81 86 93 97 92 98 89 81 96 96
93 91 91 87 90 86 89 92 92 92 90 84 82 80 79 78 78 92 97 81 72 72 73 74 80 98 98 100 99 86 87 82 86 84 82 81 82 84 90 92 89 94 96
92 94 92 92 86 86 92 90 93 95 95 92 88 84 79 78 85 91 94 96 84 74 72 70 75 94 99 100 98 98 100 97 84 86 89 83 85 86 78 80 92 92 88
95 94 94 92 90 93 92 95 96 93 87 88 85 84 82 80 77 93 95 95 96 83 70 74 87 96 96 96 98 97 99 89 85 89 84 81 78 75 82 87 90 91 93
97 96 95 95 94 93 92 86 83 81 88 85 85 83 80 79 80 78 82 90 96 92 85 82 85 90 94 88 89 90 84 84 83 83 81 79 87 92 91 90 85 90 96
92 92 95 94 94 92 92 92 86 78 74 79 78 78 80 81 77 92 90 82 82 88 92 94 86 91 88 86 89 86 87 88 90 88 93 92 92 94 95 87 93 96 96
92 87 90 93 96 94 95 92 100 100 100 99 99 87 76 89 99 100 100 100 100 100 99 89 92 89 86 82 83 86 92 94 85 89 93 93 94 92 94 96 93 91 95
93 90 88 92 89 96 96 94 91 96 100 100 100 100 100 94 100 100 100 100 100 100 90 89 90 88 88 85 82 81 90 91 89 87 92 93 93 92 98 96 93 91 93
94 97 90 89 89 91 93 94 91 90 88 90 100 100 100 100 100 100 100 100 99 100 97 97 97 96 96 96 95 95 95 96 98 96 95 93 94 96 97 97 97 97 96
93 94 92 93 94 97 96 92 89 92 90 92 98 100 100 100 100 100 100 93 94 96 98 98 96 96 97 96 96 96 96 97 97 98 97 96 96 96 96 96 98 100 99
95 96 94 93 94 96 96 95 95 95 93 96 97 96 100 99 99 99 99 98 95 94 95 96 96 97 97 97 97 98 98 99 98 98 98 99 100 99 98 96 87 84 89
95 93 91 92 94 93 94 96 93 95 93 95 93 96 100 98 97 97 97 98 96 94 96 96 98 98 98 98 98 98 98 98 99 100 99 99 99 99 98 96 93 87 87
96 97 94 93 94 94 94 95 95 96 94 93 93 98 100 99 98 97 97 97 96 96 97 97 99 98 99 99 99 99 99 99 99 98 98 98 98 96 94 94 93 93 94
95 94 92 94 94 93 93 92 96 94 95 92 95 100 99 99 100 100 99 99 99 99 99 99 99 99 99 99 98 97 98 98 96 97 95 95 97 95 92 90 92 91 88
96 96 97 98 99 97 94 96 96 100 97 95 99 99 99 99 99 98 98 98 97 96 96 96 95 92 92 92 92 90 89 90 92 96 93 94 94 96 93 93 91 86 83
94 95 96 98 97 98 98 98 99 99 99 100 99 99 98 98 97 96 96 96 96 95 93 93 93 90 90 88 83 77 88 88 71 80 72 76 79 82 79 80 80 81 78
93 93 95 97 98 98 98 98 98 99 99 99 98 98 98 98 97 96 95 94 93 91 89 91 90 89 88 88 88 92 91 87 78 82 82 83 84 77 68 63 62 67 64

GFSGL_sfc_rhum_069.txt.gz
RH
62 65 64 63 64 67 66 68 70 67 70 71 71 69 70 72 74 78 74 69 72 71 70 71 72 74 55 54 57 58 58 58 55 47 55 55 68 64 59 59 53 53 44
62 69 65 65 65 63 67 65 68 71 68 71 72 72 71 70 72 75 75 65 71 71 69 72 69 60 76 73 60 73 64 66 60 71 62 55 66 68 68 70 55 42 52
66 67 67 63 63 65 66 64 66 69 69 63 70 74 73 70 73 73 72 72 70 67 66 70 68 70 75 62 69 64 59 64 66 64 61 56 59 57 62 60 64 65 46
54 64 69 72 70 62 67 68 66 70 69 68 68 69 70 69 69 68 70 71 70 67 68 67 67 68 72 74 69 74 68 67 65 66 58 57 56 61 63 58 54 48 54
56 55 59 65 70 74 74 70 69 68 68 68 68 66 65 61 55 69 70 70 71 70 68 68 66 69 82 78 60 68 73 70 60 59 58 55 54 54 59 55 58 55 58
74 63 63 67 70 71 73 76 74 72 71 71 68 68 66 51 67 84 73 66 70 72 71 70 68 83 85 92 94 92 82 76 78 63 56 60 72 67 57 58 59 61 57
86 74 68 69 73 75 71 73 75 75 72 75 71 69 71 68 80 89 92 57 64 70 73 69 63 50 78 65 89 94 95 95 93 77 76 71 72 69 72 76 72 69 64
87 78 69 70 71 73 74 75 77 72 74 74 72 74 73 66 84 91 94 68 65 65 67 70 71 66 66 68 65 64 65 66 75 68 73 71 69 70 74 71 78 80 68
85 81 75 67 71 72 74 77 74 72 72 72 70 74 76 74 88 90 91 65 61 70 67 67 68 69 80 92 70 68 69 66 72 92 92 90 91 94 88 64 63 59 53
81 79 78 80 78 77 75 77 74 74 72 63 66 69 76 74 89 90 88 54 59 55 67 73 89 73 88 96 79 70 73 67 60 58 64 85 94 83 97 82 61 61 54
64 80 80 75 80 75 79 80 78 76 74 75 72 70 72 73 74 93 93 67 54 54 51 48 49 93 96 99 97 71 74 66 65 65 59 55 56 59 59 69 70 62 56
77 79 72 83 72 67 79 77 85 84 87 83 82 74 64 71 89 91 93 94 76 61 60 50 55 87 99 100 96 91 97 93 60 53 50 53 53 51 50 54 69 72 62
76 78 76 75 75 74 79 81 80 97 87 92 77 72 67 60 65 93 93 93 93 71 58 64 78 91 98 94 99 95 99 70 63 59 55 52 50 48 61 66 70 76 78
75 78 76 73 77 75 69 68 69 63 84 91 83 77 67 63 62 62 67 71 91 83 75 67 71 78 83 71 74 84 72 64 62 59 54 50 51 54 59 59 58 56 60
74 73 81 71 78 75 75 71 71 82 70 59 61 64 64 64 60 74 73 63 62 69 71 65 63 66 67 64 64 64 63 65 68 64 60 58 59 59 59 58 59 60 62
74 74 78 74 76 79 69 75 92 99 100 100 99 84 59 84 95 100 100 100 100 100 76 66 72 72 76 76 75 67 64 69 63 61 60 59 59 59 60 59 60 62 61
84 83 81 85 80 80 73 69 64 64 100 100 100 100 100 96 100 100 100 100 100 100 72 70 70 73 77 75 70 66 61 56 72 65 62 61 62 62 66 63 62 64 64
91 95 87 83 81 76 79 70 69 67 58 54 85 97 99 100 100 100 100 100 94 99 76 76 80 82 77 79 73 72 76 67 69 72 68 65 65 65 64 68 68 66 69
86 79 78 84 85 79 88 81 71 65 65 62 58 80 98 100 100 100 100 83 76 71 89 86 84 83 88 86 83 83 84 91 90 80 82 73 72 81 81 72 72 97 91
81 85 84 75 77 87 81 91 88 78 66 64 72 64 76 97 98 98 98 97 81 71 69 72 75 80 90 93 95 93 89 96 96 94 93 93 91 93 92 90 91 97 98
79 83 84 87 89 85 82 84 84 84 74 67 60 64 100 98 98 98 98 98 91 73 81 81 80 80 84 90 94 96 94 94 96 96 95 95 96 97 95 96 96 95 93
90 92 91 88 87 90 91 91 88 88 76 69 62 60 100 98 95 93 96 97 94 92 87 83 88 88 91 94 94 94 96 96 96 97 98 98 98 97 96 94 87 84 87
87 89 90 91 90 91 92 92 89 83 78 73 72 85 89 98 98 97 100 100 100 100 99 99 99 100 99 99 98 99 98 97 96 96 97 97 96 93 86 79 70 68 66
92 90 91 93 94 91 89 94 92 96 88 76 73 76 89 98 100 99 99 99 99 98 98 98 97 96 95 94 93 92 91 93 94 95 92 90 80 81 65 64 62 66 64
92 93 94 96 94 97 96 96 96 95 96 95 87 95 98 98 98 98 98 98 97 97 95 96 95 91 89 84 87 84 96 99 83 98 82 81 82 84 81 83 89 85 85
93 92 94 96 97 97 98 98 98 98 97 98 98 98 98 98 98 97 97 96 96 95 94 94 92 91 91 92 93 97 98 98 92 98 82 79 81 86 88 88 87 90 87

GFSGL_sfc_rhum_072.txt.gz
RH
51 54 55 53 54 59 57 59 59 55 55 58 60 63 59 57 60 67 60 53 62 60 55 56 61 59 42 37 39 39 40 40 41 34 36 40 60 56 52 50 42 40 31
47 55 55 56 54 51 58 56 58 60 55 59 66 62 63 56 60 64 60 51 57 58 58 58 57 45 64 61 44 57 48 48 46 60 51 43 52 56 55 59 43 32 39
51 50 56 56 56 54 54 56 57 59 59 52 56 66 64 62 61 62 60 57 57 57 56 58 58 57 62 48 54 45 42 47 48 48 47 40 41 44 50 52 50 49 32
39 46 54 60 56 51 54 57 56 59 60 58 57 58 59 53 56 60 62 58 57 54 56 56 55 57 62 63 58 62 58 54 52 48 44 40 39 44 45 41 37 34 37
62 48 50 57 57 57 57 59 58 59 59 59 57 56 56 52 42 55 57 61 60 59 57 58 56 57 72 70 51 62 65 56 46 42 42 40 39 38 49 38 40 36 44
75 65 64 56 58 61 64 65 62 61 62 61 59 56 56 42 61 77 66 54 57 60 60 60 59 74 74 88 89 87 79 68 70 53 44 48 64 56 44 41 42 42 45
75 79 68 69 66 64 62 65 68 68 63 67 62 59 60 58 72 81 82 49 49 55 59 57 52 40 68 56 89 93 93 93 91 71 69 64 66 61 64 67 66 57 53
74 80 80 67 64 69 74 71 68 65 66 66 65 67 65 58 77 82 85 58 56 55 54 56 60 57 53 56 56 54 58 58 70 60 65 63 62 61 66 64 69 71 57
71 76 81 80 75 73 68 75 77 73 67 64 62 66 70 68 84 84 84 56 52 61 56 57 58 60 70 84 59 58 58 54 60 82 82 83 89 89 83 53 47 42 38
69 62 67 76 82 80 76 84 86 87 77 62 59 61 68 66 86 88 83 48 52 44 57 64 78 66 80 89 70 64 65 57 48 46 57 75 88 76 96 80 54 47 38
63 64 71 67 75 82 83 83 91 89 86 80 74 65 63 65 68 93 92 60 46 43 41 36 35 80 87 91 92 66 66 55 53 49 44 40 40 44 48 62 65 54 41
65 74 73 72 67 57 76 82 78 88 92 86 88 69 57 62 87 90 94 93 71 50 47 36 43 76 88 92 89 83 89 89 41 33 31 31 30 31 31 37 60 63 52
60 62 74 65 56 65 69 70 80 74 73 95 96 65 57 54 52 92 95 94 94 70 50 54 75 88 90 89 97 88 97 62 50 38 35 33 30 27 42 48 55 67 69
62 62 57 65 60 57 49 43 53 68 49 50 62 89 80 56 55 46 58 68 92 78 76 62 64 75 90 72 66 78 66 55 50 44 38 33 32 30 31 34 40 40 44
56 53 54 46 52 54 53 45 45 61 66 51 62 59 64 60 53 64 63 46 50 63 66 57 54 54 56 55 53 52 52 55 57 50 45 42 38 34 33 34 36 40 42
56 48 44 42 41 40 43 46 62 86 87 90 96 93 66 79 98 98 99 100 100 100 64 59 55 53 52 50 50 47 48 54 48 49 48 46 43 39 37 36 38 41 43
66 64 52 64 52 48 48 49 48 44 83 91 100 100 100 99 100 100 100 100 100 98 75 66 58 52 50 49 48 50 48 43 56 46 45 46 44 43 43 41 40 42 46
71 78 64 58 68 67 59 54 53 50 45 39 69 88 94 100 100 100 100 100 98 97 79 77 69 55 52 57 53 51 50 49 48 48 49 50 48 46 45 45 44 49 47
69 66 62 59 56 63 59 59 56 56 52 48 42 53 81 100 100 100 100 90 76 76 75 69 76 71 70 68 68 64 62 56 55 52 51 52 51 50 51 48 44 66 60
72 74 74 61 63 71 67 59 54 57 53 51 48 43 41 57 58 68 95 96 80 68 64 64 65 64 72 75 71 71 76 80 78 74 73 67 79 74 59 55 52 52 53
73 69 72 68 59 63 66 62 55 56 70 56 48 47 72 53 51 68 83 90 79 66 68 66 66 71 71 75 81 79 78 74 85 83 84 85 87 94 92 89 88 86 84
83 79 75 75 72 76 78 76 73 66 64 66 50 48 76 49 49 49 49 71 83 89 86 67 66 61 64 73 79 87 85 83 85 87 90 90 92 94 94 93 90 93 90
83 80 79 77 78 80 79 79 76 73 68 61 57 51 51 52 54 53 58 65 96 98 98 99 98 93 97 97 98 97 94 90 88 92 95 94 96 97 97 98 96 93 86
90 86 85 85 90 89 89 88 83 86 71 59 54 52 48 51 47 66 91 96 97 97 98 98 97 95 97 97 97 96 96 97 97 98 96 97 97 98 94 95 94 90 81
89 88 86 88 90 92 91 88 86 87 87 84 76 69 55 84 90 96 95 95 97 97 96 97 96 92 90 88 89 88 97 100 96 100 98 98 98 96 95 93 88 84 76
96 93 93 94 93 94 96 96 94 92 92 88 84 82 85 94 97 96 96 96 96 96 96 94 91 90 89 90 90 97 100 100 95 100 86 90 94 95 92 90 86 90 91

GFSGL_sfc_rhum_075.txt.gz
RH
49 51 53 53 54 58 55 55 57 52 53 52 61 55 55 54 56 64 69 54 58 62 60 52 62 67 43 33 32 34 36 37 40 34 33 43 54 57 51 53 47 47 46
44 52 50 51 52 51 57 55 58 61 54 55 56 58 57 55 57 61 58 47 54 57 56 62 54 45 68 66 44 63 51 57 46 69 55 41 55 53 60 64 44 32 36
40 40 46 47 50 52 53 55 58 60 60 49 55 61 58 56 59 61 60 58 53 53 53 56 57 59 67 53 57 47 41 47 50 48 48 39 38 38 48 56 57 52 36
75 39 47 51 51 54 54 57 54 61 62 60 58 58 58 54 54 57 63 66 58 53 54 53 54 57 64 67 60 68 59 57 53 45 43 41 38 45 40 42 39 32 34
78 73 74 50 57 62 57 59 57 59 60 60 61 58 56 49 41 56 56 58 67 59 55 54 54 56 69 71 50 67 68 59 46 43 41 38 37 38 50 43 43 38 46
73 75 71 62 75 66 62 62 63 62 64 64 62 60 59 41 57 73 62 53 60 62 66 61 59 72 69 82 83 82 84 76 76 57 48 50 71 56 43 42 44 44 46
75 71 76 78 70 75 75 76 71 68 64 69 65 62 64 61 69 79 77 47 53 59 65 62 53 37 67 56 83 86 87 90 91 78 77 71 72 69 70 74 68 62 57
68 65 74 77 77 77 80 80 80 79 77 70 66 68 68 61 74 78 81 60 57 59 59 61 65 62 59 61 59 58 64 65 70 60 70 70 70 69 72 66 74 76 62
54 62 76 69 78 79 83 84 79 74 69 70 67 69 71 70 84 81 81 54 53 62 59 59 59 62 72 79 62 64 64 61 59 79 78 78 79 79 79 56 53 46 42
63 58 64 67 73 81 77 78 88 86 67 57 63 64 71 68 86 88 82 50 54 48 60 65 75 67 78 84 69 66 69 64 58 50 59 75 87 75 92 80 59 58 48
50 51 56 59 64 70 70 66 78 87 89 77 69 73 75 72 69 92 90 65 53 46 44 42 42 74 82 87 91 67 70 66 66 58 49 42 41 46 51 61 69 61 53
55 56 58 59 53 47 69 70 66 70 81 83 88 85 82 80 85 88 93 93 75 58 53 37 42 72 80 82 82 73 86 91 54 48 41 35 32 33 30 34 61 67 54
57 59 58 58 55 58 61 66 54 63 62 66 79 81 78 87 66 85 93 93 93 74 56 56 83 90 85 87 94 86 91 61 55 54 51 44 34 29 41 46 51 75 75
60 60 54 52 52 51 44 54 46 34 39 42 63 91 92 89 83 61 66 91 99 86 78 65 66 74 95 81 69 74 64 55 54 54 53 48 39 33 31 32 33 32 35
55 51 50 44 45 46 46 38 38 51 42 43 41 50 64 93 65 98 100 97 92 95 81 60 58 58 59 56 54 53 53 56 60 58 54 49 42 38 36 33 33 33 38
55 47 43 41 39 36 37 36 60 64 68 71 78 75 48 65 87 93 100 100 100 100 98 64 57 54 53 50 51 52 51 58 51 53 54 52 48 45 42 40 37 36 39
64 59 51 53 45 42 41 42 41 40 72 71 81 87 87 80 85 97 100 100 100 100 94 68 62 54 52 49 46 44 44 44 56 49 49 50 49 48 50 46 44 42 42
63 72 56 58 52 48 44 43 43 43 41 38 53 77 78 90 95 100 100 99 78 83 79 70 60 60 57 52 48 46 49 52 45 47 48 48 47 47 47 47 46 48 46
60 57 62 66 62 57 53 50 42 43 43 42 39 47 52 86 98 100 100 79 58 55 58 63 64 62 59 57 57 62 65 62 66 61 65 64 58 58 51 47 46 67 58
64 70 68 61 67 71 63 55 48 45 43 41 40 39 36 46 44 60 72 69 65 59 51 55 62 67 69 64 63 63 64 74 77 75 68 86 84 82 85 82 81 78 58
71 70 72 72 70 71 65 63 56 48 44 42 36 39 66 48 43 44 46 86 78 68 60 56 82 81 67 85 76 70 79 68 71 80 79 70 74 76 70 70 80 84 82
73 72 67 73 74 74 73 66 66 62 55 51 43 39 72 51 46 45 47 45 48 66 78 76 86 88 87 86 85 84 82 73 72 76 81 86 89 81 79 86 90 93 90
77 78 79 78 77 80 80 75 73 71 67 62 56 48 43 40 43 44 44 41 48 91 93 94 91 96 99 96 97 93 79 75 83 85 75 78 88 93 94 94 94 96 96
70 74 83 85 88 89 88 85 79 78 74 64 58 54 50 47 41 46 45 41 68 90 96 98 97 95 95 95 95 96 94 94 95 96 97 97 97 98 97 97 97 96 97
84 86 90 92 90 88 86 85 81 82 86 84 76 69 55 48 41 38 50 72 83 87 92 94 95 92 90 89 87 87 96 100 95 99 97 98 98 99 99 99 98 97 96
93 87 85 92 94 93 93 93 91 91 91 90 83 79 84 84 68 65 80 80 85 88 91 91 89 89 88 88 89 97 100 100 93 100 88 93 96 97 96 96 94 96 95

GFSGL_sfc_rhum_078.txt.gz
RH
63 66 68 68 68 72 71 70 70 66 88 90 81 83 80 73 73 79 80 77 74 78 78 77 78 76 70 74 74 71 68 71 77 72 69 74 71 77 67 70 72 71 74
59 68 66 67 67 68 71 69 72 76 72 86 85 90 79 75 80 80 77 70 77 77 76 76 74 59 78 80 76 80 76 76 79 83 78 75 72 72 77 78 68 45 62
78 55 59 62 69 66 74 70 72 74 75 66 70 76 76 74 77 78 79 76 73 72 74 78 76 75 80 77 84 80 74 72 78 80 79 76 74 69 72 75 77 78 57
90 93 73 60 60 60 74 76 74 76 75 73 73 76 75 74 71 74 78 79 79 72 73 72 74 76 81 83 77 84 75 82 78 80 77 74 72 70 76 75 76 72 68
89 89 96 96 70 66 73 76 75 75 71 74 74 73 74 67 54 70 73 77 84 79 76 73 70 72 76 80 69 83 83 81 78 76 74 73 73 79 80 76 76 78 75
82 85 86 93 92 83 79 78 77 74 77 77 74 73 71 54 60 74 71 69 76 79 78 78 74 76 78 80 81 81 84 88 90 85 78 80 84 85 81 84 84 81 80
84 75 81 86 90 93 84 79 79 82 81 80 76 73 74 72 74 78 80 62 68 77 78 78 68 47 76 70 81 81 82 88 88 84 86 86 86 84 86 89 86 88 85
68 70 75 74 77 88 88 92 92 88 86 88 81 78 77 71 80 79 83 74 70 70 72 78 75 72 73 75 74 77 75 74 80 76 82 77 77 76 84 80 85 86 81
60 66 70 72 71 75 89 90 92 93 92 89 85 81 80 78 87 86 83 70 67 72 69 70 71 76 80 80 76 77 79 77 75 85 83 80 82 81 81 85 81 80 74
59 62 65 67 72 76 82 84 84 84 89 92 87 83 81 79 89 90 87 71 68 63 69 72 79 74 79 89 79 75 79 73 72 71 80 82 89 85 90 84 74 79 76
57 59 64 66 71 72 75 76 89 93 88 88 88 90 84 84 82 94 92 78 68 66 63 60 57 79 84 85 90 76 75 71 72 75 68 64 63 70 74 77 76 73 73
66 66 68 69 60 54 73 75 76 77 81 81 87 86 77 79 92 92 96 97 81 72 70 62 62 79 84 82 80 76 84 87 67 65 65 64 62 60 53 52 72 75 68
68 70 68 68 66 67 70 71 66 67 68 65 62 61 64 68 73 95 94 97 96 94 67 72 80 88 86 89 87 85 92 69 65 66 65 65 63 58 61 59 61 80 83
70 70 65 64 62 61 54 52 50 52 49 47 47 53 62 86 89 94 93 97 99 97 92 77 79 85 88 86 87 84 77 68 67 66 65 62 62 63 61 55 50 46 48
64 62 60 52 55 56 55 50 48 51 48 48 48 54 55 61 88 99 100 96 95 98 100 85 78 76 76 75 69 66 74 75 74 68 67 68 67 66 64 60 53 50 58
60 55 53 53 50 50 52 51 56 65 69 72 73 67 47 65 74 78 88 100 100 100 96 97 96 78 75 71 71 68 65 69 68 72 71 71 72 70 67 63 61 57 58
62 61 56 56 52 55 55 56 56 53 64 73 79 77 76 68 74 85 93 100 100 100 98 97 97 82 86 89 87 72 64 63 68 66 66 68 69 70 71 66 62 61 66
62 70 60 56 54 55 57 57 54 55 55 50 56 73 73 80 85 87 93 97 78 94 86 82 82 81 77 74 87 81 62 60 64 68 66 64 63 64 67 67 65 66 65
60 60 60 60 59 62 60 60 60 60 59 58 54 57 58 69 73 96 100 75 66 59 57 66 70 74 76 77 72 81 87 76 76 76 85 74 83 88 83 76 66 84 80
60 64 66 68 67 64 64 64 60 61 60 58 54 51 48 52 49 52 71 77 70 62 58 60 60 58 69 76 78 90 89 88 88 81 78 87 92 92 89 86 86 86 88
60 61 68 68 70 69 68 69 66 65 62 59 57 56 74 61 51 49 52 55 57 67 70 68 73 80 85 80 82 91 88 87 87 85 81 76 86 89 83 90 86 90 91
59 66 73 78 76 76 73 71 69 70 70 66 58 56 72 57 54 52 52 53 53 55 54 72 69 71 77 92 93 92 89 88 88 88 87 88 88 89 87 90 92 91 92
52 61 65 68 75 79 81 79 80 78 75 71 65 60 59 58 58 55 54 51 52 52 51 54 70 81 96 96 98 98 98 98 99 99 99 97 90 88 90 91 91 94 95
60 64 74 77 82 86 87 86 84 84 84 82 79 70 67 65 62 60 57 54 53 51 56 89 94 92 94 92 96 96 96 96 98 98 99 99 99 98 93 91 93 95 96
64 72 75 82 86 87 84 84 84 84 85 84 84 81 80 75 65 59 57 56 57 63 74 86 92 91 90 90 88 89 95 100 98 99 96 97 98 98 98 98 98 98 98
74 84 88 86 85 89 89 85 87 88 87 84 82 82 84 84 84 79 67 64 75 88 83 82 81 85 86 89 87 95 100 99 98 100 98 98 99 99 99 98 98 99 97

GFSGL_sfc_rhum_081.txt.gz
RH
84 88 89 92 86 89 89 85 92 94 94 89 82 78 88 87 85 86 87 84 84 86 84 86 83 83 78 84 84 82 81 81 79 77 76 76 70 74 75 76 74 75 75
96 95 86 88 84 89 88 84 83 91 95 93 92 87 85 85 88 89 88 75 85 84 81 86 78 71 82 88 84 81 86 83 80 78 83 75 75 69 73 85 70 61 68
95 96 96 93 90 91 89 83 84 92 93 85 80 85 90 87 89 88 86 88 85 82 82 86 82 82 86 88 84 87 85 86 88 92 88 84 82 73 71 75 80 78 66
95 96 98 97 97 96 90 88 89 88 87 88 86 89 88 84 78 86 85 84 87 83 82 85 82 78 85 84 82 87 88 87 90 90 86 82 80 70 81 84 76 76 73
95 95 97 98 96 95 94 95 90 89 85 85 83 87 85 80 72 84 84 82 88 86 86 83 81 82 83 85 78 85 90 93 95 95 94 93 90 86 90 89 86 86 77
95 94 94 96 96 97 96 97 89 90 89 91 89 85 87 71 74 80 81 85 86 85 84 86 80 80 84 87 88 84 84 92 92 96 96 96 94 93 92 91 95 94 94
88 91 94 94 93 95 96 97 98 96 90 90 90 88 92 84 84 84 83 74 85 82 84 81 80 60 78 80 85 84 85 88 82 85 93 92 93 90 92 92 93 95 97
84 84 86 90 87 90 95 97 96 98 98 95 92 91 92 89 88 85 86 76 76 85 84 85 81 74 75 84 85 84 77 74 84 82 88 73 82 68 88 81 91 94 96
68 74 77 80 73 78 89 92 94 97 96 97 97 95 94 92 92 92 93 91 80 80 80 85 87 83 83 87 87 91 92 87 81 88 84 82 81 80 79 96 97 97 87
71 70 72 74 73 74 81 85 83 96 97 95 97 96 96 95 96 96 97 96 98 83 79 82 90 83 90 93 86 79 86 78 90 83 90 86 92 88 92 85 74 88 84
72 69 72 71 77 70 71 76 88 92 93 97 94 96 93 96 95 98 97 96 84 98 79 70 67 84 90 91 91 70 70 66 77 80 75 76 81 90 84 88 82 76 78
77 77 78 75 67 60 75 74 73 79 77 76 86 91 87 82 96 97 98 100 91 97 90 72 68 84 87 87 86 82 86 86 69 66 69 72 71 75 71 71 76 77 70
81 82 80 77 74 71 74 72 66 64 75 64 56 52 59 66 78 98 100 100 99 100 98 98 100 98 93 89 90 89 91 79 74 70 67 64 62 61 61 70 64 73 77
80 78 72 76 70 70 60 62 66 66 55 60 60 57 70 60 86 96 98 98 99 98 100 98 95 94 95 89 92 94 88 81 74 70 65 59 59 66 68 66 66 62 60
76 72 70 64 65 62 59 61 58 56 58 61 56 48 47 50 57 97 96 91 89 94 97 96 98 96 92 82 79 79 77 86 82 73 69 66 66 66 66 64 66 67 71
78 72 71 68 66 64 64 63 68 72 72 73 75 75 54 66 74 76 82 89 91 100 99 96 95 94 90 88 85 89 82 81 80 75 73 70 70 70 70 69 71 73 72
83 78 73 71 69 68 67 68 69 64 72 74 77 75 75 81 81 84 82 83 100 100 99 95 94 81 81 95 94 93 88 95 91 71 78 75 72 73 78 75 75 76 78
71 70 65 70 72 70 69 70 70 70 70 66 67 72 68 75 76 80 82 99 89 99 96 87 82 80 79 82 83 86 82 83 95 93 94 88 89 91 86 79 77 77 75
78 77 72 68 69 76 74 73 71 71 70 66 64 67 68 74 73 85 100 87 70 64 72 89 83 80 78 74 87 94 94 93 87 91 94 96 96 96 93 88 87 94 86
77 66 68 74 72 74 73 69 68 73 73 72 69 65 63 66 68 69 68 71 78 75 72 71 68 67 75 82 89 92 94 94 94 95 88 93 96 97 96 94 93 92 95
79 78 65 84 85 82 79 77 74 72 72 72 70 66 78 70 65 64 65 66 64 64 72 71 83 90 93 96 97 98 98 96 95 93 93 94 96 94 93 92 93 95 96
76 77 78 81 78 78 74 77 79 78 78 78 76 70 77 71 66 65 65 65 64 62 63 67 64 61 78 91 94 97 99 99 99 99 99 97 97 96 97 98 98 97 97
75 79 79 80 79 77 80 77 77 79 79 79 78 75 73 74 69 65 67 64 64 65 64 64 71 75 94 99 99 99 100 99 99 100 99 98 99 99 99 99 99 98 96
76 80 83 81 77 81 87 82 80 82 82 78 77 76 78 76 72 71 71 70 68 69 72 71 84 99 99 98 98 99 99 99 99 99 99 99 99 99 98 97 97 94 94
66 75 90 91 88 87 85 84 79 81 81 78 75 74 71 74 76 77 79 81 80 80 75 78 96 95 95 95 94 94 98 99 98 100 98 99 99 98 99 98 98 97 95
80 89 94 97 95 89 88 86 83 82 86 79 79 84 82 83 81 79 77 77 74 76 82 73 74 90 90 93 93 97 100 100 98 100 99 99 99 98 99 98 98 99 98

GFSGL_sfc_rhum_084.txt.gz
RH
96 96 95 95 92 93 95 93 95 93 94 91 90 85 87 89 90 93 92 89 86 89 86 90 85 88 85 87 87 85 86 86 82 75 87 76 70 70 69 76 79 79 78
97 96 96 97 95 94 94 92 95 92 93 91 86 83 81 86 91 94 89 83 88 85 85 89 87 74 85 90 90 89 90 91 88 88 86 80 78 76 78 76 68 66 76
96 97 98 97 98 97 95 90 95 93 93 90 87 86 86 86 92 93 91 89 88 88 86 88 88 85 86 88 90 88 90 88 94 95 90 90 85 78 76 79 78 83 64
97 97 98 98 98 97 97 98 96 96 92 93 85 83 83 83 85 89 90 88 91 88 85 86 87 87 87 84 85 88 88 93 94 95 95 92 89 84 91 92 82 83 78
98 98 99 99 98 97 95 94 94 97 95 94 89 87 84 85 76 85 89 89 89 89 90 90 87 87 87 84 83 86 91 94 95 96 97 96 96 95 92 92 93 93 88
96 97 98 97 96 97 98 96 96 97 97 95 96 90 91 81 82 87 87 90 90 87 87 86 85 85 86 91 92 89 81 90 93 97 96 96 94 95 96 96 96 95 92
91 95 96 96 95 94 95 96 96 96 97 98 96 96 94 90 89 88 88 88 93 91 90 86 82 66 83 81 87 92 92 92 84 87 92 94 94 93 94 93 95 96 94
83 87 90 93 94 94 92 92 94 97 97 98 98 98 97 96 96 93 94 92 85 91 90 89 84 80 82 82 81 85 85 83 82 82 84 72 82 72 83 73 80 92 97
75 76 79 83 79 78 91 93 94 95 95 95 95 96 97 97 100 100 99 97 96 86 79 88 90 87 87 91 81 85 85 84 84 88 84 84 86 85 81 95 97 98 95
79 75 73 70 73 75 81 90 92 94 95 95 93 95 95 95 99 100 100 99 98 98 96 89 91 81 94 94 90 82 86 80 82 80 92 95 94 87 92 82 80 94 96
80 77 75 73 71 66 69 72 83 89 94 95 94 95 96 96 95 100 100 98 92 98 99 90 77 90 96 97 98 77 78 70 70 86 81 78 90 92 87 92 87 83 88
84 82 79 74 66 62 68 65 65 68 68 74 78 86 88 86 93 97 100 100 98 99 97 91 86 97 99 95 93 91 91 92 78 74 73 78 81 79 77 79 83 83 73
81 83 80 77 64 63 63 64 59 58 57 55 55 53 50 66 65 99 100 100 100 99 99 99 100 100 100 100 98 96 94 88 84 85 80 74 67 62 62 78 78 79 80
85 84 81 80 78 73 62 60 63 62 62 59 59 58 54 53 58 89 83 87 97 98 95 81 86 95 100 99 99 93 90 83 84 80 77 71 66 66 65 65 71 70 73
87 85 88 85 86 81 76 73 64 68 69 69 66 65 66 66 60 79 84 82 72 86 96 90 93 84 80 83 90 91 86 89 92 84 80 77 74 70 66 65 68 70 76
91 88 90 89 90 85 86 75 75 77 79 80 82 82 62 73 82 82 82 82 86 92 95 90 90 84 79 74 77 86 87 88 84 86 90 83 79 76 72 68 69 73 77
92 89 87 83 85 87 85 85 80 73 75 79 80 81 81 82 80 83 84 84 87 99 98 94 91 80 75 76 86 86 89 95 96 98 98 96 92 79 79 75 74 78 84
92 81 90 88 87 90 90 83 82 83 80 73 72 76 77 80 80 83 86 97 80 93 99 83 77 74 74 77 75 74 73 77 90 95 97 94 95 96 97 96 96 97 96
86 88 88 89 89 87 84 84 82 79 75 74 70 72 74 78 80 80 98 88 86 80 77 76 78 80 76 74 76 89 91 89 84 90 96 98 98 98 97 97 98 100 99
87 69 70 90 94 93 90 88 86 84 83 81 79 76 72 74 74 72 70 70 71 69 68 69 69 76 78 80 81 86 91 94 95 97 97 97 98 98 98 94 96 95 93
84 82 66 86 90 92 85 86 83 80 79 79 78 72 81 78 75 77 76 72 70 70 69 70 73 73 75 78 91 93 96 94 96 97 99 99 99 99 98 98 97 94 95
84 82 84 88 88 90 88 74 82 83 76 74 67 66 74 73 73 71 70 68 66 66 65 68 72 70 70 79 87 90 92 90 91 97 99 98 99 99 99 99 99 99 99
82 84 86 91 91 84 84 74 75 74 73 72 70 68 67 70 71 71 71 71 72 70 69 72 72 70 74 88 94 98 98 98 99 98 99 99 98 98 99 100 99 98 99
84 83 86 92 95 96 96 86 76 76 76 72 70 69 68 70 70 67 68 70 70 69 72 74 73 78 81 81 87 97 98 98 98 99 98 98 98 98 96 96 98 97 97
85 86 90 96 97 98 98 95 79 82 78 73 73 76 74 68 76 74 73 71 71 73 74 71 76 81 80 77 89 94 98 100 97 100 98 98 98 98 98 98 98 98 98
89 91 95 97 98 98 99 98 83 88 86 79 77 80 81 81 81 80 77 76 77 74 74 73 70 74 76 76 85 96 100 100 97 100 98 98 98 98 97 98 96 97 98

GFSGL_sfc_rhum_087.txt.gz
RH
95 95 94 95 94 95 94 93 91 94 93 92 94 93 93 93 93 94 94 92 92 91 90 91 90 89 92 82 83 88 90 90 84 78 91 82 77 75 71 73 77 78 82
98 97 96 96 95 96 96 94 96 96 95 96 92 91 90 90 92 94 94 88 92 91 89 91 88 80 87 92 93 83 91 93 91 90 90 85 80 79 77 79 76 70 74
98 98 98 98 98 97 96 95 94 96 96 96 91 91 88 84 91 93 95 93 92 91 88 91 88 91 91 88 92 91 92 88 95 96 93 95 90 83 83 86 81 79 69
99 98 98 99 99 99 97 96 96 97 96 96 95 93 87 84 80 90 92 95 93 91 91 92 90 89 92 91 89 90 91 94 95 97 97 97 95 89 95 95 88 87 82
99 98 99 99 98 98 98 97 97 96 97 98 94 91 87 81 74 85 90 94 95 93 91 91 90 90 91 90 86 89 93 95 97 98 98 98 97 96 94 95 97 96 95
97 99 99 98 96 96 98 98 96 97 98 98 99 96 94 87 85 89 88 92 94 92 91 88 87 90 89 92 94 94 90 94 95 97 97 97 94 96 96 96 97 96 90
92 94 96 97 97 96 94 92 96 98 96 97 97 97 98 97 97 96 91 90 95 96 96 94 89 73 85 84 86 90 92 94 95 88 93 92 94 91 93 93 94 96 96
79 85 89 89 93 94 95 95 94 95 94 94 95 95 98 98 100 100 98 97 94 92 93 94 94 88 87 87 86 87 86 85 88 90 89 80 86 78 88 82 85 90 96
72 75 79 81 75 76 88 91 93 94 94 95 95 95 95 95 100 100 100 99 98 96 94 91 93 93 94 95 96 92 86 81 82 92 89 89 89 88 86 96 97 98 89
81 77 70 71 77 70 75 88 88 90 91 94 94 94 94 95 100 98 100 99 99 99 97 97 96 90 91 97 97 91 90 82 79 81 89 96 96 90 92 89 80 94 92
78 75 74 73 70 67 71 72 77 82 89 92 92 94 90 90 92 100 100 99 100 99 99 98 96 96 99 99 100 91 86 81 79 87 85 83 87 97 92 94 87 84 88
79 78 79 75 66 64 69 64 65 61 61 62 59 83 86 58 71 90 87 88 96 99 98 98 98 100 100 100 100 99 98 98 89 85 82 79 77 79 78 87 91 87 79
82 84 82 78 73 72 72 70 66 66 64 62 60 61 62 81 59 86 77 78 80 93 96 95 95 97 100 97 94 96 100 99 98 97 90 84 77 71 70 72 82 87 87
86 87 86 85 85 84 77 71 75 73 71 68 68 68 66 63 60 61 58 63 69 81 84 72 79 89 98 95 97 96 98 96 91 87 84 80 76 78 77 72 72 68 88
90 88 90 89 93 90 86 85 79 80 81 76 70 72 72 69 62 76 80 70 74 73 89 88 93 85 75 73 77 89 97 99 99 97 93 89 84 81 80 76 74 72 76
92 91 93 94 94 92 93 92 82 80 81 82 84 84 68 77 82 85 86 87 88 92 95 94 85 80 80 77 78 72 74 79 84 95 98 99 95 89 86 81 78 78 80
92 93 95 90 93 95 96 97 97 88 80 81 82 83 84 84 85 85 85 88 93 97 98 95 93 81 79 79 76 76 77 84 94 96 97 96 96 95 99 93 85 83 83
90 79 94 95 96 97 98 97 97 96 92 85 78 81 83 85 85 86 86 91 75 84 89 81 83 84 83 81 78 78 74 73 74 83 94 93 95 97 97 97 98 97 97
90 93 94 95 96 91 97 97 97 95 91 85 79 79 78 82 82 85 84 88 79 76 74 73 72 71 70 74 84 86 88 90 88 88 94 96 96 97 94 95 96 100 99
87 67 76 90 93 94 95 95 95 93 90 87 85 81 76 76 78 79 78 77 78 78 74 72 73 71 72 82 82 84 88 89 91 94 94 96 97 98 97 96 98 97 96
86 84 69 88 92 95 96 96 92 87 86 84 80 73 80 71 74 77 77 76 75 72 71 69 74 74 73 76 89 87 86 87 88 92 93 92 93 98 97 98 97 94 96
87 85 87 88 92 92 95 91 92 90 84 82 78 73 78 73 68 68 65 66 68 70 70 70 75 78 78 79 81 81 84 88 91 95 96 95 97 97 97 98 98 99 99
89 86 89 92 92 88 95 96 96 93 86 82 80 75 72 71 71 71 68 67 68 66 66 69 74 71 68 78 88 90 90 89 88 90 96 98 98 98 98 98 97 97 99
90 87 89 93 96 96 97 98 97 93 85 84 82 76 74 69 71 72 69 68 69 68 67 70 70 70 73 71 76 85 89 89 95 98 98 98 98 98 98 98 97 94 96
91 92 92 95 96 97 97 98 98 96 82 81 84 79 79 79 79 77 72 72 71 72 70 66 69 68 69 72 72 77 79 89 97 97 97 98 97 96 98 98 98 97 94
91 92 94 96 97 98 98 98 98 97 88 84 78 78 78 80 79 77 77 79 82 81 81 79 79 80 80 75 75 76 82 87 87 98 98 98 98 97 97 97 96 97 95

GFSGL_sfc_rhum_090.txt.gz
RH
97 92 92 93 92 92 91 90 91 89 89 93 94 91 92 93 90 92 93 89 88 87 85 85 84 85 80 82 90 80 80 78 76 73 76 74 76 75 71 71 68 69 66
98 96 95 94 93 94 95 93 91 92 92 93 93 92 90 90 91 92 91 89 91 87 86 87 85 75 85 86 82 84 82 83 79 85 81 75 77 75 77 80 67 55 63
99 98 97 97 97 98 96 95 93 93 93 93 94 95 93 87 90 90 90 92 90 90 86 87 86 85 87 82 83 82 79 78 84 84 80 81 79 74 76 78 78 79 62
97 98 98 97 96 96 95 94 94 95 94 93 93 93 91 87 83 83 87 92 92 91 91 87 88 85 86 85 82 86 81 83 85 84 83 81 80 80 82 81 76 75 73
98 97 99 98 97 96 96 95 93 94 95 95 94 92 90 84 72 84 86 89 90 88 88 87 88 88 92 89 82 93 93 88 85 88 89 88 84 81 80 76 80 77 76
98 98 98 98 97 97 95 95 95 94 94 94 94 94 95 91 94 90 88 87 90 89 92 86 84 92 90 94 96 93 93 91 92 89 85 88 90 91 82 80 85 82 74
93 95 96 96 96 94 92 92 94 93 92 92 92 91 94 94 98 99 99 92 91 91 92 89 82 70 88 85 95 94 95 95 94 85 87 86 88 83 86 88 89 86 80
79 82 85 88 90 90 90 91 91 93 93 93 92 90 90 91 98 100 99 98 93 89 88 88 87 86 86 87 83 83 83 82 86 80 86 82 83 83 86 80 85 86 82
72 73 77 81 75 79 86 89 91 91 92 93 93 92 92 93 89 88 100 97 94 93 92 89 88 88 95 98 92 89 87 84 79 94 92 92 92 93 89 80 81 89 76
74 74 72 72 78 82 81 89 89 90 89 92 91 93 87 90 86 83 88 94 96 98 95 95 99 94 98 99 93 90 91 85 82 80 78 87 94 87 96 86 78 82 78
74 75 76 74 69 74 77 75 76 80 87 88 87 91 87 83 88 84 82 81 90 96 97 96 90 100 100 100 100 92 94 91 90 85 80 77 77 77 75 82 84 79 77
80 78 79 79 67 66 80 71 72 75 77 76 76 80 77 73 87 79 81 79 79 88 86 82 88 95 99 100 99 100 100 100 83 84 84 81 79 76 73 76 85 84 78
82 83 80 78 75 77 77 78 71 76 68 68 66 65 64 60 62 77 76 77 76 81 82 74 84 85 86 85 90 87 95 76 77 77 73 73 72 74 78 79 80 86 88
84 83 81 80 79 77 71 70 73 73 71 68 68 71 70 67 65 65 65 67 70 65 73 73 75 86 92 88 90 77 72 75 78 77 77 75 76 77 78 76 77 74 75
82 80 81 78 80 79 77 76 73 74 76 75 73 73 72 73 67 82 81 71 70 73 90 80 84 77 69 68 67 68 70 71 74 74 82 82 82 80 79 76 79 79 84
82 79 80 77 78 78 78 77 83 84 85 86 86 81 68 79 86 88 88 88 89 90 88 86 75 72 71 70 71 70 69 72 69 70 88 90 84 83 78 80 82 82 82
87 84 80 79 78 80 79 79 78 76 85 84 85 86 86 91 86 84 85 88 86 92 90 71 70 66 69 71 71 70 72 72 87 87 88 86 85 81 80 76 84 85 89
86 83 82 81 79 78 78 78 75 76 74 71 76 80 83 86 85 85 86 83 72 72 74 71 72 72 69 69 68 67 76 74 75 81 83 80 84 89 90 89 89 92 94
80 79 77 76 77 76 76 74 72 73 73 73 72 75 76 82 83 84 84 71 72 70 68 73 73 71 70 69 69 72 76 77 81 77 85 89 89 94 94 93 93 99 98
80 77 73 72 72 73 73 71 71 73 73 72 70 69 67 70 66 66 66 67 66 65 65 66 68 69 70 74 75 73 73 74 71 69 72 79 86 92 94 90 88 92 91
73 72 74 73 73 74 74 73 72 73 73 72 68 67 81 69 66 65 64 63 62 62 64 64 67 69 70 72 75 79 81 77 74 73 72 79 87 94 94 94 92 92 92
73 72 74 74 75 77 76 76 75 73 72 72 68 67 79 64 63 63 64 62 60 60 61 67 69 65 66 69 72 71 77 84 84 88 92 89 86 89 90 93 94 94 93
72 72 74 74 76 77 78 77 77 74 74 72 70 68 66 66 65 65 66 64 64 64 62 63 65 65 65 64 68 76 82 79 81 83 85 89 91 94 92 93 92 94 95
72 70 72 74 77 78 79 80 80 83 76 70 68 69 70 69 69 69 67 66 68 67 67 68 68 66 66 65 64 64 66 75 80 85 85 90 91 92 94 94 93 91 94
72 74 74 75 78 80 80 81 81 79 77 72 68 68 66 67 69 70 68 68 69 72 74 75 74 74 73 73 71 73 76 83 80 77 83 82 84 85 87 90 92 90 87
79 82 83 82 83 83 84 84 83 82 80 75 73 70 72 76 76 75 74 74 74 74 78 76 79 81 82 81 79 82 89 91 88 88 88 87 87 90 90 89 90 94 91

GFSGL_sfc_rhum_093.txt.gz
RH
94 90 76 72 70 78 72 71 75 75 76 76 78 73 74 77 73 83 82 72 74 71 69 69 68 70 52 52 56 56 53 53 51 45 50 50 62 60 52 51 45 51 42
81 94 92 79 71 81 79 75 77 75 75 76 75 74 75 68 77 76 75 65 72 73 69 71 67 55 71 69 56 71 62 64 55 66 56 48 60 62 64 66 49 38 45
97 97 98 96 82 84 82 77 78 76 80 80 81 80 78 78 79 76 75 73 69 68 68 71 67 69 72 58 64 58 51 57 59 59 56 54 56 54 60 58 61 60 40
97 97 98 97 89 83 78 79 78 80 77 78 77 78 79 76 71 69 70 73 73 70 69 71 71 68 72 74 66 71 64 65 62 64 57 56 56 59 62 58 54 48 51
96 97 98 97 90 82 81 81 78 78 77 77 78 78 78 73 71 74 70 68 70 72 65 65 67 76 84 80 60 75 76 77 57 57 56 54 54 52 57 51 59 55 56
96 97 96 94 99 96 85 84 82 80 81 79 81 86 85 77 99 99 90 70 72 73 73 76 71 88 83 94 94 93 87 80 79 60 54 58 74 66 55 57 56 57 56
95 95 94 93 92 94 90 85 80 79 75 78 75 74 79 75 95 98 98 76 77 81 79 80 75 51 76 70 89 94 95 96 94 85 76 76 76 77 78 79 70 65 63
82 82 82 86 82 80 79 82 82 81 78 74 72 73 76 62 85 98 98 75 76 77 78 79 80 79 78 78 74 71 72 72 81 67 74 71 71 69 79 72 77 78 66
76 76 75 74 72 71 76 72 71 70 73 74 76 82 77 69 81 87 86 77 80 82 80 80 83 81 97 100 83 76 74 69 67 90 92 92 93 94 88 66 62 58 54
71 72 74 72 74 76 77 73 73 71 72 65 68 73 86 74 81 79 71 51 65 72 88 88 96 84 90 99 88 87 83 75 75 72 68 76 88 79 96 82 63 62 57
65 62 65 63 71 76 71 69 69 68 66 68 68 70 73 74 72 81 80 59 54 56 58 54 53 88 91 92 99 92 85 85 73 65 61 59 59 59 55 58 69 66 61
67 64 66 67 53 60 71 68 70 71 73 69 66 55 52 65 76 78 81 80 73 59 62 59 61 82 87 88 86 90 100 93 48 46 47 46 46 45 43 45 63 66 63
64 65 65 63 61 63 64 66 52 62 56 60 52 47 49 49 52 75 77 77 74 60 58 73 85 86 85 70 77 87 94 48 47 48 46 44 42 41 55 59 60 70 77
66 66 62 61 62 58 47 48 48 48 49 50 53 58 59 52 54 54 52 54 60 51 63 49 66 85 93 82 63 50 47 49 53 51 50 48 46 46 46 46 49 48 50
61 59 59 54 56 56 56 52 49 59 60 51 52 51 52 57 67 76 72 57 61 62 74 49 45 44 46 44 45 48 51 48 48 46 48 48 47 45 46 46 50 53 59
54 50 49 47 47 47 47 50 84 83 87 88 89 73 55 81 86 86 88 89 89 90 58 47 45 44 45 46 46 46 45 53 52 54 53 52 52 51 49 48 48 55 72
54 57 50 50 44 45 45 42 42 62 81 82 84 84 86 90 86 86 87 88 85 78 50 52 53 50 50 50 47 48 49 48 64 50 52 52 52 51 52 49 49 49 49
57 75 47 43 41 43 44 44 40 41 41 43 72 72 82 85 85 85 84 74 46 50 46 48 50 50 54 57 52 50 52 51 50 49 59 52 52 56 62 60 57 61 66
53 45 44 43 42 44 42 41 39 42 43 43 42 55 63 76 78 80 77 47 47 45 44 46 48 48 48 50 53 56 60 58 56 56 53 50 50 50 52 54 54 78 74
53 55 47 45 45 43 41 39 39 41 41 43 42 44 43 50 44 45 47 48 46 44 45 47 47 49 51 55 55 54 54 53 54 51 55 55 53 53 56 62 67 73 66
44 48 52 47 44 42 43 43 42 39 39 41 40 50 81 52 45 45 45 45 46 46 47 48 50 51 50 52 54 55 52 50 51 53 54 58 63 88 84 82 83 74 72
45 46 48 49 48 52 48 46 45 44 43 41 37 43 74 44 43 45 46 47 47 48 46 50 50 48 48 52 54 51 52 54 53 53 57 59 60 63 62 75 79 72 71
40 45 48 48 48 58 55 51 48 47 46 45 44 40 40 42 45 47 50 47 49 49 49 50 52 50 50 53 54 57 57 54 53 54 58 64 77 84 87 91 90 91 77
42 42 46 47 51 48 48 50 51 67 55 47 44 44 43 42 44 49 50 50 51 51 51 51 55 58 61 60 60 60 60 60 63 68 73 73 74 71 77 82 83 86 86
43 44 46 48 50 52 51 50 48 50 50 50 47 46 45 44 44 47 51 54 56 59 57 58 59 60 62 66 65 65 71 86 82 80 75 79 84 85 78 78 77 73 78
58 47 46 47 50 52 52 51 51 52 52 52 52 52 51 50 46 49 53 60 62 62 67 64 65 67 68 67 70 80 88 90 84 89 86 89 92 91 87 86 81 83 82

GFSGL_sfc_rhum_096.txt.gz
RH
70 66 71 60 51 55 56 56 59 60 64 70 66 58 59 58 57 66 65 57 61 59 57 57 59 58 42 34 36 37 37 36 40 34 34 38 54 51 47 46 40 38 30
69 77 72 62 60 52 57 56 62 62 68 68 63 67 66 56 58 62 60 54 62 58 55 57 57 42 58 56 41 55 48 48 44 61 50 40 50 52 51 57 40 30 33
93 89 82 86 71 64 63 57 59 62 63 53 58 65 63 61 60 65 64 61 57 55 54 54 57 55 60 47 48 44 37 38 43 42 43 36 38 42 48 52 48 48 33
97 96 97 95 91 82 65 65 60 62 67 57 56 58 58 61 60 58 60 62 60 55 55 54 54 55 59 63 57 59 54 53 51 45 41 36 35 43 42 39 35 32 35
92 96 93 92 93 90 83 74 66 64 60 65 64 62 61 57 49 64 61 60 62 60 56 54 53 58 77 75 52 61 67 55 43 39 38 36 36 37 47 38 40 36 41
88 88 90 84 88 90 85 77 72 70 69 67 66 67 64 51 96 99 88 59 60 62 63 62 59 72 75 90 92 91 84 84 70 55 45 47 63 55 44 45 44 43 46
96 96 95 92 86 89 97 92 78 71 69 69 66 69 76 69 87 96 96 65 63 64 64 66 55 38 66 56 82 92 95 96 95 86 72 65 78 73 69 70 68 59 54
89 88 87 88 87 85 85 88 84 76 70 67 66 71 66 56 82 87 93 68 62 62 64 67 68 70 84 82 63 56 55 58 72 61 64 68 70 68 76 68 72 73 59
81 77 75 74 75 73 72 70 68 67 69 66 66 75 68 64 81 82 80 60 64 67 74 81 80 78 92 91 76 70 66 59 60 87 88 89 89 90 86 62 57 49 46
74 70 69 68 69 71 70 74 70 68 65 56 66 66 75 63 81 80 74 42 58 50 72 78 85 73 86 90 75 73 76 71 70 67 62 65 84 83 96 85 59 58 51
73 69 67 69 72 69 70 70 68 61 65 65 65 66 65 68 65 80 81 59 60 47 44 44 45 78 85 88 94 63 68 68 58 52 48 44 44 45 41 69 83 87 60
73 72 71 63 46 51 66 70 62 66 67 66 67 55 49 58 75 76 76 75 69 64 63 50 50 80 85 86 80 82 84 88 41 42 42 41 39 37 35 37 56 56 50
64 67 63 56 53 57 59 66 54 58 46 50 42 40 41 44 44 71 74 73 68 47 48 53 79 83 83 74 86 81 89 43 42 43 43 42 40 38 47 50 53 63 66
60 61 58 53 54 50 36 36 36 37 38 37 37 39 38 41 43 44 43 39 56 44 52 40 48 64 76 66 61 56 52 42 41 39 35 35 35 35 34 33 35 35 37
52 48 49 40 46 48 45 44 39 53 57 39 38 37 38 39 47 70 69 51 47 56 72 34 31 31 31 31 32 36 36 37 40 37 37 38 36 35 34 32 33 34 36
43 38 34 33 35 34 38 41 84 80 85 85 86 69 49 73 82 86 88 88 89 89 48 39 36 39 36 36 35 34 34 41 37 43 40 37 37 37 38 39 37 37 38
42 43 32 40 31 35 34 33 37 56 80 81 81 81 81 86 85 85 86 86 86 77 33 36 43 43 41 48 44 37 37 38 52 37 38 38 40 37 37 36 36 36 38
46 69 35 31 30 31 32 32 28 32 35 40 68 66 75 79 78 80 82 76 35 39 30 34 36 36 38 41 40 44 43 44 42 42 42 40 40 39 38 38 37 39 39
42 32 31 30 30 33 30 29 27 30 31 32 35 65 64 73 75 78 79 36 34 32 32 33 35 34 37 40 42 44 49 43 45 47 42 40 42 43 44 41 41 60 66
41 53 42 31 33 32 30 28 27 29 30 31 30 31 32 41 34 35 37 38 35 33 34 36 37 39 41 44 44 43 43 41 40 40 40 43 44 43 45 47 48 50 51
32 36 47 32 30 29 30 30 28 27 26 28 27 46 77 41 32 33 33 35 36 37 39 40 43 42 41 42 44 44 40 40 40 41 41 41 42 44 45 46 47 48 47
31 33 35 35 32 36 33 32 32 31 30 29 25 38 67 37 29 31 35 35 36 39 37 42 41 40 40 44 46 43 43 43 43 43 44 44 44 45 45 46 48 50 51
29 33 34 34 35 46 39 35 33 33 33 33 30 27 27 28 29 32 35 34 37 38 38 40 41 39 40 42 44 46 47 47 48 48 52 54 53 51 50 51 51 50 49
30 32 34 34 37 35 34 36 36 52 38 32 32 31 31 31 30 32 35 35 38 38 39 40 42 44 46 47 47 48 50 54 59 63 64 66 68 67 64 64 61 58 54
31 33 33 35 37 38 36 34 33 34 34 33 32 32 31 32 31 31 31 34 37 40 41 42 41 44 46 52 51 52 67 85 76 80 75 76 80 83 82 82 80 76 72
51 39 37 35 37 38 38 38 37 36 36 35 34 35 36 37 35 33 34 35 37 38 45 42 44 48 51 50 54 75 88 91 82 91 81 82 85 86 86 90 90 87 84

GFSGL_sfc_rhum_099.txt.gz
RH
60 60 67 54 61 56 53 52 55 55 62 59 60 55 54 56 56 64 66 60 59 60 59 58 55 62 45 37 40 34 34 35 38 34 36 62 53 50 47 50 47 47 34
83 72 68 58 54 68 54 52 54 58 57 60 61 63 61 58 59 63 61 53 58 57 54 55 55 42 62 64 42 61 47 53 46 67 54 41 53 53 56 61 43 32 34
90 87 84 65 66 72 75 55 53 55 62 54 58 66 63 62 60 61 65 61 54 54 52 54 52 54 62 52 58 51 41 38 45 43 45 38 38 36 44 54 54 50 34
94 96 94 90 91 90 86 85 76 63 59 58 56 57 57 55 70 56 59 60 57 52 53 52 52 54 60 61 53 67 56 54 51 44 40 39 36 43 37 40 37 33 33
76 75 80 94 93 89 88 87 85 79 63 57 57 59 54 50 78 88 58 55 61 60 56 54 53 57 79 74 53 69 78 62 50 45 40 36 35 52 53 40 43 37 44
76 76 77 80 83 85 78 86 87 83 80 66 65 67 69 73 92 92 88 77 60 59 60 60 59 72 71 80 87 86 84 77 76 60 52 55 73 60 51 50 53 49 54
85 88 84 81 78 79 78 82 92 87 80 68 70 82 82 74 82 86 91 66 68 72 74 72 59 60 75 63 84 93 92 92 93 82 77 74 77 73 78 78 73 67 62
92 92 90 89 87 84 79 78 86 79 76 75 74 72 67 57 80 84 83 69 63 65 69 73 76 82 85 82 81 71 58 58 78 73 71 68 73 78 80 79 80 81 65
91 87 82 81 80 76 78 77 76 86 73 68 80 72 69 66 81 83 82 55 70 75 85 79 73 73 85 86 75 72 74 75 73 91 87 88 89 89 88 71 61 54 52
92 80 72 71 72 73 71 71 69 68 68 68 73 67 78 66 80 79 75 46 56 56 71 71 78 63 82 84 68 69 73 67 67 68 59 64 76 70 91 92 85 79 89
70 77 81 72 70 69 71 71 72 74 68 71 67 70 71 73 67 78 77 53 49 58 63 55 51 77 79 84 90 63 70 67 58 53 48 43 42 42 37 83 90 82 65
77 73 79 71 50 57 68 70 74 76 72 71 69 60 52 59 73 73 72 67 67 54 52 48 59 74 81 84 78 79 81 76 42 44 43 42 41 40 39 46 63 61 49
73 79 66 72 70 65 73 65 49 61 66 50 47 48 46 40 43 69 71 68 67 44 42 48 69 75 76 76 80 82 85 59 43 46 52 42 35 34 49 48 52 62 63
74 66 72 76 76 71 60 42 33 33 37 42 37 36 36 39 46 43 37 35 55 45 56 40 47 57 73 69 68 43 36 37 41 43 53 43 36 35 34 34 35 35 35
58 55 56 48 53 48 49 56 46 55 56 50 36 34 35 34 50 65 65 49 50 49 67 42 31 33 33 32 31 32 32 33 35 38 40 38 36 35 35 35 37 40 42
43 37 34 29 35 33 38 41 81 76 82 83 82 66 48 70 77 82 85 87 88 87 54 38 37 37 41 39 38 37 34 42 40 41 36 36 36 36 36 35 34 35 38
43 38 30 36 26 31 33 37 39 52 76 78 77 78 76 78 79 82 84 85 81 78 38 31 34 36 36 36 36 40 42 47 64 43 41 42 39 38 39 37 36 37 37
45 65 33 26 26 27 28 29 27 34 38 43 69 67 71 72 74 80 83 80 40 47 28 31 33 34 34 37 37 38 39 39 38 43 47 42 40 43 43 41 40 44 42
42 30 29 26 26 30 27 27 25 26 28 30 40 64 67 77 75 77 80 35 31 29 29 30 32 33 36 38 40 42 46 39 40 40 38 39 40 45 45 43 47 59 56
41 48 42 27 28 29 26 25 24 26 27 28 28 28 32 47 39 34 36 36 32 30 32 34 36 38 40 43 43 42 41 40 40 38 39 40 40 41 43 44 42 47 48
30 33 44 26 26 25 25 25 24 24 23 25 25 39 70 42 29 30 30 32 32 33 37 38 41 41 39 41 44 43 39 39 40 41 41 42 43 44 44 44 43 43 44
28 30 30 29 27 29 27 26 26 26 24 25 23 40 66 38 26 28 32 32 32 35 33 39 37 36 37 42 44 42 42 42 43 44 46 46 47 46 46 46 46 45 46
26 28 30 28 29 39 32 29 27 27 27 28 26 25 27 25 26 28 31 30 33 34 34 35 37 35 37 40 40 42 42 44 47 50 54 54 55 55 56 58 58 56 54
27 27 30 30 32 30 30 31 30 43 31 28 28 28 27 28 27 28 31 30 32 32 33 35 36 38 41 41 39 38 39 51 54 57 62 67 72 75 76 76 73 69 67
40 30 31 32 33 34 32 29 30 31 31 30 28 28 27 28 28 28 27 28 30 32 33 33 34 36 40 45 45 45 74 89 74 84 79 80 82 83 83 82 82 81 81
66 66 48 34 34 35 34 34 34 33 33 32 31 31 31 32 31 30 30 30 30 30 32 33 34 40 43 40 48 81 90 90 81 93 82 83 85 83 83 86 87 86 86

GFSGL_sfc_rhum_102.txt.gz
RH
71 81 77 75 68 69 70 68 70 94 92 92 93 75 77 73 72 80 80 77 76 78 76 75 75 76 75 71 70 65 70 71 73 86 78 92 93 91 63 64 68 68 64
89 87 70 94 90 75 82 90 68 75 79 81 79 81 79 75 76 79 78 71 76 76 72 75 72 53 77 80 79 80 77 76 76 79 74 74 74 74 73 77 61 42 58
85 86 88 84 82 82 84 94 98 76 75 69 78 83 81 80 79 81 82 81 79 76 72 73 73 76 78 76 80 77 73 68 75 76 78 71 68 63 68 71 70 62 52
90 86 90 93 87 87 82 79 82 83 82 79 78 82 82 77 77 79 82 82 79 71 71 70 72 71 75 78 73 79 73 81 78 82 77 73 72 69 74 73 59 73 70
88 83 83 85 90 93 90 88 89 88 86 84 82 79 92 92 91 93 95 85 82 77 76 76 70 84 80 88 76 84 87 90 85 77 74 71 75 74 79 75 80 70 70
83 85 85 87 87 86 88 91 89 88 87 85 83 87 93 91 86 88 90 84 81 79 84 83 81 86 82 87 84 85 86 88 91 96 94 82 86 94 78 81 83 82 82
85 83 88 88 84 83 83 87 87 92 92 90 96 91 83 78 81 84 83 74 77 84 84 86 78 85 88 85 90 97 96 95 94 92 88 87 88 86 90 89 90 92 86
96 90 88 86 84 82 80 81 82 87 92 90 93 88 78 64 80 83 84 78 78 82 87 90 92 92 86 78 83 83 84 84 87 86 88 86 90 90 91 86 90 88 80
94 92 90 86 84 83 83 86 80 90 90 90 84 88 81 74 80 80 85 74 86 90 91 78 83 81 82 82 79 83 83 83 89 93 96 90 86 88 91 86 80 89 79
93 87 86 83 84 84 82 85 82 79 84 76 77 76 83 75 77 76 76 62 72 67 88 82 77 72 80 83 77 77 82 81 79 68 64 67 74 74 84 91 83 96 95
88 90 87 79 82 79 82 79 79 79 82 82 80 81 77 76 69 76 73 62 58 66 66 65 62 76 78 82 86 76 80 80 68 64 63 60 62 64 61 86 88 93 94
80 80 84 81 79 69 80 79 78 81 84 83 83 79 70 68 74 72 71 72 70 61 64 67 65 70 76 81 81 78 81 79 65 63 60 55 52 53 49 77 82 77 77
70 76 77 74 74 75 71 79 78 79 76 79 75 67 63 65 61 70 66 68 66 62 57 63 70 72 73 72 78 84 81 76 74 65 63 63 66 60 53 56 64 71 68
79 79 68 73 76 76 76 93 83 64 61 59 61 62 60 61 59 56 53 57 62 57 64 58 64 73 78 68 68 71 68 69 68 61 58 54 53 53 55 57 53 49 48
63 62 64 61 63 70 67 65 65 67 67 60 56 54 56 59 57 67 64 53 55 64 78 70 71 65 59 58 57 55 57 57 60 58 56 57 55 53 54 52 52 55 59
61 55 56 48 56 54 58 59 78 76 80 79 81 70 55 68 74 77 81 85 86 84 67 66 64 62 60 62 62 60 59 61 62 58 58 57 56 56 55 53 53 55 57
60 60 44 47 42 48 49 50 51 57 76 75 74 75 72 75 76 77 82 85 81 81 61 62 61 60 58 57 55 54 54 62 74 61 65 64 55 56 55 54 53 54 56
59 64 46 42 36 42 45 44 40 48 48 48 68 67 72 71 74 79 82 79 54 66 53 52 56 56 56 57 55 54 56 60 55 59 56 54 54 54 54 55 54 56 56
54 42 42 37 40 42 42 39 33 38 45 50 50 67 68 75 79 81 82 61 52 45 45 48 50 48 54 57 60 62 66 57 60 58 55 55 54 54 56 54 53 62 62
54 58 49 39 35 40 36 34 33 38 40 42 45 48 49 55 51 58 61 56 49 43 47 50 53 57 60 63 63 62 56 55 55 52 55 56 56 56 56 57 56 57 57
41 44 48 35 32 32 33 34 33 32 32 35 36 46 64 42 47 46 47 50 47 45 55 54 62 62 60 60 60 55 51 50 53 55 56 57 59 58 59 58 58 58 60
44 38 39 38 35 40 34 33 34 32 31 31 39 40 66 31 39 40 47 46 44 52 46 58 50 50 51 55 57 51 50 51 54 58 60 60 61 60 61 63 64 66 68
41 35 37 37 36 44 39 35 32 33 32 32 31 35 36 32 38 37 40 38 44 45 47 48 48 44 49 50 49 51 50 56 60 61 64 68 69 71 74 77 75 76 74
52 44 36 36 38 34 33 36 35 40 30 31 32 33 33 33 32 37 37 39 42 41 43 46 46 40 48 48 48 46 58 61 59 63 69 77 80 82 82 82 82 81 80
75 56 53 39 42 40 37 32 34 34 33 34 32 34 32 33 34 34 34 37 39 42 40 41 43 39 40 44 47 52 81 87 73 86 72 74 78 81 83 83 82 82 81
87 81 77 73 60 53 45 46 40 39 38 37 37 36 38 37 36 36 37 37 37 37 36 39 38 37 40 42 58 79 85 89 77 92 80 76 80 83 83 84 84 86 87

GFSGL_sfc_rhum_105.txt.gz
RH
87 89 90 90 88 83 85 86 94 94 89 86 88 92 88 80 81 81 84 81 80 86 85 86 81 75 77 85 80 83 79 74 74 78 86 86 84 80 66 83 75 68 66
91 95 93 96 91 92 90 89 91 93 91 90 92 93 86 83 83 86 85 80 86 85 82 89 81 68 81 80 88 87 82 82 80 80 87 88 90 88 83 83 70 57 56
96 95 96 95 90 91 92 89 87 88 90 90 87 87 86 87 88 86 86 85 85 85 83 86 80 82 85 81 81 82 89 84 90 90 89 82 76 73 65 69 67 68 61
94 91 90 95 96 94 92 93 92 91 88 84 85 86 87 96 96 97 97 96 89 84 87 85 83 81 82 85 81 86 87 84 92 95 92 84 83 80 82 85 88 82 84
95 94 94 91 95 92 91 89 89 90 88 86 88 96 96 96 96 98 98 98 88 90 91 83 90 89 91 87 84 88 88 91 92 93 96 95 94 94 94 94 96 94 90
96 95 95 96 94 94 94 94 91 90 90 90 98 97 96 88 81 83 86 95 94 90 92 90 94 90 92 95 98 96 92 89 91 96 96 96 94 95 96 97 98 98 98
96 95 95 95 95 95 95 95 96 94 94 97 95 87 69 66 78 82 84 84 90 93 93 94 95 82 86 87 92 96 97 96 92 93 96 96 96 93 96 96 96 98 97
97 97 96 94 93 94 94 92 92 94 95 97 94 89 72 57 78 82 88 83 91 98 96 96 95 86 83 72 85 91 93 96 95 90 97 97 95 93 92 90 93 97 96
97 94 93 92 95 94 92 95 94 94 94 96 87 89 73 56 77 78 80 81 98 92 85 73 70 71 79 81 72 76 85 90 84 75 77 84 86 86 86 94 91 97 96
94 96 94 88 89 93 89 90 91 91 96 79 79 78 78 61 76 74 76 67 77 90 87 78 74 62 80 84 60 71 81 86 78 60 59 64 71 72 82 95 96 97 97
94 93 90 79 87 87 88 84 86 91 94 91 85 82 81 64 64 74 74 59 66 74 73 69 63 73 75 79 83 64 74 78 67 73 74 63 58 60 61 76 90 95 96
84 85 87 88 78 74 75 80 86 85 88 93 96 87 74 69 70 72 77 77 70 63 67 73 60 75 77 78 75 77 84 83 76 66 60 62 60 54 55 70 70 57 64
83 76 74 72 73 75 70 78 69 74 72 83 80 77 78 62 61 72 69 74 70 69 69 73 78 79 80 76 79 82 81 81 75 63 64 66 62 59 54 49 46 50 52
87 85 82 81 78 76 73 92 77 67 65 66 71 65 72 70 64 54 50 62 67 65 70 67 74 84 80 77 67 62 63 65 69 73 70 63 56 55 53 53 62 54 72
83 80 83 78 77 64 70 69 58 60 68 58 64 64 65 69 61 69 65 56 64 73 84 81 70 69 64 68 68 69 68 68 61 63 65 64 59 54 54 53 52 56 62
82 83 83 84 80 80 74 71 77 76 79 80 81 69 54 67 69 77 83 85 83 82 76 87 72 76 73 72 71 71 73 74 76 67 72 69 66 62 59 53 52 57 58
87 82 75 73 72 87 82 74 67 73 78 75 78 74 76 71 72 78 82 84 81 84 80 84 74 72 74 73 73 74 72 74 70 71 74 70 61 58 59 56 56 56 58
80 70 68 68 60 63 75 75 71 62 57 56 68 75 72 71 75 78 80 76 68 78 72 71 73 74 76 76 76 74 74 70 74 74 70 69 64 62 62 64 63 64 63
82 77 66 60 65 62 60 59 67 70 68 66 68 69 72 75 76 78 83 66 77 66 68 68 69 68 72 76 77 76 76 74 74 74 70 70 68 70 70 68 68 71 70
82 78 66 61 65 57 54 56 57 58 72 72 69 66 69 69 70 73 79 69 70 69 72 68 71 73 75 75 74 74 73 74 75 74 72 71 72 73 74 73 73 74 74
78 76 69 59 64 59 57 58 56 59 58 71 72 71 73 70 68 72 75 65 67 71 72 70 73 77 78 78 75 72 70 75 78 79 80 80 80 80 80 79 79 80 80
74 70 68 63 61 66 56 59 58 57 56 66 54 50 66 50 57 67 66 65 64 69 69 67 68 74 74 72 72 68 73 80 82 82 84 85 86 85 86 86 74 71 70
95 94 88 58 59 60 62 60 58 56 53 63 59 51 51 50 48 63 62 65 66 70 66 64 67 73 74 69 74 79 82 84 84 86 89 91 94 94 89 83 82 82 81
93 94 93 73 54 55 57 61 57 57 52 52 55 56 57 54 54 59 60 64 64 64 66 65 64 62 67 68 78 79 82 83 84 86 90 92 83 82 82 83 83 82 81
97 96 95 84 57 57 58 60 58 53 54 52 56 52 56 57 56 58 56 60 62 63 59 60 63 56 60 63 74 78 86 85 86 89 91 82 79 80 83 84 84 84 85
93 97 97 96 89 84 83 68 62 64 58 58 53 56 61 60 59 58 61 60 60 61 61 60 53 54 63 75 72 81 90 86 84 90 92 79 82 85 85 88 87 88 87

GFSGL_sfc_rhum_108.txt.gz
RH
87 94 93 93 91 93 94 94 94 92 90 92 88 82 87 88 85 89 89 88 82 84 87 88 88 86 85 87 88 91 89 91 90 83 91 87 80 79 73 78 80 80 76
95 95 95 95 92 92 94 95 95 94 91 87 88 92 93 86 88 88 85 87 86 87 84 88 88 76 86 89 92 89 91 90 86 86 87 92 90 84 82 83 71 62 67
97 97 98 95 92 94 93 94 94 94 95 94 95 93 90 90 92 93 93 92 89 88 89 90 88 89 88 91 83 85 93 86 94 95 94 93 86 85 84 73 77 82 69
98 97 97 96 95 96 96 95 93 92 93 94 92 93 96 96 96 96 96 96 93 90 91 90 92 89 89 87 85 88 91 90 93 95 96 93 92 90 93 95 97 95 93
96 96 95 96 97 96 96 96 94 92 91 94 98 98 97 96 94 96 95 95 95 87 90 92 98 95 96 98 98 93 92 95 95 95 96 96 96 96 96 97 98 98 96
98 97 95 96 95 93 94 94 94 90 90 98 99 97 92 81 79 80 82 92 95 95 92 95 94 89 93 92 92 97 96 90 91 96 97 97 95 96 97 98 98 99 98
97 97 97 97 96 95 96 96 95 93 96 98 93 82 64 63 79 83 82 78 92 97 97 98 91 72 83 85 92 97 99 99 98 97 97 97 98 96 99 98 96 98 98
98 97 98 98 98 98 96 96 94 96 98 96 90 78 53 55 79 88 87 87 91 98 97 94 88 78 83 84 80 85 96 93 90 80 88 93 94 94 92 89 94 98 98
99 99 96 92 94 97 97 96 96 98 98 96 86 77 54 54 80 84 81 96 94 88 80 66 63 61 77 82 61 70 79 79 71 70 76 82 86 88 91 93 98 98 97
98 98 97 96 95 95 96 94 94 98 98 91 85 74 65 53 76 81 71 81 93 83 86 79 73 60 77 81 51 60 64 72 72 71 68 64 66 63 79 92 95 97 98
95 94 94 94 93 86 91 92 94 97 89 89 82 85 62 56 62 78 74 55 68 77 76 71 59 77 79 78 81 66 75 84 74 74 67 59 56 55 52 62 86 91 91
90 93 94 92 85 77 78 84 90 97 95 95 84 81 70 62 70 80 82 80 71 59 67 66 61 81 86 84 82 85 87 83 74 68 66 66 68 62 62 64 61 62 62
79 80 83 77 75 77 77 82 73 83 81 87 88 82 65 54 57 74 80 78 73 62 60 71 82 83 78 74 81 78 75 71 73 69 79 78 77 70 64 67 63 61 71
85 84 81 82 79 67 69 84 72 63 68 62 67 84 75 80 61 47 50 55 60 59 65 67 78 80 77 75 66 67 69 70 70 75 76 76 69 59 57 62 59 56 72
88 82 83 79 72 71 78 78 59 60 69 60 65 68 70 65 50 64 59 52 66 69 71 68 60 67 68 70 73 76 76 72 71 80 76 73 67 62 61 62 58 60 63
91 93 94 94 93 72 66 64 74 72 75 77 75 64 52 68 73 73 80 83 82 81 73 82 84 81 74 76 75 76 76 72 77 73 78 74 72 66 62 58 58 63 65
86 86 85 85 83 89 80 70 62 69 73 71 74 75 77 68 72 76 81 80 79 78 80 81 76 74 78 78 76 77 78 79 77 75 74 72 69 68 66 66 65 66 68
89 81 75 85 80 85 91 80 72 63 56 50 63 71 73 72 73 78 80 79 74 76 81 76 71 76 78 81 80 79 77 76 78 76 76 76 77 73 71 75 76 79 78
83 85 82 71 71 69 77 88 83 77 66 57 64 66 70 73 76 78 81 71 84 77 79 78 79 78 81 79 80 81 81 77 81 78 83 83 83 83 83 81 82 81 82
82 82 80 76 69 65 62 65 71 80 77 73 61 56 64 70 67 73 82 80 78 79 80 80 82 82 82 81 80 81 80 78 82 82 82 82 83 86 86 87 88 83 77
95 91 82 80 71 73 65 61 62 68 83 83 71 66 74 65 67 75 78 78 78 78 77 79 85 84 82 79 78 82 81 84 85 86 89 92 92 94 94 93 70 66 66
95 94 93 84 74 67 68 64 64 63 67 80 82 77 84 70 70 70 82 72 76 75 73 79 83 80 78 78 80 83 87 87 88 90 92 93 94 95 96 95 88 91 89
96 95 95 89 69 65 65 66 63 64 65 72 72 64 64 53 56 71 72 75 78 76 76 78 80 80 82 82 84 82 84 86 88 90 91 93 95 96 96 96 91 94 93
97 95 95 95 90 77 63 63 60 67 63 68 60 55 52 53 57 61 73 75 76 74 73 76 77 75 82 85 86 85 86 89 91 89 89 93 95 92 94 95 95 95 82
98 98 98 98 95 89 70 58 61 62 60 62 60 54 52 59 58 67 70 70 72 73 70 70 71 72 75 80 81 81 86 88 90 91 94 90 91 86 93 95 97 96 85
95 95 98 97 96 95 93 81 69 70 62 60 67 62 62 65 66 65 66 66 68 68 67 71 67 68 74 75 76 80 89 91 88 90 90 91 93 95 96 96 97 98 88

GFSGL_sfc_rhum_111.txt.gz
RH
95 94 93 95 93 94 96 94 94 94 94 94 95 89 82 86 88 91 92 92 88 87 91 92 89 90 91 94 93 96 94 96 95 86 96 88 85 81 78 81 82 82 84
94 95 94 94 94 95 95 93 93 93 93 90 92 90 91 94 93 92 90 90 90 87 86 90 89 84 90 91 95 92 93 93 94 90 90 93 87 86 86 83 77 66 81
97 97 98 97 97 98 98 96 96 94 93 92 92 94 95 93 92 94 93 92 91 91 90 90 88 91 90 93 91 88 91 90 96 96 96 96 92 92 91 87 88 90 78
97 95 96 97 98 97 98 97 97 97 95 96 96 96 95 95 95 95 94 95 94 93 91 92 93 93 93 92 93 93 91 96 94 96 96 96 96 92 96 97 97 97 95
96 94 94 96 97 96 98 98 97 96 95 94 98 98 98 95 93 95 94 95 95 91 92 95 95 95 96 97 98 95 96 98 97 96 96 97 97 96 96 98 99 98 97
98 96 95 97 96 96 98 97 96 94 93 97 98 97 93 91 84 79 83 93 94 97 95 96 95 90 86 85 90 96 99 97 95 97 98 98 96 98 98 99 99 98 99
97 97 98 99 97 96 96 96 97 96 98 99 93 83 67 66 80 83 82 79 93 98 97 99 87 68 83 87 93 93 93 95 98 98 98 98 99 97 96 96 95 97 98
98 99 99 98 98 98 98 98 97 98 99 95 83 69 55 61 85 91 90 90 96 98 97 95 88 74 81 78 81 97 92 84 85 80 82 87 90 92 93 92 94 96 97
99 99 99 98 99 98 97 96 98 99 96 94 76 69 54 55 86 89 94 96 94 90 86 83 66 60 75 79 57 69 73 68 68 81 83 83 82 83 85 88 97 94 93
96 98 98 97 97 98 98 97 97 98 98 86 79 62 62 51 80 81 90 80 74 75 86 75 74 67 76 79 54 59 63 73 78 69 67 66 68 64 72 87 91 93 98
99 99 98 98 98 96 96 97 99 99 95 90 81 69 55 56 71 84 73 69 80 83 76 72 58 83 86 79 77 67 74 83 76 68 66 65 60 57 60 60 77 89 94
98 98 98 97 96 85 83 92 97 96 89 84 76 75 64 60 76 80 82 80 69 66 70 66 60 85 91 85 83 88 87 77 73 70 69 73 72 70 69 68 70 60 60
89 88 92 88 86 87 87 72 78 89 91 89 82 80 70 57 58 70 77 73 71 63 62 71 82 84 82 79 83 79 75 69 68 68 75 78 78 72 69 72 63 77 66
74 72 75 81 67 61 67 69 61 62 63 65 66 90 70 79 57 45 41 51 58 58 68 79 86 80 80 79 73 73 73 74 71 75 79 82 75 70 63 72 72 67 70
80 81 85 81 72 75 76 66 58 67 72 68 71 91 80 71 59 59 59 52 62 66 76 72 68 72 73 75 75 75 74 74 74 79 76 76 74 67 63 68 69 76 72
89 91 94 92 77 73 71 65 72 72 76 77 77 72 58 74 73 73 79 81 83 80 72 77 79 75 73 72 77 77 82 77 82 76 77 77 76 74 73 71 70 78 80
91 91 92 95 94 78 74 67 62 62 70 71 68 73 76 70 72 78 81 83 82 81 83 79 69 75 77 77 79 76 79 82 82 78 81 80 75 75 78 80 80 81 81
91 90 80 92 92 93 92 84 73 66 60 55 61 68 72 75 76 79 80 83 77 84 87 80 80 79 82 82 82 81 79 78 76 78 81 84 84 82 84 88 90 94 94
89 91 89 77 82 81 81 92 92 82 73 64 59 68 72 79 77 78 80 77 84 85 86 84 84 84 84 84 85 85 84 84 84 87 89 88 87 90 95 96 94 83 83
85 84 84 85 83 74 70 75 91 93 87 78 66 57 63 72 69 74 90 88 86 86 86 84 85 84 84 84 86 88 87 86 88 92 94 94 96 96 97 95 88 87 86
96 94 85 89 83 78 73 69 68 72 80 84 76 67 70 62 66 78 80 83 82 84 85 86 87 86 85 86 88 88 88 89 91 93 95 96 96 96 96 95 90 92 94
97 97 96 95 91 82 74 72 70 71 71 79 83 82 82 70 74 80 82 80 82 82 81 83 87 84 82 82 87 87 88 89 91 93 95 96 95 96 96 96 97 97 93
98 97 96 96 94 86 79 71 63 65 69 71 74 82 84 77 71 73 83 80 82 82 86 84 82 84 85 86 85 83 85 87 88 92 94 95 95 96 96 97 97 97 77
96 98 97 97 97 97 96 87 79 67 58 64 70 72 75 73 63 61 83 81 83 82 84 83 79 77 85 89 89 88 85 88 92 91 90 94 94 94 95 96 96 96 98
96 97 98 98 98 98 97 90 86 88 86 65 68 67 68 66 59 56 80 76 75 77 77 77 78 76 77 83 86 85 88 89 90 93 95 92 91 90 94 96 96 97 97
95 96 98 98 98 98 98 98 97 94 90 77 72 65 60 59 59 64 77 74 72 70 72 75 74 76 79 79 78 82 90 93 91 92 93 94 94 95 96 96 96 98 98

GFSGL_sfc_rhum_114.txt.gz
RH
92 94 93 93 92 91 93 95 93 92 92 92 92 91 88 85 86 90 93 90 89 88 86 87 88 86 80 82 83 85 85 82 84 76 82 78 80 77 74 73 71 72 69
93 94 94 94 94 94 93 92 93 94 90 90 90 92 90 91 91 92 90 88 90 89 85 88 85 80 89 87 84 88 85 86 83 86 81 85 80 78 80 80 72 60 71
94 95 97 97 97 97 95 94 94 94 92 88 88 90 89 92 92 91 92 92 90 89 87 89 88 88 91 93 88 84 80 80 86 85 82 85 79 77 79 80 79 81 67
96 96 98 98 96 92 93 96 94 96 96 94 93 93 92 91 90 90 92 94 94 90 89 88 87 88 91 91 87 90 86 92 89 88 84 82 84 83 84 86 86 82 78
97 96 96 96 95 96 98 97 96 96 96 96 97 97 95 93 90 89 89 89 90 91 89 90 94 95 95 95 93 92 93 95 96 88 85 88 84 84 92 89 93 85 79
97 96 96 96 95 98 99 99 98 98 98 97 97 96 94 92 82 81 82 88 88 93 92 92 96 91 88 88 97 98 97 96 94 95 97 95 94 95 88 84 89 88 85
97 98 99 99 98 99 98 99 99 99 98 99 98 93 78 72 83 83 82 79 87 97 97 98 89 81 86 89 92 90 89 93 95 95 95 93 87 89 86 86 88 89 87
99 99 98 98 98 98 97 96 96 97 99 98 88 74 68 70 85 93 90 86 94 95 96 96 91 88 91 84 89 87 75 75 78 66 81 84 82 85 88 83 89 92 89
99 99 99 98 98 98 98 98 99 99 93 92 76 73 71 72 84 97 95 98 93 88 84 78 81 72 76 79 73 79 68 72 76 83 83 82 80 81 82 68 68 76 80
99 99 99 98 98 99 99 99 99 94 94 75 69 68 64 70 84 85 86 74 74 71 80 79 75 78 79 78 66 69 70 72 66 66 63 65 70 69 76 81 79 86 92
99 99 99 99 99 99 99 99 99 97 86 80 72 65 69 71 74 85 81 77 79 80 72 68 58 82 89 78 76 69 72 74 70 63 58 55 57 58 57 60 66 69 72
98 98 99 99 99 99 98 99 99 98 96 94 73 62 59 61 76 80 80 82 70 68 69 62 61 90 91 84 82 90 84 74 59 56 56 58 57 56 60 59 67 64 60
97 98 99 99 98 96 91 90 93 89 86 79 71 69 63 59 55 68 71 67 68 61 58 67 80 84 84 78 81 79 76 66 58 57 59 62 60 59 61 61 63 67 66
80 86 89 94 93 85 90 79 96 81 86 90 93 85 69 72 65 55 50 52 61 63 73 76 78 76 78 72 70 70 65 64 61 62 62 61 57 53 54 57 55 58 52
78 75 71 63 65 66 69 73 60 63 68 65 66 80 78 72 66 65 59 55 58 70 80 71 66 68 64 64 65 64 64 64 63 63 61 58 58 56 57 56 57 58 59
81 81 82 74 68 68 66 62 70 71 77 77 78 78 65 74 71 70 76 81 84 82 72 67 70 64 61 63 63 68 66 67 65 62 62 59 58 57 59 60 59 60 63
84 84 84 82 76 71 68 65 64 65 68 71 70 72 73 73 71 74 80 82 81 77 68 66 65 63 63 64 63 61 63 64 69 61 61 60 59 61 61 64 64 61 63
82 90 78 77 79 79 75 72 66 64 63 59 63 65 71 74 74 78 82 81 62 71 70 66 66 66 66 66 64 63 63 62 60 61 61 61 61 61 63 66 65 65 64
83 81 79 73 77 79 76 77 77 75 69 64 58 62 69 82 79 82 83 64 63 67 69 66 66 64 65 64 65 66 65 62 61 61 63 64 64 64 68 65 63 71 67
83 82 81 78 75 73 67 64 70 78 77 71 65 57 52 62 57 60 69 74 66 66 66 65 66 66 66 68 69 67 66 64 64 62 65 66 68 66 65 65 64 64 67
95 91 82 82 76 70 67 63 62 62 68 69 65 66 70 54 53 56 64 69 68 66 68 66 68 67 68 68 68 66 61 61 63 64 66 68 68 66 67 67 67 68 70
94 93 93 90 87 81 74 69 65 61 59 59 56 65 80 52 52 57 65 65 65 66 63 68 65 62 63 66 67 62 61 62 64 65 68 68 67 67 67 68 68 68 67
91 90 93 91 86 88 82 76 70 65 62 58 56 57 65 58 53 58 63 62 65 66 66 66 66 62 64 64 62 62 59 60 60 63 66 68 68 67 66 68 67 65 63
87 87 89 92 93 89 85 83 82 80 66 61 65 60 60 66 59 57 60 65 65 64 66 66 63 59 65 63 62 60 59 59 61 63 65 66 67 73 68 68 67 70 65
89 90 92 94 94 94 90 85 86 84 82 78 74 74 78 70 66 60 55 64 64 65 66 65 62 60 62 65 62 60 72 87 70 75 67 68 68 73 67 66 68 68 71
91 89 92 93 93 93 93 92 91 91 90 86 83 82 81 82 73 64 60 68 65 61 61 61 59 59 60 61 62 71 90 92 77 90 66 65 65 65 67 71 74 70 71

GFSGL_sfc_rhum_117.txt.gz
RH
69 70 72 70 71 74 75 75 77 79 78 79 76 72 74 73 72 76 81 75 75 72 69 71 72 73 58 55 58 59 59 60 56 46 53 52 66 64 58 55 50 51 47
68 75 77 77 76 74 77 76 80 80 76 76 76 75 73 74 72 74 73 66 73 74 72 74 69 57 76 82 60 71 66 68 62 72 62 54 66 64 64 66 52 42 51
73 75 77 78 80 80 80 81 80 79 78 71 74 75 77 74 71 74 79 76 70 70 69 71 72 69 81 63 86 88 68 60 80 70 63 62 60 58 63 64 67 66 44
74 74 77 77 77 77 81 80 78 81 81 79 78 77 73 72 75 78 81 82 79 74 79 71 73 74 79 76 80 83 69 88 87 84 74 59 59 63 64 64 57 54 53
84 75 78 86 87 81 80 80 80 80 77 79 80 83 82 82 81 82 78 76 75 74 75 80 77 92 92 95 90 86 86 89 90 90 92 69 84 60 83 59 58 54 62
82 82 85 94 93 87 94 88 85 88 87 84 83 94 96 87 82 80 85 77 74 75 77 74 85 84 82 96 98 98 95 88 90 92 90 90 84 69 61 57 57 56 58
88 88 92 95 90 95 96 94 93 97 98 92 96 96 90 78 82 86 81 65 71 80 86 80 82 72 83 86 88 86 82 87 87 82 79 76 75 75 73 74 76 70 63
98 99 96 98 98 96 97 96 97 98 99 99 98 87 83 86 83 94 93 75 79 84 93 92 86 88 88 79 91 80 74 66 67 48 69 66 64 67 75 68 79 78 64
98 95 98 97 98 98 99 98 99 98 99 98 88 76 77 78 85 97 94 88 86 84 85 83 78 72 73 78 84 86 70 64 74 82 81 82 81 84 78 50 48 51 56
99 99 99 99 98 97 98 99 99 99 98 96 90 71 67 65 84 88 82 64 71 59 60 60 73 67 75 74 58 59 62 62 52 55 53 59 65 63 69 64 50 49 53
99 98 99 99 99 99 99 99 99 99 98 96 86 79 70 67 64 85 82 69 62 62 59 56 49 82 88 75 76 57 63 62 66 52 46 43 44 46 43 49 56 44 44
99 99 99 98 99 99 99 100 99 99 99 97 88 75 82 60 74 76 80 79 66 62 61 54 54 90 86 82 71 89 82 66 44 43 42 42 42 43 46 48 60 54 50
97 98 98 98 98 99 99 99 100 99 99 91 67 64 64 58 53 69 70 66 66 45 42 57 81 89 88 75 81 81 72 51 45 60 44 44 43 43 54 55 54 60 58
95 95 91 94 96 96 98 98 100 99 99 91 90 83 70 66 59 50 43 41 59 51 67 58 72 72 78 61 57 52 50 52 51 47 45 45 42 39 39 39 40 42 37
68 65 66 67 82 92 95 95 95 84 94 97 82 80 76 72 70 71 58 50 54 73 66 52 50 52 58 65 65 50 54 49 45 45 43 43 41 40 40 39 39 38 38
56 51 50 52 59 59 59 58 72 74 81 78 77 73 65 76 75 76 79 79 80 79 61 50 51 47 48 50 48 52 51 49 57 50 51 43 39 43 39 40 40 40 40
61 62 60 57 48 50 49 48 45 53 65 68 70 72 71 67 72 73 78 80 80 76 48 48 51 49 49 49 46 43 45 46 57 45 41 40 41 41 41 41 41 40 40
68 86 53 52 54 57 55 53 47 50 48 47 62 60 67 72 73 76 80 77 37 48 34 38 45 47 46 45 44 43 45 45 44 42 42 40 40 41 41 41 41 44 42
60 56 57 53 52 56 51 49 47 51 51 47 47 58 62 78 78 80 82 42 36 33 35 42 47 46 46 47 47 48 50 45 44 41 40 40 41 39 43 40 45 63 55
64 78 72 58 53 54 50 47 44 46 47 48 48 46 44 50 39 41 43 44 46 42 44 47 49 47 49 51 52 51 50 48 46 41 40 42 44 42 42 44 42 42 46
57 58 75 57 57 56 54 53 50 48 48 46 40 44 75 45 39 38 35 42 46 46 52 50 50 50 51 52 51 50 45 42 42 41 41 43 46 43 46 46 44 44 45
46 48 53 52 53 56 55 56 55 55 54 52 44 42 81 45 38 38 37 39 42 48 46 50 47 45 44 48 50 45 43 42 43 42 42 43 45 45 44 45 44 45 44
45 47 44 46 52 68 54 50 50 48 48 48 48 46 42 41 39 39 38 36 41 46 46 46 46 42 44 44 43 44 40 40 42 41 43 45 46 46 46 46 46 44 43
57 55 57 52 52 52 50 53 52 65 56 49 47 45 46 48 53 50 44 45 42 44 45 45 43 40 46 44 42 40 38 39 40 42 44 44 45 58 47 47 46 48 44
56 58 60 61 63 62 59 53 54 54 53 51 49 48 46 48 52 54 70 50 44 47 46 44 42 42 46 48 42 40 61 74 52 57 45 47 49 55 46 43 46 46 50
66 67 63 60 60 62 62 62 63 62 61 58 56 55 55 55 54 56 57 49 54 52 54 51 43 43 44 44 44 60 89 87 64 79 45 44 46 46 45 49 52 47 48

GFSGL_sfc_rhum_120.txt.gz
RH
52 54 55 53 53 58 57 61 68 71 66 68 68 65 63 64 62 70 65 58 63 61 59 59 62 62 46 37 37 39 40 40 45 36 34 38 56 52 50 48 42 44 56
53 58 60 59 58 55 62 59 64 69 70 67 66 66 64 62 62 65 69 54 59 61 57 60 58 45 60 63 47 57 50 53 49 62 53 44 52 55 55 58 44 32 41
57 58 60 60 63 61 62 61 65 65 66 59 63 67 65 63 65 65 71 62 63 57 56 58 58 58 64 60 71 60 55 55 69 63 54 52 46 45 50 53 56 55 37
56 59 62 62 60 61 62 66 65 67 66 64 64 65 63 61 61 63 66 65 63 57 63 60 61 63 66 66 64 74 87 92 81 65 67 68 53 49 50 47 42 42 42
62 59 62 63 63 70 71 71 68 67 64 64 66 65 65 62 54 70 67 66 66 65 64 66 63 73 90 87 83 86 92 66 52 49 57 69 94 62 81 67 45 42 75
72 82 65 75 75 75 69 77 73 68 67 66 66 66 70 59 86 75 80 65 67 67 68 65 76 89 82 94 97 96 91 86 83 94 75 67 82 91 68 47 46 46 73
95 89 76 80 73 77 77 81 83 93 86 83 73 75 80 72 82 83 80 65 60 64 68 69 76 54 74 67 87 85 80 81 84 93 92 88 83 71 70 69 72 72 70
91 95 84 94 90 79 90 90 95 94 92 94 89 86 83 82 88 94 96 77 72 66 72 79 82 73 79 78 81 70 63 76 77 55 66 68 61 65 68 60 70 71 59
95 89 85 95 89 97 98 98 98 99 98 98 96 91 90 84 84 96 95 83 79 82 82 73 80 78 73 75 72 72 67 65 74 80 79 79 78 80 73 44 44 44 88
96 90 91 90 92 98 98 99 99 99 99 99 96 94 91 90 84 88 88 72 74 59 66 62 68 66 79 74 58 65 66 59 47 54 57 67 68 61 66 58 42 41 40
97 98 97 98 99 99 98 99 99 99 99 98 97 97 91 80 68 86 82 67 58 61 54 52 46 80 87 76 73 55 62 57 63 54 46 39 40 39 37 45 53 39 37
97 97 98 98 98 99 99 99 99 99 99 99 99 98 96 85 78 73 78 76 70 60 62 53 57 89 80 81 72 85 83 72 39 39 38 38 36 36 38 43 56 52 47
98 98 98 98 95 96 98 99 99 99 99 99 98 98 93 91 72 71 68 70 67 40 39 64 84 90 87 75 80 80 79 40 40 40 45 39 38 39 49 48 50 56 55
96 95 95 96 88 88 93 97 99 99 99 99 98 98 97 72 58 65 54 39 54 50 72 46 65 73 84 62 56 53 49 51 47 42 42 40 40 34 33 33 34 34 30
69 67 67 68 81 87 91 97 99 98 99 99 99 98 98 81 66 69 69 47 54 61 64 47 45 52 42 45 48 50 62 55 59 62 44 55 36 34 39 34 33 31 30
40 36 43 57 54 59 66 64 72 85 92 91 88 90 71 81 76 75 76 76 72 75 51 38 37 35 35 37 41 44 42 47 40 40 38 39 35 33 36 35 34 33 34
52 55 46 41 34 38 38 38 38 45 68 70 73 71 75 65 75 76 78 75 75 72 43 38 39 39 38 36 37 36 36 37 51 35 34 34 33 32 33 32 33 33 33
55 78 36 40 45 47 45 42 36 36 36 37 58 58 68 74 73 74 78 72 34 50 28 26 30 36 38 40 39 37 39 41 36 36 35 33 32 32 32 32 32 34 33
48 46 47 44 43 48 42 42 40 44 44 41 40 56 61 70 72 75 79 38 29 26 23 24 27 30 35 38 39 40 43 38 37 36 33 32 32 32 34 31 34 59 54
54 74 67 47 44 46 40 39 37 39 40 40 39 37 40 48 41 39 40 38 33 29 28 30 31 34 37 43 45 44 43 43 41 37 33 33 35 33 32 33 32 33 36
34 39 75 34 34 34 36 37 38 38 37 38 36 42 84 38 35 34 32 32 32 32 33 35 37 40 42 45 44 42 39 36 36 34 33 35 36 33 36 35 33 33 34
26 26 26 29 30 31 33 33 33 34 34 33 31 33 76 39 37 34 32 32 30 32 31 37 39 39 40 42 43 38 34 34 35 34 33 32 34 34 33 34 34 34 34
25 26 26 27 31 48 34 30 30 31 31 31 30 29 29 30 31 33 35 32 31 30 31 34 38 35 35 36 34 34 32 32 33 33 33 34 33 33 34 34 35 35 34
31 30 34 33 36 34 31 35 34 47 37 33 32 32 32 32 31 32 32 35 39 41 34 34 34 33 33 35 32 32 31 30 31 33 34 33 34 46 35 36 35 36 35
29 33 35 36 37 36 36 34 36 36 36 35 34 34 33 33 33 33 32 34 37 39 42 39 48 43 36 40 33 33 66 64 43 49 35 35 37 42 35 33 34 34 37
37 38 36 36 38 39 39 38 37 36 37 38 38 38 38 40 40 42 41 43 46 41 40 39 39 46 40 38 37 65 83 78 53 73 38 34 35 35 33 37 38 35 36